Wetterdaten: Mittwoch, 09.08.2017
Datum Zeit Temp. A. Pool Temp. Feuchte A. Luftdruck Regen Wind Richtung Richtung Sonnenschein ET UV Solar Taupunkt Windchill Windben Empfang
09.08.2017 00:00 18,7 C 23,9 C 85 % 1015,8 hPa 0,0 l/m 18,7 km/h (3 Bft) W-SW 250 0 min 0,000 mm 0,0 UV-I 0 W/m 16,1 C 14,8 C 32,2 km/h (5 Bft) 91,67 %
09.08.2017 00:02 18,5 C 23,9 C 86 % 1015,9 hPa 0,0 l/m 15,7 km/h (3 Bft) W-SW 256 0 min 0,000 mm 0,0 UV-I 0 W/m 16,1 C 15,3 C 24,1 km/h (4 Bft) 97,67 %
09.08.2017 00:04 18,3 C 23,9 C 87 % 1016,1 hPa 0,0 l/m 21,3 km/h (4 Bft) W 265 0 min 0,000 mm 0,0 UV-I 0 W/m 16,1 C 13,7 C 33,8 km/h (5 Bft) 97,73 %
09.08.2017 00:06 18,2 C 23,9 C 87 % 1016,1 hPa 0,0 l/m 13,5 km/h (3 Bft) W-SW 244 0 min 0,000 mm 0,0 UV-I 0 W/m 16,0 C 15,5 C 22,5 km/h (4 Bft) 98,11 %
09.08.2017 00:08 18,1 C 23,9 C 88 % 1016,1 hPa 0,0 l/m 14,6 km/h (3 Bft) W-SW 257 0 min 0,000 mm 0,0 UV-I 0 W/m 16,1 C 15,1 C 29,0 km/h (5 Bft) 97,62 %
09.08.2017 00:10 18,0 C 23,9 C 88 % 1016,2 hPa 0,2 l/m 15,4 km/h (3 Bft) SW 229 0 min 0,000 mm 0,0 UV-I 0 W/m 16,0 C 14,7 C 24,1 km/h (4 Bft) 98,08 %
09.08.2017 00:12 17,9 C 23,9 C 88 % 1016,4 hPa 0,0 l/m 12,3 km/h (3 Bft) W-SW 257 0 min 0,000 mm 0,0 UV-I 0 W/m 15,9 C 15,5 C 17,7 km/h (3 Bft) 97,44 %
09.08.2017 00:14 17,9 C 23,9 C 89 % 1016,4 hPa 0,0 l/m 14,3 km/h (3 Bft) W-SW 255 0 min 0,000 mm 0,0 UV-I 0 W/m 16,1 C 14,9 C 20,9 km/h (4 Bft) 96,00 %
09.08.2017 00:16 17,9 C 23,9 C 89 % 1016,4 hPa 0,0 l/m 17,0 km/h (3 Bft) W-SW 244 0 min 0,000 mm 0,0 UV-I 0 W/m 16,1 C 14,2 C 25,7 km/h (4 Bft) 98,11 %
09.08.2017 00:18 17,8 C 23,9 C 89 % 1016,3 hPa 0,0 l/m 12,5 km/h (3 Bft) W-SW 250 0 min 0,000 mm 0,0 UV-I 0 W/m 16,0 C 15,3 C 19,3 km/h (3 Bft) 94,74 %
09.08.2017 00:20 17,8 C 23,9 C 89 % 1016,2 hPa 0,0 l/m 16,0 km/h (3 Bft) W-SW 242 0 min 0,000 mm 0,0 UV-I 0 W/m 16,0 C 14,3 C 25,7 km/h (4 Bft) 97,56 %
09.08.2017 00:22 17,7 C 23,9 C 88 % 1016,2 hPa 0,0 l/m 14,6 km/h (3 Bft) W-SW 240 0 min 0,000 mm 0,0 UV-I 0 W/m 15,7 C 14,6 C 22,5 km/h (4 Bft) 98,21 %
09.08.2017 00:24 17,7 C 23,9 C 88 % 1016,4 hPa 0,0 l/m 11,9 km/h (2 Bft) W-SW 249 0 min 0,000 mm 0,0 UV-I 0 W/m 15,7 C 15,4 C 16,1 km/h (3 Bft) 96,00 %
09.08.2017 00:26 17,6 C 23,9 C 88 % 1016,5 hPa 0,0 l/m 15,5 km/h (3 Bft) W 278 0 min 0,000 mm 0,0 UV-I 0 W/m 15,6 C 14,2 C 25,7 km/h (4 Bft) 97,37 %
09.08.2017 00:28 17,6 C 23,9 C 87 % 1016,4 hPa 0,0 l/m 13,7 km/h (3 Bft) W-NW 290 0 min 0,000 mm 0,0 UV-I 0 W/m 15,4 C 14,7 C 19,3 km/h (3 Bft) 98,00 %
09.08.2017 00:30 17,4 C 23,9 C 87 % 1016,4 hPa 0,0 l/m 14,7 km/h (3 Bft) W-SW 248 0 min 0,000 mm 0,0 UV-I 0 W/m 15,2 C 14,2 C 24,1 km/h (4 Bft) 100,00 %
09.08.2017 00:32 17,4 C 23,9 C 87 % 1016,5 hPa 0,0 l/m 13,9 km/h (3 Bft) W-SW 252 0 min 0,000 mm 0,0 UV-I 0 W/m 15,2 C 14,4 C 20,9 km/h (4 Bft) 98,11 %
09.08.2017 00:34 17,3 C 23,9 C 87 % 1016,4 hPa 0,0 l/m 11,4 km/h (2 Bft) W-SW 250 0 min 0,000 mm 0,0 UV-I 0 W/m 15,1 C 15,1 C 17,7 km/h (3 Bft) 100,00 %
09.08.2017 00:36 17,3 C 23,9 C 87 % 1016,3 hPa 0,0 l/m 14,1 km/h (3 Bft) W-SW 254 0 min 0,000 mm 0,0 UV-I 0 W/m 15,1 C 14,2 C 22,5 km/h (4 Bft) 95,74 %
09.08.2017 00:38 17,2 C 23,9 C 87 % 1016,3 hPa 0,0 l/m 15,2 km/h (3 Bft) W-SW 251 0 min 0,000 mm 0,0 UV-I 0 W/m 15,0 C 13,8 C 20,9 km/h (4 Bft) 98,00 %
09.08.2017 00:40 17,2 C 23,9 C 88 % 1016,3 hPa 0,0 l/m 12,8 km/h (3 Bft) W-SW 245 0 min 0,000 mm 0,0 UV-I 0 W/m 15,2 C 14,5 C 17,7 km/h (3 Bft) 97,87 %
09.08.2017 00:42 17,1 C 23,9 C 88 % 1016,2 hPa 0,0 l/m 12,7 km/h (3 Bft) SW 231 0 min 0,000 mm 0,0 UV-I 0 W/m 15,1 C 14,5 C 17,7 km/h (3 Bft) 97,44 %
09.08.2017 00:44 17,1 C 23,9 C 88 % 1016,1 hPa 0,0 l/m 9,7 km/h (2 Bft) W 264 0 min 0,000 mm 0,0 UV-I 0 W/m 15,1 C 15,6 C 14,5 km/h (3 Bft) 98,18 %
09.08.2017 00:46 17,1 C 23,9 C 88 % 1016,1 hPa 0,0 l/m 10,5 km/h (2 Bft) W-SW 251 0 min 0,000 mm 0,0 UV-I 0 W/m 15,1 C 15,2 C 14,5 km/h (3 Bft) 94,00 %
09.08.2017 00:48 17,1 C 23,9 C 88 % 1015,9 hPa 0,0 l/m 8,5 km/h (2 Bft) W-SW 251 0 min 0,000 mm 0,0 UV-I 0 W/m 15,1 C 16,1 C 16,1 km/h (3 Bft) 97,62 %
09.08.2017 00:50 17,0 C 23,9 C 89 % 1015,8 hPa 0,0 l/m 4,6 km/h (1 Bft) W-SW 239 0 min 0,000 mm 0,0 UV-I 0 W/m 15,2 C 17,0 C 9,7 km/h (2 Bft) 97,56 %
09.08.2017 00:52 16,9 C 23,9 C 89 % 1016,0 hPa 0,0 l/m 6,7 km/h (2 Bft) W-SW 255 0 min 0,000 mm 0,0 UV-I 0 W/m 15,1 C 16,8 C 11,3 km/h (2 Bft) 100,00 %
09.08.2017 00:54 16,9 C 23,9 C 89 % 1016,2 hPa 0,0 l/m 4,2 km/h (1 Bft) W-SW 242 0 min 0,000 mm 0,0 UV-I 0 W/m 15,1 C 16,9 C 8,0 km/h (2 Bft) 96,92 %
09.08.2017 00:56 16,9 C 23,9 C 89 % 1016,2 hPa 0,0 l/m 5,1 km/h (1 Bft) SW 220 0 min 0,000 mm 0,0 UV-I 0 W/m 15,1 C 16,9 C 8,0 km/h (2 Bft) 97,14 %
09.08.2017 00:58 16,9 C 23,9 C 89 % 1016,1 hPa 0,0 l/m 1,3 km/h (1 Bft) SW 220 0 min 0,000 mm 0,0 UV-I 0 W/m 15,1 C 16,9 C 4,8 km/h (1 Bft) 98,21 %
09.08.2017 01:00 16,8 C 23,9 C 89 % 1016,2 hPa 0,0 l/m 2,7 km/h (1 Bft) S-SW 207 0 min 0,025 mm 0,0 UV-I 0 W/m 15,0 C 16,8 C 8,0 km/h (2 Bft) 97,87 %
09.08.2017 01:02 16,8 C 23,9 C 89 % 1016,4 hPa 0,0 l/m 5,1 km/h (1 Bft) W-SW 238 0 min 0,000 mm 0,0 UV-I 0 W/m 15,0 C 16,8 C 9,7 km/h (2 Bft) 97,56 %
09.08.2017 01:04 16,9 C 23,9 C 89 % 1016,5 hPa 0,0 l/m 7,7 km/h (2 Bft) S-SW 200 0 min 0,000 mm 0,0 UV-I 0 W/m 15,1 C 16,2 C 11,3 km/h (2 Bft) 97,87 %
09.08.2017 01:06 16,8 C 23,9 C 89 % 1016,4 hPa 0,0 l/m 6,4 km/h (2 Bft) SW 217 0 min 0,000 mm 0,0 UV-I 0 W/m 15,0 C 16,8 C 11,3 km/h (2 Bft) 98,11 %
09.08.2017 01:08 16,8 C 23,9 C 89 % 1016,5 hPa 0,0 l/m 7,9 km/h (2 Bft) SW 224 0 min 0,000 mm 0,0 UV-I 0 W/m 15,0 C 16,0 C 9,7 km/h (2 Bft) 97,73 %
09.08.2017 01:10 16,8 C 23,9 C 89 % 1016,6 hPa 0,0 l/m 6,1 km/h (2 Bft) W-SW 242 0 min 0,000 mm 0,0 UV-I 0 W/m 15,0 C 16,8 C 11,3 km/h (2 Bft) 95,74 %
09.08.2017 01:12 16,8 C 23,9 C 89 % 1016,6 hPa 0,0 l/m 7,2 km/h (2 Bft) SW 229 0 min 0,000 mm 0,0 UV-I 0 W/m 15,0 C 16,4 C 9,7 km/h (2 Bft) 97,87 %
09.08.2017 01:14 16,9 C 23,9 C 89 % 1016,6 hPa 0,0 l/m 5,8 km/h (2 Bft) S-SW 213 0 min 0,000 mm 0,0 UV-I 0 W/m 15,1 C 16,9 C 8,0 km/h (2 Bft) 98,00 %
09.08.2017 01:16 16,9 C 23,9 C 89 % 1016,6 hPa 0,0 l/m 6,0 km/h (2 Bft) SW 233 0 min 0,000 mm 0,0 UV-I 0 W/m 15,1 C 16,9 C 8,0 km/h (2 Bft) 94,74 %
09.08.2017 01:18 16,9 C 23,9 C 89 % 1016,5 hPa 0,0 l/m 6,1 km/h (2 Bft) S 177 0 min 0,000 mm 0,0 UV-I 0 W/m 15,1 C 16,9 C 9,7 km/h (2 Bft) 98,11 %
09.08.2017 01:20 16,9 C 23,9 C 89 % 1016,5 hPa 0,0 l/m 8,4 km/h (2 Bft) S-SW 211 0 min 0,000 mm 0,0 UV-I 0 W/m 15,1 C 15,9 C 14,5 km/h (3 Bft) 97,44 %
09.08.2017 01:22 16,9 C 23,9 C 89 % 1016,6 hPa 0,0 l/m 8,1 km/h (2 Bft) S-SW 208 0 min 0,000 mm 0,0 UV-I 0 W/m 15,1 C 16,0 C 12,9 km/h (3 Bft) 95,45 %
09.08.2017 01:24 16,9 C 23,9 C 89 % 1016,7 hPa 0,0 l/m 7,1 km/h (2 Bft) S 190 0 min 0,000 mm 0,0 UV-I 0 W/m 15,1 C 16,5 C 12,9 km/h (3 Bft) 98,11 %
09.08.2017 01:26 16,9 C 23,9 C 88 % 1016,6 hPa 0,0 l/m 8,4 km/h (2 Bft) S-SW 200 0 min 0,000 mm 0,0 UV-I 0 W/m 14,9 C 15,9 C 11,3 km/h (2 Bft) 97,87 %
09.08.2017 01:28 16,9 C 23,9 C 88 % 1016,6 hPa 0,0 l/m 8,4 km/h (2 Bft) SW 220 0 min 0,000 mm 0,0 UV-I 0 W/m 14,9 C 15,9 C 12,9 km/h (3 Bft) 97,87 %
09.08.2017 01:30 17,0 C 23,9 C 87 % 1016,4 hPa 0,0 l/m 7,6 km/h (2 Bft) S 188 0 min 0,000 mm 0,0 UV-I 0 W/m 14,8 C 16,4 C 16,1 km/h (3 Bft) 96,43 %
09.08.2017 01:32 17,1 C 23,9 C 87 % 1016,4 hPa 0,0 l/m 5,1 km/h (1 Bft) S 191 0 min 0,000 mm 0,0 UV-I 0 W/m 14,9 C 17,1 C 11,3 km/h (2 Bft) 100,00 %
09.08.2017 01:34 17,1 C 23,9 C 87 % 1016,3 hPa 0,0 l/m 5,2 km/h (1 Bft) S-SW 210 0 min 0,000 mm 0,0 UV-I 0 W/m 14,9 C 17,1 C 8,0 km/h (2 Bft) 98,21 %
09.08.2017 01:36 17,1 C 23,9 C 87 % 1016,2 hPa 0,0 l/m 4,9 km/h (1 Bft) S-SW 211 0 min 0,000 mm 0,0 UV-I 0 W/m 14,9 C 17,1 C 6,4 km/h (2 Bft) 100,00 %
09.08.2017 01:38 17,1 C 23,9 C 87 % 1015,9 hPa 0,0 l/m 4,3 km/h (1 Bft) S-SO 167 0 min 0,000 mm 0,0 UV-I 0 W/m 14,9 C 17,1 C 8,0 km/h (2 Bft) 100,00 %
09.08.2017 01:40 17,1 C 23,9 C 86 % 1015,7 hPa 0,0 l/m 5,0 km/h (1 Bft) S-SO 149 0 min 0,000 mm 0,0 UV-I 0 W/m 14,7 C 17,1 C 9,7 km/h (2 Bft) 98,00 %
09.08.2017 01:42 17,2 C 23,9 C 86 % 1015,7 hPa 0,0 l/m 5,5 km/h (1 Bft) S-SO 151 0 min 0,000 mm 0,0 UV-I 0 W/m 14,8 C 17,2 C 11,3 km/h (2 Bft) 100,00 %
09.08.2017 01:44 17,2 C 23,9 C 86 % 1016,0 hPa 0,0 l/m 4,2 km/h (1 Bft) SW 232 0 min 0,000 mm 0,0 UV-I 0 W/m 14,8 C 17,2 C 6,4 km/h (2 Bft) 100,00 %
09.08.2017 01:46 17,2 C 23,9 C 86 % 1015,8 hPa 0,0 l/m 5,6 km/h (1 Bft) S-SW 193 0 min 0,000 mm 0,0 UV-I 0 W/m 14,8 C 17,2 C 8,0 km/h (2 Bft) 98,00 %
09.08.2017 01:48 17,2 C 23,9 C 86 % 1015,8 hPa 0,0 l/m 3,5 km/h (1 Bft) S 172 0 min 0,000 mm 0,0 UV-I 0 W/m 14,8 C 17,2 C 6,4 km/h (2 Bft) 100,00 %
09.08.2017 01:50 17,2 C 23,9 C 85 % 1015,8 hPa 0,0 l/m 2,1 km/h (1 Bft) S 172 0 min 0,000 mm 0,0 UV-I 0 W/m 14,7 C 17,2 C 3,2 km/h (1 Bft) 100,00 %
09.08.2017 01:52 17,2 C 23,9 C 85 % 1015,9 hPa 0,0 l/m 1,6 km/h (1 Bft) S 172 0 min 0,000 mm 0,0 UV-I 0 W/m 14,7 C 17,2 C 4,8 km/h (1 Bft) 100,00 %
09.08.2017 01:54 17,3 C 23,9 C 85 % 1015,9 hPa 0,0 l/m 2,4 km/h (1 Bft) S 172 0 min 0,000 mm 0,0 UV-I 0 W/m 14,8 C 17,3 C 4,8 km/h (1 Bft) 100,00 %
09.08.2017 01:56 17,3 C 23,9 C 85 % 1015,7 hPa 0,0 l/m 1,2 km/h (1 Bft) S 172 0 min 0,000 mm 0,0 UV-I 0 W/m 14,8 C 17,3 C 3,2 km/h (1 Bft) 100,00 %
09.08.2017 01:58 17,3 C 23,9 C 85 % 1015,6 hPa 0,0 l/m 4,1 km/h (1 Bft) SO 138 0 min 0,000 mm 0,0 UV-I 0 W/m 14,8 C 17,3 C 8,0 km/h (2 Bft) 96,00 %
09.08.2017 02:00 17,3 C 23,9 C 86 % 1015,5 hPa 0,0 l/m 4,2 km/h (1 Bft) SO 133 0 min 0,026 mm 0,0 UV-I 0 W/m 14,9 C 17,3 C 6,4 km/h (2 Bft) 97,73 %
09.08.2017 02:02 17,3 C 23,9 C 86 % 1015,3 hPa 0,0 l/m 6,4 km/h (2 Bft) SO 132 0 min 0,000 mm 0,0 UV-I 0 W/m 14,9 C 17,3 C 8,0 km/h (2 Bft) 97,44 %
09.08.2017 02:04 17,2 C 23,9 C 86 % 1015,3 hPa 0,0 l/m 4,1 km/h (1 Bft) SO 133 0 min 0,000 mm 0,0 UV-I 0 W/m 14,8 C 17,2 C 6,4 km/h (2 Bft) 98,11 %
09.08.2017 02:06 17,2 C 23,9 C 86 % 1015,2 hPa 0,0 l/m 3,6 km/h (1 Bft) SO 132 0 min 0,000 mm 0,0 UV-I 0 W/m 14,8 C 17,2 C 4,8 km/h (1 Bft) 98,00 %
09.08.2017 02:08 17,1 C 23,9 C 86 % 1015,0 hPa 0,0 l/m 4,4 km/h (1 Bft) SO 132 0 min 0,000 mm 0,0 UV-I 0 W/m 14,7 C 17,1 C 6,4 km/h (2 Bft) 98,00 %
09.08.2017 02:10 17,0 C 23,9 C 86 % 1014,9 hPa 0,0 l/m 5,7 km/h (1 Bft) O 101 0 min 0,000 mm 0,0 UV-I 0 W/m 14,6 C 17,0 C 9,7 km/h (2 Bft) 97,73 %
09.08.2017 02:12 17,0 C 23,9 C 86 % 1015,1 hPa 0,0 l/m 4,7 km/h (1 Bft) O 101 0 min 0,000 mm 0,0 UV-I 0 W/m 14,6 C 17,0 C 6,4 km/h (2 Bft) 97,87 %
09.08.2017 02:14 16,9 C 23,9 C 86 % 1015,2 hPa 0,0 l/m 3,7 km/h (1 Bft) O 101 0 min 0,000 mm 0,0 UV-I 0 W/m 14,5 C 16,9 C 6,4 km/h (2 Bft) 97,87 %
09.08.2017 02:16 16,9 C 23,9 C 87 % 1015,2 hPa 0,0 l/m 2,4 km/h (1 Bft) O-SO 102 0 min 0,000 mm 0,0 UV-I 0 W/m 14,7 C 16,9 C 6,4 km/h (2 Bft) 97,56 %
09.08.2017 02:18 16,9 C 23,9 C 87 % 1015,2 hPa 0,0 l/m 3,0 km/h (1 Bft) O-SO 103 0 min 0,000 mm 0,0 UV-I 0 W/m 14,7 C 16,9 C 4,8 km/h (1 Bft) 96,00 %
09.08.2017 02:20 16,8 C 23,9 C 86 % 1015,2 hPa 0,0 l/m 2,8 km/h (1 Bft) O-SO 104 0 min 0,000 mm 0,0 UV-I 0 W/m 14,4 C 16,8 C 4,8 km/h (1 Bft) 98,11 %
09.08.2017 02:22 16,8 C 23,9 C 86 % 1015,1 hPa 0,0 l/m 1,5 km/h (1 Bft) O-SO 105 0 min 0,000 mm 0,0 UV-I 0 W/m 14,4 C 16,8 C 3,2 km/h (1 Bft) 97,37 %
09.08.2017 02:24 16,9 C 23,9 C 86 % 1015,0 hPa 0,0 l/m 2,1 km/h (1 Bft) O-SO 105 0 min 0,000 mm 0,0 UV-I 0 W/m 14,5 C 16,9 C 4,8 km/h (1 Bft) 97,87 %
09.08.2017 02:26 16,8 C 23,9 C 87 % 1015,0 hPa 0,0 l/m 3,4 km/h (1 Bft) O-SO 110 0 min 0,000 mm 0,0 UV-I 0 W/m 14,6 C 16,8 C 4,8 km/h (1 Bft) 95,74 %
09.08.2017 02:28 16,8 C 23,9 C 86 % 1015,0 hPa 0,0 l/m 2,4 km/h (1 Bft) O-SO 111 0 min 0,000 mm 0,0 UV-I 0 W/m 14,4 C 16,8 C 4,8 km/h (1 Bft) 98,11 %
09.08.2017 02:30 16,8 C 23,9 C 86 % 1015,1 hPa 0,0 l/m 1,2 km/h (1 Bft) O-SO 111 0 min 0,000 mm 0,0 UV-I 0 W/m 14,4 C 16,8 C 4,8 km/h (1 Bft) 100,00 %
09.08.2017 02:32 16,8 C 23,9 C 86 % 1015,1 hPa 0,0 l/m 1,6 km/h (1 Bft) O-SO 111 0 min 0,000 mm 0,0 UV-I 0 W/m 14,4 C 16,8 C 4,8 km/h (1 Bft) 98,11 %
09.08.2017 02:34 16,8 C 23,9 C 86 % 1015,1 hPa 0,0 l/m 1,0 km/h (0 Bft) O-SO 111 0 min 0,000 mm 0,0 UV-I 0 W/m 14,4 C 16,8 C 3,2 km/h (1 Bft) 100,00 %
09.08.2017 02:36 16,8 C 23,9 C 87 % 1015,1 hPa 0,0 l/m 3,3 km/h (1 Bft) O-SO 111 0 min 0,000 mm 0,0 UV-I 0 W/m 14,6 C 16,8 C 4,8 km/h (1 Bft) 98,00 %
09.08.2017 02:38 16,7 C 23,9 C 87 % 1015,0 hPa 0,0 l/m 3,6 km/h (1 Bft) O-SO 117 0 min 0,000 mm 0,0 UV-I 0 W/m 14,5 C 16,7 C 9,7 km/h (2 Bft) 100,00 %
09.08.2017 02:40 16,8 C 23,9 C 87 % 1014,9 hPa 0,0 l/m 4,7 km/h (1 Bft) SO 125 0 min 0,000 mm 0,0 UV-I 0 W/m 14,6 C 16,8 C 8,0 km/h (2 Bft) 100,00 %
09.08.2017 02:42 16,8 C 23,9 C 87 % 1014,8 hPa 0,0 l/m 5,5 km/h (1 Bft) O-SO 122 0 min 0,000 mm 0,0 UV-I 0 W/m 14,6 C 16,8 C 9,7 km/h (2 Bft) 100,00 %
09.08.2017 02:44 16,8 C 23,9 C 87 % 1014,7 hPa 0,0 l/m 5,2 km/h (1 Bft) O-SO 123 0 min 0,000 mm 0,0 UV-I 0 W/m 14,6 C 16,8 C 8,0 km/h (2 Bft) 100,00 %
09.08.2017 02:46 16,8 C 23,9 C 86 % 1014,6 hPa 0,0 l/m 6,0 km/h (2 Bft) O-SO 119 0 min 0,000 mm 0,0 UV-I 0 W/m 14,4 C 16,8 C 9,7 km/h (2 Bft) 100,00 %
09.08.2017 02:48 16,9 C 23,9 C 86 % 1014,7 hPa 0,0 l/m 5,2 km/h (1 Bft) O-SO 115 0 min 0,000 mm 0,0 UV-I 0 W/m 14,5 C 16,9 C 6,4 km/h (2 Bft) 100,00 %
09.08.2017 02:50 16,9 C 23,9 C 86 % 1015,0 hPa 0,0 l/m 1,1 km/h (1 Bft) O-SO 115 0 min 0,000 mm 0,0 UV-I 0 W/m 14,5 C 16,9 C 3,2 km/h (1 Bft) 100,00 %
09.08.2017 02:52 17,0 C 23,9 C 86 % 1015,0 hPa 0,0 l/m 0,6 km/h (0 Bft) O-SO 115 0 min 0,000 mm 0,0 UV-I 0 W/m 14,6 C 17,0 C 4,8 km/h (1 Bft) 100,00 %
09.08.2017 02:54 17,1 C 23,9 C 85 % 1014,7 hPa 0,0 l/m 5,4 km/h (1 Bft) O-NO 58 0 min 0,000 mm 0,0 UV-I 0 W/m 14,6 C 17,1 C 6,4 km/h (2 Bft) 100,00 %
09.08.2017 02:56 17,1 C 23,9 C 85 % 1014,5 hPa 0,0 l/m 7,4 km/h (2 Bft) NO 53 0 min 0,000 mm 0,0 UV-I 0 W/m 14,6 C 16,6 C 9,7 km/h (2 Bft) 100,00 %
09.08.2017 02:58 17,2 C 23,9 C 85 % 1014,5 hPa 0,0 l/m 6,8 km/h (2 Bft) NO 51 0 min 0,000 mm 0,0 UV-I 0 W/m 14,7 C 17,0 C 8,0 km/h (2 Bft) 100,00 %
09.08.2017 03:00 17,1 C 23,9 C 86 % 1014,5 hPa 0,0 l/m 5,1 km/h (1 Bft) O-NO 63 0 min 0,000 mm 0,0 UV-I 0 W/m 14,7 C 17,1 C 6,4 km/h (2 Bft) 100,00 %
09.08.2017 03:02 17,1 C 23,9 C 86 % 1014,4 hPa 0,0 l/m 5,8 km/h (2 Bft) O-NO 65 0 min 0,000 mm 0,0 UV-I 0 W/m 14,7 C 17,1 C 8,0 km/h (2 Bft) 100,00 %
09.08.2017 03:04 17,0 C 23,9 C 86 % 1014,5 hPa 0,0 l/m 6,4 km/h (2 Bft) O-NO 75 0 min 0,000 mm 0,0 UV-I 0 W/m 14,6 C 17,0 C 8,0 km/h (2 Bft) 100,00 %
09.08.2017 03:06 17,0 C 23,9 C 86 % 1014,5 hPa 0,0 l/m 8,2 km/h (2 Bft) O-NO 74 0 min 0,000 mm 0,0 UV-I 0 W/m 14,6 C 16,1 C 11,3 km/h (2 Bft) 100,00 %
09.08.2017 03:08 16,9 C 23,9 C 86 % 1014,3 hPa 0,0 l/m 9,9 km/h (2 Bft) O-NO 70 0 min 0,000 mm 0,0 UV-I 0 W/m 14,5 C 15,3 C 12,9 km/h (3 Bft) 98,11 %
09.08.2017 03:10 16,9 C 23,9 C 86 % 1014,2 hPa 0,0 l/m 8,8 km/h (2 Bft) O-NO 70 0 min 0,000 mm 0,0 UV-I 0 W/m 14,5 C 15,7 C 12,9 km/h (3 Bft) 97,56 %
09.08.2017 03:12 16,9 C 23,9 C 86 % 1014,1 hPa 0,0 l/m 8,4 km/h (2 Bft) O-NO 71 0 min 0,000 mm 0,0 UV-I 0 W/m 14,5 C 15,9 C 12,9 km/h (3 Bft) 100,00 %
09.08.2017 03:14 16,9 C 23,9 C 86 % 1014,1 hPa 0,0 l/m 8,0 km/h (2 Bft) O-NO 75 0 min 0,000 mm 0,0 UV-I 0 W/m 14,5 C 16,1 C 11,3 km/h (2 Bft) 100,00 %
09.08.2017 03:16 16,8 C 23,9 C 86 % 1014,1 hPa 0,0 l/m 7,1 km/h (2 Bft) O-NO 68 0 min 0,000 mm 0,0 UV-I 0 W/m 14,4 C 16,4 C 11,3 km/h (2 Bft) 100,00 %
09.08.2017 03:18 16,8 C 23,9 C 86 % 1014,0 hPa 0,0 l/m 7,0 km/h (2 Bft) O-NO 65 0 min 0,000 mm 0,0 UV-I 0 W/m 14,4 C 16,5 C 9,7 km/h (2 Bft) 100,00 %
09.08.2017 03:20 16,8 C 23,9 C 86 % 1013,9 hPa 0,0 l/m 9,3 km/h (2 Bft) O 84 0 min 0,000 mm 0,0 UV-I 0 W/m 14,4 C 15,4 C 12,9 km/h (3 Bft) 100,00 %
09.08.2017 03:22 16,8 C 23,9 C 86 % 1013,9 hPa 0,0 l/m 6,8 km/h (2 Bft) O-NO 76 0 min 0,000 mm 0,0 UV-I 0 W/m 14,4 C 16,6 C 9,7 km/h (2 Bft) 100,00 %
09.08.2017 03:24 16,8 C 23,9 C 86 % 1014,0 hPa 0,0 l/m 7,4 km/h (2 Bft) O 80 0 min 0,000 mm 0,0 UV-I 0 W/m 14,4 C 16,3 C 11,3 km/h (2 Bft) 97,56 %
09.08.2017 03:26 16,8 C 23,9 C 86 % 1014,0 hPa 0,0 l/m 5,8 km/h (2 Bft) O 81 0 min 0,000 mm 0,0 UV-I 0 W/m 14,4 C 16,8 C 11,3 km/h (2 Bft) 100,00 %
09.08.2017 03:28 16,9 C 23,9 C 86 % 1013,9 hPa 0,0 l/m 6,9 km/h (2 Bft) O-NO 67 0 min 0,000 mm 0,0 UV-I 0 W/m 14,5 C 16,7 C 11,3 km/h (2 Bft) 100,00 %
09.08.2017 03:30 16,9 C 23,9 C 86 % 1013,9 hPa 0,0 l/m 6,3 km/h (2 Bft) NO 55 0 min 0,000 mm 0,0 UV-I 0 W/m 14,5 C 16,9 C 11,3 km/h (2 Bft) 100,00 %
09.08.2017 03:32 16,9 C 23,9 C 86 % 1014,0 hPa 0,0 l/m 2,5 km/h (1 Bft) NO 55 0 min 0,000 mm 0,0 UV-I 0 W/m 14,5 C 16,9 C 4,8 km/h (1 Bft) 100,00 %
09.08.2017 03:34 16,8 C 23,9 C 86 % 1014,0 hPa 0,0 l/m 2,3 km/h (1 Bft) NO 55 0 min 0,000 mm 0,0 UV-I 0 W/m 14,4 C 16,8 C 4,8 km/h (1 Bft) 100,00 %
09.08.2017 03:36 16,8 C 23,9 C 87 % 1014,0 hPa 0,0 l/m 2,3 km/h (1 Bft) NO 55 0 min 0,000 mm 0,0 UV-I 0 W/m 14,6 C 16,8 C 4,8 km/h (1 Bft) 100,00 %
09.08.2017 03:38 16,8 C 23,9 C 87 % 1013,9 hPa 0,0 l/m 4,9 km/h (1 Bft) O-NO 64 0 min 0,000 mm 0,0 UV-I 0 W/m 14,6 C 16,8 C 6,4 km/h (2 Bft) 100,00 %
09.08.2017 03:40 16,7 C 23,9 C 87 % 1013,9 hPa 0,0 l/m 4,7 km/h (1 Bft) O-NO 71 0 min 0,000 mm 0,0 UV-I 0 W/m 14,5 C 16,7 C 6,4 km/h (2 Bft) 100,00 %
09.08.2017 03:42 16,7 C 23,9 C 87 % 1013,8 hPa 0,0 l/m 4,5 km/h (1 Bft) O-NO 68 0 min 0,000 mm 0,0 UV-I 0 W/m 14,5 C 16,7 C 6,4 km/h (2 Bft) 100,00 %
09.08.2017 03:44 16,7 C 23,9 C 87 % 1013,7 hPa 0,0 l/m 3,0 km/h (1 Bft) O-NO 67 0 min 0,000 mm 0,0 UV-I 0 W/m 14,5 C 16,7 C 4,8 km/h (1 Bft) 100,00 %
09.08.2017 03:46 16,6 C 23,9 C 87 % 1013,7 hPa 0,0 l/m 3,4 km/h (1 Bft) O-NO 68 0 min 0,000 mm 0,0 UV-I 0 W/m 14,4 C 16,6 C 4,8 km/h (1 Bft) 100,00 %
09.08.2017 03:48 16,5 C 23,9 C 88 % 1013,6 hPa 0,0 l/m 3,3 km/h (1 Bft) O-NO 67 0 min 0,000 mm 0,0 UV-I 0 W/m 14,5 C 16,5 C 4,8 km/h (1 Bft) 100,00 %
09.08.2017 03:50 16,4 C 23,9 C 88 % 1013,5 hPa 0,0 l/m 1,7 km/h (1 Bft) O-NO 67 0 min 0,000 mm 0,0 UV-I 0 W/m 14,4 C 16,4 C 4,8 km/h (1 Bft) 100,00 %
09.08.2017 03:52 16,3 C 23,9 C 88 % 1013,5 hPa 0,0 l/m 0,3 km/h (0 Bft) O-NO 67 0 min 0,000 mm 0,0 UV-I 0 W/m 14,3 C 16,3 C 1,6 km/h (1 Bft) 100,00 %
09.08.2017 03:54 16,2 C 23,9 C 89 % 1013,5 hPa 0,0 l/m 0,4 km/h (0 Bft) O-NO 68 0 min 0,000 mm 0,0 UV-I 0 W/m 14,4 C 16,2 C 1,6 km/h (1 Bft) 100,00 %
09.08.2017 03:56 16,2 C 23,9 C 89 % 1013,4 hPa 0,0 l/m 0,4 km/h (0 Bft) O-NO 67 0 min 0,000 mm 0,0 UV-I 0 W/m 14,4 C 16,2 C 3,2 km/h (1 Bft) 97,87 %
09.08.2017 03:58 16,1 C 23,9 C 89 % 1013,4 hPa 0,0 l/m 3,4 km/h (1 Bft) O-NO 67 0 min 0,000 mm 0,0 UV-I 0 W/m 14,3 C 16,1 C 4,8 km/h (1 Bft) 96,00 %
09.08.2017 04:00 16,0 C 23,9 C 89 % 1013,5 hPa 0,0 l/m 3,3 km/h (1 Bft) O-NO 67 0 min 0,025 mm 0,0 UV-I 0 W/m 14,2 C 16,0 C 4,8 km/h (1 Bft) 95,83 %
09.08.2017 04:02 16,0 C 23,9 C 90 % 1013,5 hPa 0,0 l/m 2,5 km/h (1 Bft) O-NO 67 0 min 0,000 mm 0,0 UV-I 0 W/m 14,4 C 16,0 C 4,8 km/h (1 Bft) 96,67 %
09.08.2017 04:04 16,0 C 23,9 C 90 % 1013,5 hPa 0,0 l/m 2,4 km/h (1 Bft) O-NO 67 0 min 0,000 mm 0,0 UV-I 0 W/m 14,4 C 16,0 C 3,2 km/h (1 Bft) 98,00 %
09.08.2017 04:06 15,9 C 23,9 C 90 % 1013,7 hPa 0,0 l/m 0,5 km/h (0 Bft) O-NO 67 0 min 0,000 mm 0,0 UV-I 0 W/m 14,3 C 15,9 C 1,6 km/h (1 Bft) 97,87 %
09.08.2017 04:08 15,9 C 23,9 C 90 % 1013,7 hPa 0,0 l/m 0,0 km/h (0 Bft) O-NO 67 0 min 0,000 mm 0,0 UV-I 0 W/m 14,3 C 15,9 C 1,6 km/h (1 Bft) 97,37 %
09.08.2017 04:10 15,9 C 23,9 C 90 % 1013,7 hPa 0,0 l/m 1,5 km/h (1 Bft) O-NO 67 0 min 0,000 mm 0,0 UV-I 0 W/m 14,3 C 15,9 C 3,2 km/h (1 Bft) 96,00 %
09.08.2017 04:12 15,9 C 23,9 C 90 % 1013,5 hPa 0,0 l/m 3,1 km/h (1 Bft) O-NO 67 0 min 0,000 mm 0,0 UV-I 0 W/m 14,3 C 15,9 C 4,8 km/h (1 Bft) 95,74 %
09.08.2017 04:14 15,8 C 23,9 C 90 % 1013,6 hPa 0,0 l/m 3,0 km/h (1 Bft) O-NO 67 0 min 0,000 mm 0,0 UV-I 0 W/m 14,2 C 15,8 C 4,8 km/h (1 Bft) 96,00 %
09.08.2017 04:16 15,8 C 23,3 C 90 % 1013,6 hPa 0,0 l/m 0,5 km/h (0 Bft) O-NO 67 0 min 0,000 mm 0,0 UV-I 0 W/m 14,2 C 15,8 C 1,6 km/h (1 Bft) 95,12 %
09.08.2017 04:18 15,8 C 23,9 C 90 % 1013,6 hPa 0,0 l/m 1,7 km/h (1 Bft) O-NO 67 0 min 0,000 mm 0,0 UV-I 0 W/m 14,2 C 15,8 C 3,2 km/h (1 Bft) 92,00 %
09.08.2017 04:20 15,8 C 23,9 C 90 % 1013,6 hPa 0,0 l/m 0,1 km/h (0 Bft) O-NO 67 0 min 0,000 mm 0,0 UV-I 0 W/m 14,2 C 15,8 C 1,6 km/h (1 Bft) 94,34 %
09.08.2017 04:22 15,8 C 23,9 C 90 % 1013,5 hPa 0,0 l/m 2,7 km/h (1 Bft) O-NO 67 0 min 0,000 mm 0,0 UV-I 0 W/m 14,2 C 15,8 C 4,8 km/h (1 Bft) 95,74 %
09.08.2017 04:24 15,8 C 23,9 C 90 % 1013,6 hPa 0,0 l/m 3,7 km/h (1 Bft) O-NO 65 0 min 0,000 mm 0,0 UV-I 0 W/m 14,2 C 15,8 C 4,8 km/h (1 Bft) 95,74 %
09.08.2017 04:26 15,8 C 23,9 C 90 % 1013,6 hPa 0,0 l/m 1,8 km/h (1 Bft) O-NO 65 0 min 0,000 mm 0,0 UV-I 0 W/m 14,2 C 15,8 C 4,8 km/h (1 Bft) 94,74 %
09.08.2017 04:28 15,8 C 23,3 C 90 % 1013,6 hPa 0,0 l/m 2,0 km/h (1 Bft) O-NO 59 0 min 0,000 mm 0,0 UV-I 0 W/m 14,2 C 15,8 C 6,4 km/h (2 Bft) 96,43 %
09.08.2017 04:30 15,8 C 23,3 C 90 % 1013,6 hPa 0,0 l/m 0,8 km/h (0 Bft) NO 54 0 min 0,000 mm 0,0 UV-I 0 W/m 14,2 C 15,8 C 3,2 km/h (1 Bft) 92,11 %
09.08.2017 04:32 15,8 C 23,3 C 90 % 1013,6 hPa 0,0 l/m 1,2 km/h (1 Bft) N 5 0 min 0,000 mm 0,0 UV-I 0 W/m 14,2 C 15,8 C 3,2 km/h (1 Bft) 96,23 %
09.08.2017 04:34 15,8 C 23,3 C 90 % 1013,7 hPa 0,0 l/m 1,1 km/h (1 Bft) N 5 0 min 0,000 mm 0,0 UV-I 0 W/m 14,2 C 15,8 C 3,2 km/h (1 Bft) 97,87 %
09.08.2017 04:36 15,8 C 23,3 C 91 % 1013,8 hPa 0,0 l/m 0,9 km/h (0 Bft) N 355 0 min 0,000 mm 0,0 UV-I 0 W/m 14,3 C 15,8 C 3,2 km/h (1 Bft) 97,87 %
09.08.2017 04:38 15,8 C 23,3 C 91 % 1013,8 hPa 0,0 l/m 2,1 km/h (1 Bft) N-NW 331 0 min 0,000 mm 0,0 UV-I 0 W/m 14,3 C 15,8 C 4,8 km/h (1 Bft) 97,22 %
09.08.2017 04:40 15,8 C 23,3 C 91 % 1013,8 hPa 0,0 l/m 2,2 km/h (1 Bft) N-NO 17 0 min 0,000 mm 0,0 UV-I 0 W/m 14,3 C 15,8 C 6,4 km/h (2 Bft) 97,56 %
09.08.2017 04:42 15,8 C 23,3 C 91 % 1013,8 hPa 0,0 l/m 2,7 km/h (1 Bft) N-NO 14 0 min 0,000 mm 0,0 UV-I 0 W/m 14,3 C 15,8 C 6,4 km/h (2 Bft) 98,31 %
09.08.2017 04:44 15,8 C 23,3 C 91 % 1013,8 hPa 0,0 l/m 3,1 km/h (1 Bft) NO 50 0 min 0,000 mm 0,0 UV-I 0 W/m 14,3 C 15,8 C 6,4 km/h (2 Bft) 96,23 %
09.08.2017 04:46 15,8 C 23,3 C 91 % 1013,9 hPa 0,0 l/m 2,3 km/h (1 Bft) N 355 0 min 0,000 mm 0,0 UV-I 0 W/m 14,3 C 15,8 C 6,4 km/h (2 Bft) 97,56 %
09.08.2017 04:48 15,8 C 23,3 C 91 % 1013,9 hPa 0,0 l/m 1,7 km/h (1 Bft) N 355 0 min 0,000 mm 0,0 UV-I 0 W/m 14,3 C 15,8 C 4,8 km/h (1 Bft) 97,87 %
09.08.2017 04:50 15,8 C 23,3 C 91 % 1013,9 hPa 0,0 l/m 1,2 km/h (1 Bft) N 355 0 min 0,000 mm 0,0 UV-I 0 W/m 14,3 C 15,8 C 3,2 km/h (1 Bft) 98,00 %
09.08.2017 04:52 15,8 C 23,3 C 91 % 1014,0 hPa 0,0 l/m 0,8 km/h (0 Bft) N-NO 15 0 min 0,000 mm 0,0 UV-I 0 W/m 14,3 C 15,8 C 3,2 km/h (1 Bft) 96,00 %
09.08.2017 04:54 15,8 C 23,3 C 91 % 1014,0 hPa 0,0 l/m 3,6 km/h (1 Bft) N-NW 338 0 min 0,000 mm 0,0 UV-I 0 W/m 14,3 C 15,8 C 9,7 km/h (2 Bft) 97,56 %
09.08.2017 04:56 15,8 C 23,3 C 92 % 1013,8 hPa 0,0 l/m 3,3 km/h (1 Bft) N 5 0 min 0,000 mm 0,0 UV-I 0 W/m 14,5 C 15,8 C 8,0 km/h (2 Bft) 97,56 %
09.08.2017 04:58 15,8 C 23,3 C 92 % 1013,8 hPa 0,0 l/m 3,2 km/h (1 Bft) N-NO 27 0 min 0,000 mm 0,0 UV-I 0 W/m 14,5 C 15,8 C 11,3 km/h (2 Bft) 98,31 %
09.08.2017 05:00 15,8 C 23,3 C 92 % 1014,0 hPa 0,0 l/m 5,4 km/h (1 Bft) N 5 0 min 0,000 mm 0,0 UV-I 0 W/m 14,5 C 15,8 C 11,3 km/h (2 Bft) 97,87 %
09.08.2017 05:02 15,8 C 23,3 C 92 % 1014,0 hPa 0,0 l/m 4,5 km/h (1 Bft) N-NO 19 0 min 0,000 mm 0,0 UV-I 0 W/m 14,5 C 15,8 C 9,7 km/h (2 Bft) 97,37 %
09.08.2017 05:04 15,8 C 23,3 C 93 % 1014,0 hPa 0,0 l/m 4,6 km/h (1 Bft) N-NO 24 0 min 0,000 mm 0,0 UV-I 0 W/m 14,7 C 15,8 C 14,5 km/h (3 Bft) 97,87 %
09.08.2017 05:06 15,8 C 23,3 C 93 % 1014,0 hPa 0,0 l/m 4,2 km/h (1 Bft) N-NO 15 0 min 0,000 mm 0,0 UV-I 0 W/m 14,7 C 15,8 C 8,0 km/h (2 Bft) 97,73 %
09.08.2017 05:08 15,7 C 23,3 C 93 % 1014,1 hPa 0,0 l/m 6,4 km/h (2 Bft) N-NO 22 0 min 0,000 mm 0,0 UV-I 0 W/m 14,6 C 15,7 C 9,7 km/h (2 Bft) 100,00 %
09.08.2017 05:10 15,7 C 23,3 C 93 % 1014,2 hPa 0,0 l/m 2,8 km/h (1 Bft) N 11 0 min 0,000 mm 0,0 UV-I 0 W/m 14,6 C 15,7 C 6,4 km/h (2 Bft) 100,00 %
09.08.2017 05:12 15,7 C 23,3 C 93 % 1014,3 hPa 0,0 l/m 4,4 km/h (1 Bft) N-NO 17 0 min 0,000 mm 0,0 UV-I 0 W/m 14,6 C 15,7 C 8,0 km/h (2 Bft) 100,00 %
09.08.2017 05:14 15,7 C 23,3 C 93 % 1014,4 hPa 0,0 l/m 2,1 km/h (1 Bft) N-NO 27 0 min 0,000 mm 0,0 UV-I 0 W/m 14,6 C 15,7 C 8,0 km/h (2 Bft) 100,00 %
09.08.2017 05:16 15,7 C 23,3 C 93 % 1014,5 hPa 0,0 l/m 2,0 km/h (1 Bft) N 5 0 min 0,000 mm 0,0 UV-I 0 W/m 14,6 C 15,7 C 6,4 km/h (2 Bft) 97,87 %
09.08.2017 05:18 15,7 C 23,3 C 93 % 1014,5 hPa 0,0 l/m 3,1 km/h (1 Bft) N 349 0 min 0,000 mm 0,0 UV-I 0 W/m 14,6 C 15,7 C 8,0 km/h (2 Bft) 100,00 %
09.08.2017 05:20 15,7 C 23,3 C 93 % 1014,4 hPa 0,0 l/m 2,6 km/h (1 Bft) N-NW 344 0 min 0,000 mm 0,0 UV-I 0 W/m 14,6 C 15,7 C 4,8 km/h (1 Bft) 98,00 %
09.08.2017 05:22 15,6 C 23,3 C 93 % 1014,3 hPa 0,0 l/m 1,1 km/h (1 Bft) N 349 0 min 0,000 mm 0,0 UV-I 0 W/m 14,5 C 15,6 C 3,2 km/h (1 Bft) 100,00 %
09.08.2017 05:24 15,6 C 23,3 C 94 % 1014,4 hPa 0,0 l/m 0,9 km/h (0 Bft) N-NW 333 0 min 0,000 mm 0,0 UV-I 0 W/m 14,6 C 15,6 C 3,2 km/h (1 Bft) 100,00 %
09.08.2017 05:26 15,6 C 23,3 C 94 % 1014,4 hPa 0,0 l/m 1,1 km/h (1 Bft) N-NW 336 0 min 0,000 mm 0,0 UV-I 0 W/m 14,6 C 15,6 C 4,8 km/h (1 Bft) 100,00 %
09.08.2017 05:28 15,6 C 23,3 C 94 % 1014,5 hPa 0,0 l/m 0,7 km/h (0 Bft) N-NW 336 0 min 0,000 mm 0,0 UV-I 0 W/m 14,6 C 15,6 C 3,2 km/h (1 Bft) 100,00 %
09.08.2017 05:30 15,5 C 23,3 C 94 % 1014,5 hPa 0,0 l/m 1,9 km/h (1 Bft) N 351 0 min 0,000 mm 0,0 UV-I 0 W/m 14,5 C 15,5 C 4,8 km/h (1 Bft) 100,00 %
09.08.2017 05:32 15,5 C 23,3 C 94 % 1014,7 hPa 0,0 l/m 0,8 km/h (0 Bft) N 350 0 min 0,000 mm 0,0 UV-I 0 W/m 14,5 C 15,5 C 3,2 km/h (1 Bft) 98,00 %
09.08.2017 05:34 15,5 C 23,3 C 94 % 1014,8 hPa 0,0 l/m 2,0 km/h (1 Bft) N-NW 344 0 min 0,000 mm 0,0 UV-I 0 W/m 14,5 C 15,5 C 4,8 km/h (1 Bft) 100,00 %
09.08.2017 05:36 15,5 C 23,3 C 94 % 1014,8 hPa 0,0 l/m 1,1 km/h (1 Bft) N-NW 344 0 min 0,000 mm 0,0 UV-I 2 W/m 14,5 C 15,5 C 3,2 km/h (1 Bft) 98,00 %
09.08.2017 05:38 15,5 C 23,3 C 94 % 1014,9 hPa 0,0 l/m 0,6 km/h (0 Bft) NW 320 0 min 0,000 mm 0,0 UV-I 5 W/m 14,5 C 15,5 C 3,2 km/h (1 Bft) 100,00 %
09.08.2017 05:40 15,5 C 23,3 C 94 % 1015,0 hPa 0,0 l/m 0,9 km/h (0 Bft) W 276 0 min 0,000 mm 0,0 UV-I 5 W/m 14,5 C 15,5 C 6,4 km/h (2 Bft) 97,56 %
09.08.2017 05:42 15,5 C 23,3 C 94 % 1015,1 hPa 0,0 l/m 0,1 km/h (0 Bft) W 276 0 min 0,000 mm 0,0 UV-I 7 W/m 14,5 C 15,5 C 1,6 km/h (1 Bft) 100,00 %
09.08.2017 05:44 15,5 C 23,3 C 94 % 1015,3 hPa 0,0 l/m 0,7 km/h (0 Bft) W 276 0 min 0,000 mm 0,0 UV-I 7 W/m 14,5 C 15,5 C 1,6 km/h (1 Bft) 100,00 %
09.08.2017 05:46 15,6 C 23,3 C 94 % 1015,3 hPa 0,0 l/m 0,8 km/h (0 Bft) W-NW 300 0 min 0,000 mm 0,0 UV-I 7 W/m 14,6 C 15,6 C 3,2 km/h (1 Bft) 100,00 %
09.08.2017 05:48 15,6 C 23,3 C 94 % 1015,3 hPa 0,0 l/m 2,2 km/h (1 Bft) W 275 0 min 0,000 mm 0,0 UV-I 7 W/m 14,6 C 15,6 C 6,4 km/h (2 Bft) 98,00 %
09.08.2017 05:50 15,6 C 23,3 C 94 % 1015,2 hPa 0,0 l/m 0,7 km/h (0 Bft) W 275 0 min 0,000 mm 0,0 UV-I 9 W/m 14,6 C 15,6 C 1,6 km/h (1 Bft) 100,00 %
09.08.2017 05:52 15,6 C 23,3 C 94 % 1015,2 hPa 0,0 l/m 0,1 km/h (0 Bft) W 273 0 min 0,000 mm 0,0 UV-I 9 W/m 14,6 C 15,6 C 1,6 km/h (1 Bft) 100,00 %
09.08.2017 05:54 15,6 C 23,3 C 94 % 1015,2 hPa 0,0 l/m 1,9 km/h (1 Bft) NW 323 0 min 0,000 mm 0,0 UV-I 10 W/m 14,6 C 15,6 C 6,4 km/h (2 Bft) 100,00 %
09.08.2017 05:56 15,6 C 23,3 C 94 % 1015,3 hPa 0,0 l/m 2,1 km/h (1 Bft) W 267 0 min 0,000 mm 0,0 UV-I 11 W/m 14,6 C 15,6 C 6,4 km/h (2 Bft) 100,00 %
09.08.2017 05:58 15,7 C 23,3 C 94 % 1015,4 hPa 0,0 l/m 1,7 km/h (1 Bft) W 272 0 min 0,000 mm 0,0 UV-I 12 W/m 14,7 C 15,7 C 4,8 km/h (1 Bft) 98,00 %
09.08.2017 06:00 15,7 C 23,3 C 95 % 1015,5 hPa 0,0 l/m 0,6 km/h (0 Bft) W 272 0 min 0,000 mm 0,0 UV-I 13 W/m 14,9 C 15,7 C 1,6 km/h (1 Bft) 95,74 %
09.08.2017 06:02 15,7 C 23,3 C 95 % 1015,6 hPa 0,0 l/m 2,9 km/h (1 Bft) W-NW 300 2 min 0,000 mm 0,0 UV-I 14 W/m 14,9 C 15,7 C 6,4 km/h (2 Bft) 96,00 %
09.08.2017 06:04 15,8 C 23,3 C 95 % 1015,7 hPa 0,0 l/m 2,0 km/h (1 Bft) NW 323 2 min 0,000 mm 0,0 UV-I 15 W/m 15,0 C 15,8 C 6,4 km/h (2 Bft) 98,00 %
09.08.2017 06:06 15,8 C 23,3 C 95 % 1015,8 hPa 0,0 l/m 0,6 km/h (0 Bft) N-NW 341 2 min 0,000 mm 0,0 UV-I 16 W/m 15,0 C 15,8 C 3,2 km/h (1 Bft) 100,00 %
09.08.2017 06:08 15,8 C 23,3 C 95 % 1015,9 hPa 0,0 l/m 3,5 km/h (1 Bft) W-SW 244 0 min 0,000 mm 0,0 UV-I 18 W/m 15,0 C 15,8 C 9,7 km/h (2 Bft) 96,23 %
09.08.2017 06:10 15,8 C 23,3 C 95 % 1015,9 hPa 0,0 l/m 3,2 km/h (1 Bft) W-SW 258 0 min 0,000 mm 0,0 UV-I 16 W/m 15,0 C 15,8 C 9,7 km/h (2 Bft) 98,31 %
09.08.2017 06:12 15,9 C 23,3 C 95 % 1016,0 hPa 0,0 l/m 2,9 km/h (1 Bft) W-SW 255 0 min 0,000 mm 0,0 UV-I 15 W/m 15,1 C 15,9 C 8,0 km/h (2 Bft) 95,45 %
09.08.2017 06:14 15,9 C 23,3 C 95 % 1016,0 hPa 0,0 l/m 2,9 km/h (1 Bft) W-NW 283 0 min 0,000 mm 0,0 UV-I 14 W/m 15,1 C 15,9 C 6,4 km/h (2 Bft) 98,00 %
09.08.2017 06:16 15,9 C 23,3 C 95 % 1015,9 hPa 0,0 l/m 1,1 km/h (1 Bft) S 191 0 min 0,000 mm 0,0 UV-I 14 W/m 15,1 C 15,9 C 4,8 km/h (1 Bft) 95,74 %
09.08.2017 06:18 15,9 C 23,3 C 95 % 1016,0 hPa 0,0 l/m 0,8 km/h (0 Bft) W-NW 300 0 min 0,000 mm 0,0 UV-I 14 W/m 15,1 C 15,9 C 4,8 km/h (1 Bft) 100,00 %
09.08.2017 06:20 15,9 C 23,3 C 94 % 1016,1 hPa 0,0 l/m 1,8 km/h (1 Bft) W-NW 282 0 min 0,000 mm 0,0 UV-I 13 W/m 14,9 C 15,9 C 4,8 km/h (1 Bft) 96,23 %
09.08.2017 06:22 15,9 C 23,3 C 94 % 1016,2 hPa 0,0 l/m 1,8 km/h (1 Bft) W 266 0 min 0,000 mm 0,0 UV-I 11 W/m 14,9 C 15,9 C 4,8 km/h (1 Bft) 97,87 %
09.08.2017 06:24 16,0 C 23,3 C 94 % 1016,4 hPa 0,0 l/m 1,7 km/h (1 Bft) W 266 0 min 0,000 mm 0,0 UV-I 9 W/m 15,0 C 16,0 C 3,2 km/h (1 Bft) 97,87 %
09.08.2017 06:26 16,0 C 23,3 C 95 % 1016,4 hPa 0,0 l/m 2,8 km/h (1 Bft) W 266 0 min 0,000 mm 0,0 UV-I 8 W/m 15,2 C 16,0 C 4,8 km/h (1 Bft) 97,14 %
09.08.2017 06:29 16,1 C 23,3 C 95 % 1016,3 hPa 0,0 l/m 1,2 km/h (1 Bft) W 266 0 min 0,000 mm 0,0 UV-I 9 W/m 15,3 C 16,1 C 3,2 km/h (1 Bft) 96,25 %
09.08.2017 06:30 16,1 C 23,3 C 95 % 1016,3 hPa 0,0 l/m 0,3 km/h (0 Bft) W 266 0 min 0,000 mm 0,0 UV-I 10 W/m 15,3 C 16,1 C 1,6 km/h (1 Bft) 100,00 %
09.08.2017 06:32 16,1 C 23,3 C 94 % 1016,3 hPa 0,0 l/m 2,7 km/h (1 Bft) W 264 0 min 0,000 mm 0,0 UV-I 11 W/m 15,1 C 16,1 C 4,8 km/h (1 Bft) 100,00 %
09.08.2017 06:34 16,1 C 23,3 C 94 % 1016,4 hPa 0,0 l/m 2,7 km/h (1 Bft) W 263 0 min 0,000 mm 0,0 UV-I 11 W/m 15,1 C 16,1 C 4,8 km/h (1 Bft) 100,00 %
09.08.2017 06:36 16,1 C 23,3 C 94 % 1016,4 hPa 0,0 l/m 2,4 km/h (1 Bft) W 263 0 min 0,000 mm 0,0 UV-I 11 W/m 15,1 C 16,1 C 3,2 km/h (1 Bft) 100,00 %
09.08.2017 06:38 16,1 C 23,3 C 94 % 1016,4 hPa 0,0 l/m 2,8 km/h (1 Bft) W 263 0 min 0,000 mm 0,0 UV-I 11 W/m 15,1 C 16,1 C 4,8 km/h (1 Bft) 100,00 %
09.08.2017 06:40 16,1 C 23,3 C 94 % 1016,4 hPa 0,0 l/m 1,4 km/h (1 Bft) W 263 0 min 0,000 mm 0,0 UV-I 12 W/m 15,1 C 16,1 C 3,2 km/h (1 Bft) 100,00 %
09.08.2017 06:42 16,1 C 23,3 C 94 % 1016,3 hPa 0,0 l/m 0,9 km/h (0 Bft) S-SW 196 0 min 0,000 mm 0,0 UV-I 13 W/m 15,1 C 16,1 C 6,4 km/h (2 Bft) 98,11 %
09.08.2017 06:44 16,1 C 23,3 C 94 % 1016,4 hPa 0,0 l/m 4,0 km/h (1 Bft) S-SW 194 0 min 0,000 mm 0,0 UV-I 14 W/m 15,1 C 16,1 C 6,4 km/h (2 Bft) 100,00 %
09.08.2017 06:46 16,1 C 23,3 C 94 % 1016,4 hPa 0,0 l/m 3,8 km/h (1 Bft) S-SW 194 0 min 0,000 mm 0,0 UV-I 15 W/m 15,1 C 16,1 C 4,8 km/h (1 Bft) 100,00 %
09.08.2017 06:48 16,1 C 23,3 C 94 % 1016,5 hPa 0,0 l/m 1,6 km/h (1 Bft) S-SW 194 0 min 0,000 mm 0,0 UV-I 16 W/m 15,1 C 16,1 C 4,8 km/h (1 Bft) 100,00 %
09.08.2017 06:50 16,1 C 23,3 C 94 % 1016,5 hPa 0,0 l/m 2,8 km/h (1 Bft) S 183 0 min 0,000 mm 0,0 UV-I 17 W/m 15,1 C 16,1 C 8,0 km/h (2 Bft) 97,87 %
09.08.2017 06:52 16,1 C 23,3 C 94 % 1016,6 hPa 0,0 l/m 3,6 km/h (1 Bft) S 185 0 min 0,000 mm 0,0 UV-I 19 W/m 15,1 C 16,1 C 4,8 km/h (1 Bft) 97,87 %
09.08.2017 06:54 16,1 C 23,3 C 94 % 1016,6 hPa 0,0 l/m 2,4 km/h (1 Bft) S 185 0 min 0,000 mm 0,0 UV-I 24 W/m 15,1 C 16,1 C 6,4 km/h (2 Bft) 100,00 %
09.08.2017 06:56 16,1 C 23,3 C 94 % 1016,6 hPa 0,0 l/m 0,6 km/h (0 Bft) S 185 0 min 0,000 mm 0,0 UV-I 28 W/m 15,1 C 16,1 C 1,6 km/h (1 Bft) 100,00 %
09.08.2017 06:58 16,1 C 23,3 C 94 % 1016,5 hPa 0,0 l/m 0,9 km/h (0 Bft) S 186 0 min 0,000 mm 0,0 UV-I 32 W/m 15,1 C 16,1 C 1,6 km/h (1 Bft) 100,00 %
09.08.2017 07:00 16,0 C 23,3 C 94 % 1016,5 hPa 0,0 l/m 3,6 km/h (1 Bft) S-SO 150 0 min 0,000 mm 0,0 UV-I 35 W/m 15,0 C 16,0 C 8,0 km/h (2 Bft) 100,00 %
09.08.2017 07:02 16,0 C 23,3 C 94 % 1016,6 hPa 0,0 l/m 3,5 km/h (1 Bft) S-SW 192 0 min 0,000 mm 0,0 UV-I 41 W/m 15,0 C 16,0 C 6,4 km/h (2 Bft) 100,00 %
09.08.2017 07:04 16,1 C 23,3 C 94 % 1016,9 hPa 0,0 l/m 4,0 km/h (1 Bft) SW 224 0 min 0,000 mm 0,0 UV-I 49 W/m 15,1 C 16,1 C 8,0 km/h (2 Bft) 100,00 %
09.08.2017 07:06 16,0 C 23,3 C 94 % 1016,8 hPa 0,0 l/m 5,2 km/h (1 Bft) SW 217 0 min 0,000 mm 0,0 UV-I 58 W/m 15,0 C 16,0 C 8,0 km/h (2 Bft) 100,00 %
09.08.2017 07:08 16,1 C 23,3 C 94 % 1016,9 hPa 0,0 l/m 4,1 km/h (1 Bft) S-SW 194 0 min 0,000 mm 0,0 UV-I 65 W/m 15,1 C 16,1 C 8,0 km/h (2 Bft) 100,00 %
09.08.2017 07:10 16,1 C 23,3 C 94 % 1016,8 hPa 0,0 l/m 5,1 km/h (1 Bft) S 188 0 min 0,000 mm 0,0 UV-I 71 W/m 15,1 C 16,1 C 9,7 km/h (2 Bft) 98,00 %
09.08.2017 07:12 16,1 C 23,3 C 94 % 1016,8 hPa 0,0 l/m 4,5 km/h (1 Bft) S 188 0 min 0,000 mm 0,0 UV-I 87 W/m 15,1 C 16,1 C 6,4 km/h (2 Bft) 100,00 %
09.08.2017 07:14 16,1 C 23,3 C 94 % 1016,6 hPa 0,0 l/m 3,1 km/h (1 Bft) S 172 0 min 0,000 mm 0,0 UV-I 103 W/m 15,1 C 16,1 C 8,0 km/h (2 Bft) 100,00 %
09.08.2017 07:16 16,1 C 23,3 C 94 % 1016,5 hPa 0,0 l/m 5,4 km/h (1 Bft) S-SO 163 0 min 0,000 mm 0,0 UV-I 105 W/m 15,1 C 16,1 C 8,0 km/h (2 Bft) 97,87 %
09.08.2017 07:18 16,2 C 23,3 C 94 % 1016,4 hPa 0,0 l/m 5,9 km/h (2 Bft) S 170 0 min 0,000 mm 0,0 UV-I 99 W/m 15,2 C 16,2 C 11,3 km/h (2 Bft) 100,00 %
09.08.2017 07:20 16,2 C 23,3 C 94 % 1016,4 hPa 0,0 l/m 1,6 km/h (1 Bft) S-SO 161 0 min 0,000 mm 0,0 UV-I 85 W/m 15,2 C 16,2 C 6,4 km/h (2 Bft) 100,00 %
09.08.2017 07:22 16,2 C 23,3 C 94 % 1016,3 hPa 0,0 l/m 3,1 km/h (1 Bft) S-SO 163 0 min 0,000 mm 0,0 UV-I 75 W/m 15,2 C 16,2 C 8,0 km/h (2 Bft) 100,00 %
09.08.2017 07:24 16,2 C 23,3 C 93 % 1016,3 hPa 0,0 l/m 3,8 km/h (1 Bft) S-SO 149 0 min 0,000 mm 0,0 UV-I 77 W/m 15,1 C 16,2 C 11,3 km/h (2 Bft) 100,00 %
09.08.2017 07:26 16,2 C 23,3 C 93 % 1016,4 hPa 0,0 l/m 3,2 km/h (1 Bft) S-SO 164 0 min 0,000 mm 0,0 UV-I 89 W/m 15,1 C 16,2 C 8,0 km/h (2 Bft) 98,11 %
09.08.2017 07:28 16,3 C 23,3 C 93 % 1016,4 hPa 0,0 l/m 4,3 km/h (1 Bft) S-SO 164 0 min 0,000 mm 0,0 UV-I 101 W/m 15,2 C 16,3 C 9,7 km/h (2 Bft) 100,00 %
09.08.2017 07:30 16,3 C 23,3 C 93 % 1016,4 hPa 0,0 l/m 4,0 km/h (1 Bft) S-SO 164 0 min 0,000 mm 0,0 UV-I 92 W/m 15,2 C 16,3 C 8,0 km/h (2 Bft) 100,00 %
09.08.2017 07:32 16,3 C 23,3 C 93 % 1016,4 hPa 0,0 l/m 3,6 km/h (1 Bft) S 178 0 min 0,000 mm 0,0 UV-I 90 W/m 15,2 C 16,3 C 8,0 km/h (2 Bft) 100,00 %
09.08.2017 07:34 16,3 C 23,3 C 93 % 1016,3 hPa 0,0 l/m 3,4 km/h (1 Bft) S-SO 154 0 min 0,000 mm 0,0 UV-I 98 W/m 15,2 C 16,3 C 11,3 km/h (2 Bft) 100,00 %
09.08.2017 07:36 16,4 C 23,3 C 92 % 1016,4 hPa 0,0 l/m 4,2 km/h (1 Bft) S-SO 164 0 min 0,000 mm 0,0 UV-I 108 W/m 15,1 C 16,4 C 8,0 km/h (2 Bft) 100,00 %
09.08.2017 07:38 16,4 C 23,3 C 92 % 1016,5 hPa 0,0 l/m 2,0 km/h (1 Bft) S-SO 164 0 min 0,000 mm 0,0 UV-I 117 W/m 15,1 C 16,4 C 6,4 km/h (2 Bft) 97,87 %
09.08.2017 07:40 16,5 C 23,3 C 92 % 1016,6 hPa 0,0 l/m 3,3 km/h (1 Bft) S 180 0 min 0,000 mm 0,0 UV-I 133 W/m 15,2 C 16,5 C 8,0 km/h (2 Bft) 100,00 %
09.08.2017 07:42 16,6 C 23,3 C 92 % 1016,8 hPa 0,0 l/m 3,1 km/h (1 Bft) S 184 0 min 0,000 mm 0,0 UV-I 136 W/m 15,3 C 16,6 C 6,4 km/h (2 Bft) 98,46 %
09.08.2017 07:44 16,6 C 23,3 C 92 % 1016,8 hPa 0,0 l/m 1,0 km/h (0 Bft) S 178 0 min 0,000 mm 0,0 UV-I 125 W/m 15,3 C 16,6 C 3,2 km/h (1 Bft) 98,00 %
09.08.2017 07:46 16,7 C 23,3 C 92 % 1016,8 hPa 0,0 l/m 1,2 km/h (1 Bft) S 178 0 min 0,000 mm 0,0 UV-I 127 W/m 15,4 C 16,7 C 3,2 km/h (1 Bft) 97,37 %
09.08.2017 07:48 16,8 C 23,3 C 92 % 1016,8 hPa 0,0 l/m 0,0 km/h (0 Bft) S 178 0 min 0,000 mm 0,0 UV-I 117 W/m 15,5 C 16,8 C 0,0 km/h (0 Bft) 98,00 %
09.08.2017 07:50 16,8 C 23,3 C 92 % 1016,5 hPa 0,0 l/m 1,4 km/h (1 Bft) SO 140 0 min 0,000 mm 0,0 UV-I 85 W/m 15,5 C 16,8 C 6,4 km/h (2 Bft) 97,87 %
09.08.2017 07:52 16,9 C 23,3 C 92 % 1016,4 hPa 0,0 l/m 4,0 km/h (1 Bft) SO 131 0 min 0,000 mm 0,0 UV-I 76 W/m 15,6 C 16,9 C 6,4 km/h (2 Bft) 95,74 %
09.08.2017 07:54 16,9 C 23,3 C 92 % 1016,4 hPa 0,0 l/m 4,7 km/h (1 Bft) O-SO 123 0 min 0,000 mm 0,0 UV-I 88 W/m 15,6 C 16,9 C 6,4 km/h (2 Bft) 96,23 %
09.08.2017 07:56 16,9 C 23,3 C 91 % 1016,2 hPa 0,0 l/m 5,3 km/h (1 Bft) O-SO 112 0 min 0,000 mm 0,0 UV-I 106 W/m 15,4 C 16,9 C 6,4 km/h (2 Bft) 97,62 %
09.08.2017 07:58 16,9 C 23,3 C 91 % 1016,2 hPa 0,0 l/m 3,3 km/h (1 Bft) SO 129 0 min 0,000 mm 0,0 UV-I 121 W/m 15,4 C 16,9 C 6,4 km/h (2 Bft) 95,74 %
09.08.2017 08:00 17,0 C 23,3 C 91 % 1016,1 hPa 0,0 l/m 6,0 km/h (2 Bft) O-SO 117 0 min 0,051 mm 0,0 UV-I 127 W/m 15,5 C 17,0 C 9,7 km/h (2 Bft) 95,45 %
09.08.2017 08:02 17,0 C 23,3 C 90 % 1015,9 hPa 0,0 l/m 6,1 km/h (2 Bft) SO 134 0 min 0,000 mm 0,0 UV-I 130 W/m 15,3 C 17,0 C 9,7 km/h (2 Bft) 90,00 %
09.08.2017 08:04 17,1 C 23,3 C 91 % 1015,9 hPa 0,0 l/m 3,7 km/h (1 Bft) SO 126 0 min 0,000 mm 0,0 UV-I 131 W/m 15,6 C 17,1 C 4,8 km/h (1 Bft) 97,14 %
09.08.2017 08:06 17,1 C 23,3 C 91 % 1016,1 hPa 0,0 l/m 1,6 km/h (1 Bft) SO 126 0 min 0,000 mm 0,0 UV-I 114 W/m 15,6 C 17,1 C 3,2 km/h (1 Bft) 94,00 %
09.08.2017 08:08 17,1 C 23,3 C 90 % 1016,6 hPa 0,0 l/m 1,9 km/h (1 Bft) SO 126 0 min 0,000 mm 0,0 UV-I 93 W/m 15,4 C 17,1 C 4,8 km/h (1 Bft) 96,23 %
09.08.2017 08:10 17,1 C 23,3 C 91 % 1016,7 hPa 0,0 l/m 4,6 km/h (1 Bft) S 173 0 min 0,000 mm 0,0 UV-I 55 W/m 15,6 C 17,1 C 8,0 km/h (2 Bft) 96,00 %
09.08.2017 08:12 17,1 C 23,3 C 90 % 1016,8 hPa 0,0 l/m 2,3 km/h (1 Bft) S 173 0 min 0,000 mm 0,0 UV-I 49 W/m 15,4 C 17,1 C 4,8 km/h (1 Bft) 95,74 %
09.08.2017 08:14 17,2 C 23,3 C 90 % 1016,8 hPa 0,0 l/m 3,8 km/h (1 Bft) S-SW 195 0 min 0,000 mm 0,0 UV-I 85 W/m 15,5 C 17,2 C 6,4 km/h (2 Bft) 94,00 %
09.08.2017 08:16 17,2 C 23,3 C 90 % 1016,8 hPa 0,0 l/m 4,2 km/h (1 Bft) S-SW 212 0 min 0,000 mm 0,0 UV-I 110 W/m 15,5 C 17,2 C 8,0 km/h (2 Bft) 95,12 %
09.08.2017 08:18 17,2 C 23,3 C 90 % 1016,7 hPa 0,0 l/m 1,5 km/h (1 Bft) S-SW 201 0 min 0,000 mm 0,0 UV-I 76 W/m 15,5 C 17,2 C 3,2 km/h (1 Bft) 94,00 %
09.08.2017 08:20 17,2 C 23,3 C 90 % 1016,5 hPa 0,0 l/m 3,5 km/h (1 Bft) S-SO 148 0 min 0,000 mm 0,0 UV-I 71 W/m 15,5 C 17,2 C 6,4 km/h (2 Bft) 95,45 %
09.08.2017 08:22 17,3 C 23,3 C 90 % 1016,4 hPa 0,0 l/m 3,4 km/h (1 Bft) SO 141 0 min 0,000 mm 0,0 UV-I 74 W/m 15,6 C 17,3 C 6,4 km/h (2 Bft) 94,00 %
09.08.2017 08:24 17,3 C 23,3 C 90 % 1016,3 hPa 0,0 l/m 5,1 km/h (1 Bft) SO 136 0 min 0,000 mm 0,0 UV-I 76 W/m 15,6 C 17,3 C 6,4 km/h (2 Bft) 92,68 %
09.08.2017 08:26 17,3 C 23,3 C 90 % 1016,4 hPa 0,0 l/m 3,0 km/h (1 Bft) SO 126 0 min 0,000 mm 0,0 UV-I 82 W/m 15,6 C 17,3 C 8,0 km/h (2 Bft) 94,34 %
09.08.2017 08:28 17,3 C 23,3 C 90 % 1016,4 hPa 0,0 l/m 0,5 km/h (0 Bft) SO 126 0 min 0,000 mm 0,0 UV-I 85 W/m 15,6 C 17,3 C 3,2 km/h (1 Bft) 91,67 %
09.08.2017 08:30 17,4 C 23,3 C 90 % 1016,4 hPa 0,0 l/m 0,9 km/h (0 Bft) SO 126 0 min 0,000 mm 0,0 UV-I 91 W/m 15,7 C 17,4 C 3,2 km/h (1 Bft) 97,01 %
09.08.2017 08:32 17,4 C 23,3 C 89 % 1016,6 hPa 0,0 l/m 2,1 km/h (1 Bft) SO 126 0 min 0,000 mm 0,0 UV-I 86 W/m 15,6 C 17,4 C 4,8 km/h (1 Bft) 97,62 %
09.08.2017 08:34 17,4 C 23,3 C 89 % 1016,6 hPa 0,0 l/m 1,5 km/h (1 Bft) SO 126 0 min 0,000 mm 0,0 UV-I 80 W/m 15,6 C 17,4 C 3,2 km/h (1 Bft) 96,36 %
09.08.2017 08:36 17,5 C 23,3 C 90 % 1016,6 hPa 0,0 l/m 1,2 km/h (1 Bft) SO 126 0 min 0,000 mm 0,2 UV-I 99 W/m 15,8 C 17,5 C 4,8 km/h (1 Bft) 97,62 %
09.08.2017 08:38 17,5 C 23,3 C 89 % 1016,6 hPa 0,0 l/m 0,4 km/h (0 Bft) SO 126 0 min 0,000 mm 0,5 UV-I 123 W/m 15,7 C 17,5 C 1,6 km/h (1 Bft) 97,14 %
09.08.2017 08:40 17,5 C 23,3 C 89 % 1016,5 hPa 0,0 l/m 2,3 km/h (1 Bft) SO 144 0 min 0,000 mm 0,5 UV-I 124 W/m 15,7 C 17,5 C 6,4 km/h (2 Bft) 96,92 %
09.08.2017 08:42 17,6 C 23,3 C 89 % 1016,4 hPa 0,0 l/m 5,4 km/h (1 Bft) S-SO 155 0 min 0,000 mm 0,5 UV-I 121 W/m 15,8 C 17,6 C 12,9 km/h (3 Bft) 97,22 %
09.08.2017 08:44 17,6 C 23,3 C 89 % 1016,4 hPa 0,0 l/m 5,0 km/h (1 Bft) SO 126 0 min 0,000 mm 0,5 UV-I 126 W/m 15,8 C 17,6 C 8,0 km/h (2 Bft) 100,00 %
09.08.2017 08:46 17,6 C 23,3 C 89 % 1016,4 hPa 0,0 l/m 4,8 km/h (1 Bft) SO 139 0 min 0,000 mm 0,6 UV-I 129 W/m 15,8 C 17,6 C 9,7 km/h (2 Bft) 100,00 %
09.08.2017 08:48 17,7 C 23,3 C 89 % 1016,4 hPa 0,0 l/m 2,6 km/h (1 Bft) S 190 0 min 0,000 mm 0,6 UV-I 136 W/m 15,9 C 17,7 C 6,4 km/h (2 Bft) 100,00 %
09.08.2017 08:50 17,7 C 23,3 C 88 % 1016,4 hPa 0,0 l/m 4,2 km/h (1 Bft) SO 137 0 min 0,000 mm 0,6 UV-I 131 W/m 15,7 C 17,7 C 6,4 km/h (2 Bft) 100,00 %
09.08.2017 08:52 17,7 C 23,3 C 88 % 1016,4 hPa 0,0 l/m 5,1 km/h (1 Bft) SO 144 0 min 0,000 mm 0,7 UV-I 125 W/m 15,7 C 17,7 C 8,0 km/h (2 Bft) 97,56 %
09.08.2017 08:54 17,8 C 23,3 C 88 % 1016,2 hPa 0,0 l/m 4,8 km/h (1 Bft) O-SO 120 0 min 0,000 mm 0,7 UV-I 132 W/m 15,8 C 17,8 C 11,3 km/h (2 Bft) 100,00 %
09.08.2017 08:56 17,8 C 23,3 C 87 % 1016,1 hPa 0,0 l/m 4,8 km/h (1 Bft) SO 136 0 min 0,000 mm 0,7 UV-I 136 W/m 15,6 C 17,8 C 9,7 km/h (2 Bft) 100,00 %
09.08.2017 08:58 17,9 C 23,3 C 88 % 1016,1 hPa 0,0 l/m 4,9 km/h (1 Bft) O-SO 120 0 min 0,000 mm 0,8 UV-I 143 W/m 15,9 C 17,9 C 11,3 km/h (2 Bft) 100,00 %
09.08.2017 09:00 17,9 C 23,3 C 88 % 1015,9 hPa 0,0 l/m 4,5 km/h (1 Bft) O-SO 106 0 min 0,076 mm 0,8 UV-I 155 W/m 15,9 C 17,9 C 6,4 km/h (2 Bft) 98,00 %
09.08.2017 09:02 17,9 C 23,3 C 88 % 1016,0 hPa 0,0 l/m 5,1 km/h (1 Bft) O 87 0 min 0,000 mm 0,8 UV-I 165 W/m 15,9 C 17,9 C 9,7 km/h (2 Bft) 97,37 %
09.08.2017 09:04 18,0 C 23,3 C 88 % 1015,9 hPa 0,0 l/m 8,2 km/h (2 Bft) O-SO 113 0 min 0,000 mm 0,8 UV-I 142 W/m 16,0 C 17,2 C 11,3 km/h (2 Bft) 100,00 %
09.08.2017 09:06 18,1 C 23,3 C 87 % 1015,8 hPa 0,0 l/m 10,4 km/h (2 Bft) O-SO 104 0 min 0,000 mm 0,7 UV-I 119 W/m 15,9 C 16,4 C 12,9 km/h (3 Bft) 100,00 %
09.08.2017 09:08 18,0 C 23,3 C 87 % 1015,7 hPa 0,0 l/m 8,5 km/h (2 Bft) SO 134 0 min 0,000 mm 0,8 UV-I 127 W/m 15,8 C 17,0 C 11,3 km/h (2 Bft) 98,11 %
09.08.2017 09:10 18,0 C 23,3 C 86 % 1015,8 hPa 0,0 l/m 4,5 km/h (1 Bft) O-NO 64 0 min 0,000 mm 0,9 UV-I 156 W/m 15,6 C 18,0 C 8,0 km/h (2 Bft) 100,00 %
09.08.2017 09:12 18,0 C 23,3 C 86 % 1015,7 hPa 0,0 l/m 6,3 km/h (2 Bft) O-SO 115 0 min 0,000 mm 0,9 UV-I 151 W/m 15,6 C 18,0 C 11,3 km/h (2 Bft) 100,00 %
09.08.2017 09:14 18,1 C 23,3 C 86 % 1015,7 hPa 0,0 l/m 4,2 km/h (1 Bft) O 101 0 min 0,000 mm 0,8 UV-I 142 W/m 15,7 C 18,1 C 6,4 km/h (2 Bft) 100,00 %
09.08.2017 09:16 18,1 C 23,3 C 86 % 1015,6 hPa 0,0 l/m 9,3 km/h (2 Bft) O-SO 110 0 min 0,000 mm 0,9 UV-I 145 W/m 15,7 C 16,8 C 12,9 km/h (3 Bft) 98,36 %
09.08.2017 09:18 18,1 C 23,3 C 87 % 1015,6 hPa 0,0 l/m 6,4 km/h (2 Bft) O-SO 120 0 min 0,000 mm 1,0 UV-I 148 W/m 15,9 C 18,1 C 9,7 km/h (2 Bft) 100,00 %
09.08.2017 09:20 18,1 C 23,3 C 86 % 1015,6 hPa 0,0 l/m 7,8 km/h (2 Bft) O-SO 115 0 min 0,000 mm 1,1 UV-I 175 W/m 15,7 C 17,4 C 12,9 km/h (3 Bft) 100,00 %
09.08.2017 09:22 18,2 C 23,3 C 87 % 1015,6 hPa 0,0 l/m 5,4 km/h (1 Bft) O 93 0 min 0,000 mm 1,2 UV-I 195 W/m 16,0 C 18,2 C 11,3 km/h (2 Bft) 100,00 %
09.08.2017 09:24 18,3 C 23,3 C 86 % 1015,5 hPa 0,0 l/m 7,5 km/h (2 Bft) O 92 0 min 0,000 mm 1,4 UV-I 254 W/m 15,9 C 17,8 C 14,5 km/h (3 Bft) 100,00 %
09.08.2017 09:26 18,4 C 23,3 C 86 % 1015,4 hPa 0,0 l/m 10,2 km/h (2 Bft) O 92 0 min 0,000 mm 1,4 UV-I 274 W/m 16,0 C 16,8 C 14,5 km/h (3 Bft) 100,00 %
09.08.2017 09:28 18,5 C 23,3 C 85 % 1015,4 hPa 0,0 l/m 7,5 km/h (2 Bft) O-SO 117 0 min 0,000 mm 1,4 UV-I 225 W/m 15,9 C 18,0 C 11,3 km/h (2 Bft) 100,00 %
09.08.2017 09:30 18,6 C 23,3 C 85 % 1015,2 hPa 0,0 l/m 7,5 km/h (2 Bft) O 93 2 min 0,000 mm 1,6 UV-I 331 W/m 16,0 C 18,1 C 16,1 km/h (3 Bft) 100,00 %
09.08.2017 09:32 18,7 C 23,3 C 85 % 1015,3 hPa 0,0 l/m 11,7 km/h (2 Bft) O 87 0 min 0,000 mm 1,4 UV-I 276 W/m 16,1 C 16,6 C 14,5 km/h (3 Bft) 98,11 %
09.08.2017 09:34 18,7 C 23,3 C 85 % 1015,3 hPa 0,0 l/m 6,4 km/h (2 Bft) O 88 0 min 0,000 mm 1,4 UV-I 254 W/m 16,1 C 18,7 C 9,7 km/h (2 Bft) 100,00 %
09.08.2017 09:36 18,8 C 23,3 C 84 % 1015,3 hPa 0,0 l/m 8,6 km/h (2 Bft) O-SO 103 0 min 0,000 mm 1,4 UV-I 234 W/m 16,0 C 17,8 C 17,7 km/h (3 Bft) 97,87 %
09.08.2017 09:38 18,8 C 23,3 C 83 % 1015,3 hPa 0,0 l/m 9,9 km/h (2 Bft) O 99 0 min 0,000 mm 1,5 UV-I 237 W/m 15,8 C 17,4 C 16,1 km/h (3 Bft) 100,00 %
09.08.2017 09:40 18,8 C 23,3 C 83 % 1015,4 hPa 0,0 l/m 6,2 km/h (2 Bft) O-NO 67 0 min 0,000 mm 1,4 UV-I 248 W/m 15,8 C 18,8 C 16,1 km/h (3 Bft) 100,00 %
09.08.2017 09:42 18,8 C 23,3 C 83 % 1015,4 hPa 0,0 l/m 9,2 km/h (2 Bft) O-NO 64 0 min 0,000 mm 1,4 UV-I 247 W/m 15,8 C 17,6 C 14,5 km/h (3 Bft) 100,00 %
09.08.2017 09:44 18,9 C 23,3 C 83 % 1015,3 hPa 0,0 l/m 7,4 km/h (2 Bft) O-NO 60 0 min 0,000 mm 1,5 UV-I 259 W/m 15,9 C 18,5 C 12,9 km/h (3 Bft) 100,00 %
09.08.2017 09:46 18,9 C 23,3 C 83 % 1015,4 hPa 0,0 l/m 10,0 km/h (2 Bft) O-NO 67 0 min 0,000 mm 1,4 UV-I 229 W/m 15,9 C 17,4 C 14,5 km/h (3 Bft) 100,00 %
09.08.2017 09:48 18,9 C 23,3 C 83 % 1015,4 hPa 0,0 l/m 8,3 km/h (2 Bft) O 82 0 min 0,000 mm 1,4 UV-I 212 W/m 15,9 C 18,1 C 12,9 km/h (3 Bft) 98,00 %
09.08.2017 09:50 18,9 C 23,3 C 82 % 1015,3 hPa 0,0 l/m 10,7 km/h (2 Bft) O 84 0 min 0,000 mm 1,5 UV-I 252 W/m 15,8 C 17,2 C 16,1 km/h (3 Bft) 97,73 %
09.08.2017 09:52 18,9 C 23,3 C 82 % 1015,4 hPa 0,0 l/m 11,9 km/h (2 Bft) O-NO 69 0 min 0,000 mm 1,6 UV-I 260 W/m 15,8 C 16,8 C 16,1 km/h (3 Bft) 100,00 %
09.08.2017 09:54 18,9 C 23,3 C 83 % 1015,4 hPa 0,0 l/m 10,1 km/h (2 Bft) O 87 0 min 0,000 mm 1,7 UV-I 285 W/m 15,9 C 17,4 C 14,5 km/h (3 Bft) 98,00 %
09.08.2017 09:56 19,1 C 23,3 C 84 % 1015,4 hPa 0,0 l/m 7,0 km/h (2 Bft) O-NO 74 0 min 0,000 mm 1,8 UV-I 260 W/m 16,3 C 18,8 C 14,5 km/h (3 Bft) 97,87 %
09.08.2017 09:58 19,2 C 23,3 C 83 % 1015,4 hPa 0,0 l/m 9,5 km/h (2 Bft) NO 51 0 min 0,000 mm 1,7 UV-I 245 W/m 16,2 C 17,9 C 16,1 km/h (3 Bft) 97,44 %
09.08.2017 10:00 19,2 C 23,3 C 82 % 1015,4 hPa 0,0 l/m 10,6 km/h (2 Bft) O-NO 58 0 min 0,000 mm 1,8 UV-I 223 W/m 16,0 C 17,6 C 16,1 km/h (3 Bft) 98,00 %
09.08.2017 10:02 19,2 C 23,3 C 82 % 1015,3 hPa 0,0 l/m 9,7 km/h (2 Bft) NO 45 0 min 0,153 mm 2,0 UV-I 195 W/m 16,0 C 17,9 C 14,5 km/h (3 Bft) 97,37 %
09.08.2017 10:04 19,3 C 23,3 C 82 % 1015,2 hPa 0,0 l/m 10,8 km/h (2 Bft) O-NO 68 0 min 0,000 mm 2,4 UV-I 195 W/m 16,1 C 17,6 C 16,1 km/h (3 Bft) 96,08 %
09.08.2017 10:06 19,3 C 23,3 C 82 % 1015,1 hPa 0,0 l/m 11,3 km/h (2 Bft) O-NO 73 0 min 0,000 mm 1,9 UV-I 198 W/m 16,1 C 17,4 C 16,1 km/h (3 Bft) 96,43 %
09.08.2017 10:08 19,3 C 23,3 C 82 % 1015,2 hPa 0,0 l/m 8,7 km/h (2 Bft) O 82 0 min 0,000 mm 2,0 UV-I 207 W/m 16,1 C 18,3 C 14,5 km/h (3 Bft) 97,87 %
09.08.2017 10:10 19,4 C 23,3 C 82 % 1015,2 hPa 0,0 l/m 9,6 km/h (2 Bft) O 92 0 min 0,000 mm 2,4 UV-I 207 W/m 16,2 C 18,1 C 16,1 km/h (3 Bft) 97,37 %
09.08.2017 10:12 19,4 C 23,3 C 82 % 1015,2 hPa 0,0 l/m 12,1 km/h (2 Bft) O-NO 57 0 min 0,000 mm 1,9 UV-I 261 W/m 16,2 C 17,3 C 17,7 km/h (3 Bft) 97,87 %
09.08.2017 10:14 19,6 C 23,3 C 82 % 1015,2 hPa 0,0 l/m 11,6 km/h (2 Bft) O-NO 76 0 min 0,000 mm 2,0 UV-I 253 W/m 16,4 C 17,7 C 19,3 km/h (3 Bft) 95,45 %
09.08.2017 10:16 19,7 C 23,3 C 81 % 1015,2 hPa 0,0 l/m 12,2 km/h (2 Bft) O-NO 63 0 min 0,000 mm 2,1 UV-I 253 W/m 16,3 C 17,6 C 19,3 km/h (3 Bft) 98,31 %
09.08.2017 10:18 19,7 C 23,3 C 80 % 1015,2 hPa 0,0 l/m 13,4 km/h (3 Bft) O-NO 60 2 min 0,000 mm 2,1 UV-I 498 W/m 16,1 C 17,3 C 19,3 km/h (3 Bft) 95,12 %
09.08.2017 10:20 19,7 C 23,3 C 81 % 1015,2 hPa 0,0 l/m 9,7 km/h (2 Bft) O-NO 73 0 min 0,000 mm 2,2 UV-I 348 W/m 16,3 C 18,4 C 14,5 km/h (3 Bft) 97,73 %
09.08.2017 10:22 19,8 C 23,3 C 82 % 1015,1 hPa 0,0 l/m 9,0 km/h (2 Bft) O-NO 61 0 min 0,000 mm 2,6 UV-I 303 W/m 16,6 C 18,8 C 16,1 km/h (3 Bft) 96,00 %
09.08.2017 10:24 20,1 C 23,3 C 83 % 1015,0 hPa 0,0 l/m 9,3 km/h (2 Bft) O-SO 103 0 min 0,000 mm 2,9 UV-I 292 W/m 17,1 C 19,0 C 12,9 km/h (3 Bft) 98,00 %
09.08.2017 10:26 20,3 C 23,3 C 79 % 1015,0 hPa 0,0 l/m 10,5 km/h (2 Bft) O-NO 74 0 min 0,000 mm 2,6 UV-I 292 W/m 16,5 C 18,8 C 14,5 km/h (3 Bft) 97,73 %
09.08.2017 10:28 20,3 C 23,3 C 78 % 1015,0 hPa 0,0 l/m 13,3 km/h (3 Bft) NO 55 0 min 0,000 mm 2,7 UV-I 292 W/m 16,3 C 18,0 C 17,7 km/h (3 Bft) 98,00 %
09.08.2017 10:30 20,4 C 23,3 C 78 % 1015,0 hPa 0,0 l/m 14,7 km/h (3 Bft) NO 56 0 min 0,000 mm 2,5 UV-I 262 W/m 16,4 C 17,8 C 20,9 km/h (4 Bft) 97,56 %
09.08.2017 10:32 20,6 C 23,3 C 76 % 1015,0 hPa 0,0 l/m 16,6 km/h (3 Bft) O-NO 72 0 min 0,000 mm 2,7 UV-I 286 W/m 16,2 C 17,6 C 20,9 km/h (4 Bft) 97,78 %
09.08.2017 10:34 20,6 C 23,3 C 76 % 1015,0 hPa 0,0 l/m 11,2 km/h (2 Bft) O-NO 61 0 min 0,000 mm 3,2 UV-I 345 W/m 16,2 C 18,9 C 19,3 km/h (3 Bft) 100,00 %
09.08.2017 10:36 20,8 C 23,3 C 78 % 1015,0 hPa 0,0 l/m 9,0 km/h (2 Bft) O-NO 70 2 min 0,000 mm 3,5 UV-I 538 W/m 16,8 C 19,8 C 14,5 km/h (3 Bft) 97,87 %
09.08.2017 10:38 20,9 C 23,3 C 77 % 1014,9 hPa 0,0 l/m 11,3 km/h (2 Bft) O-NO 70 2 min 0,000 mm 3,6 UV-I 673 W/m 16,7 C 19,3 C 17,7 km/h (3 Bft) 100,00 %
09.08.2017 10:40 21,2 C 23,3 C 74 % 1014,9 hPa 0,0 l/m 16,8 km/h (3 Bft) NO 50 2 min 0,000 mm 3,6 UV-I 689 W/m 16,4 C 18,3 C 22,5 km/h (4 Bft) 100,00 %
09.08.2017 10:42 21,2 C 23,3 C 73 % 1014,9 hPa 0,0 l/m 18,6 km/h (3 Bft) NO 54 2 min 0,000 mm 3,7 UV-I 699 W/m 16,2 C 18,0 C 24,1 km/h (4 Bft) 100,00 %
09.08.2017 10:44 21,3 C 23,3 C 74 % 1014,9 hPa 0,0 l/m 12,4 km/h (3 Bft) NO 39 2 min 0,000 mm 3,8 UV-I 716 W/m 16,5 C 19,4 C 17,7 km/h (3 Bft) 100,00 %
09.08.2017 10:46 21,4 C 23,3 C 73 % 1015,0 hPa 0,0 l/m 16,4 km/h (3 Bft) O-NO 58 2 min 0,000 mm 3,1 UV-I 653 W/m 16,4 C 18,7 C 25,7 km/h (4 Bft) 97,73 %
09.08.2017 10:48 21,3 C 23,3 C 73 % 1015,0 hPa 0,0 l/m 13,3 km/h (3 Bft) NO 44 2 min 0,000 mm 3,4 UV-I 598 W/m 16,3 C 19,2 C 17,7 km/h (3 Bft) 100,00 %
09.08.2017 10:50 21,4 C 23,3 C 75 % 1015,0 hPa 0,0 l/m 13,6 km/h (3 Bft) N-NO 29 2 min 0,000 mm 3,0 UV-I 466 W/m 16,8 C 19,3 C 24,1 km/h (4 Bft) 100,00 %
09.08.2017 10:52 21,4 C 23,3 C 75 % 1015,0 hPa 0,0 l/m 13,5 km/h (3 Bft) O-NO 65 0 min 0,000 mm 2,4 UV-I 245 W/m 16,8 C 19,3 C 19,3 km/h (3 Bft) 100,00 %
09.08.2017 10:54 21,3 C 23,3 C 73 % 1015,0 hPa 0,0 l/m 10,1 km/h (2 Bft) O-NO 67 0 min 0,000 mm 2,9 UV-I 357 W/m 16,3 C 20,0 C 17,7 km/h (3 Bft) 100,00 %
09.08.2017 10:56 21,3 C 23,3 C 73 % 1015,0 hPa 0,0 l/m 12,8 km/h (3 Bft) NO 54 0 min 0,000 mm 2,6 UV-I 374 W/m 16,3 C 19,3 C 17,7 km/h (3 Bft) 100,00 %
09.08.2017 10:58 21,3 C 23,3 C 75 % 1014,9 hPa 0,0 l/m 16,0 km/h (3 Bft) NO 46 0 min 0,000 mm 3,1 UV-I 314 W/m 16,7 C 18,6 C 20,9 km/h (4 Bft) 100,00 %
09.08.2017 11:00 21,3 C 23,3 C 76 % 1014,9 hPa 0,0 l/m 13,3 km/h (3 Bft) W-NW 303 0 min 0,304 mm 2,8 UV-I 349 W/m 16,9 C 19,2 C 20,9 km/h (4 Bft) 100,00 %
09.08.2017 11:02 21,3 C 23,3 C 74 % 1014,8 hPa 0,0 l/m 14,5 km/h (3 Bft) NO 42 0 min 0,000 mm 2,7 UV-I 305 W/m 16,5 C 18,9 C 22,5 km/h (4 Bft) 100,00 %
09.08.2017 11:04 21,3 C 23,3 C 73 % 1014,8 hPa 0,0 l/m 15,6 km/h (3 Bft) NO 34 0 min 0,000 mm 2,8 UV-I 317 W/m 16,3 C 18,7 C 20,9 km/h (4 Bft) 97,87 %
09.08.2017 11:06 21,3 C 23,3 C 73 % 1014,8 hPa 0,0 l/m 15,7 km/h (3 Bft) O-NO 65 0 min 0,000 mm 2,9 UV-I 278 W/m 16,3 C 18,7 C 25,7 km/h (4 Bft) 100,00 %
09.08.2017 11:08 21,3 C 23,3 C 72 % 1014,8 hPa 0,0 l/m 15,5 km/h (3 Bft) O-NO 73 2 min 0,000 mm 4,3 UV-I 647 W/m 16,0 C 18,7 C 24,1 km/h (4 Bft) 100,00 %
09.08.2017 11:10 21,6 C 23,3 C 74 % 1014,8 hPa 0,0 l/m 14,2 km/h (3 Bft) NO 51 2 min 0,000 mm 4,2 UV-I 727 W/m 16,8 C 19,4 C 19,3 km/h (3 Bft) 100,00 %
09.08.2017 11:12 21,8 C 23,3 C 71 % 1014,7 hPa 0,0 l/m 15,3 km/h (3 Bft) O 89 2 min 0,000 mm 4,3 UV-I 562 W/m 16,3 C 19,4 C 25,7 km/h (4 Bft) 100,00 %
09.08.2017 11:14 21,9 C 23,3 C 69 % 1014,8 hPa 0,0 l/m 17,9 km/h (3 Bft) O-NO 61 2 min 0,000 mm 4,4 UV-I 749 W/m 15,9 C 19,0 C 24,1 km/h (4 Bft) 100,00 %
09.08.2017 11:16 21,9 C 23,3 C 69 % 1014,7 hPa 0,0 l/m 17,2 km/h (3 Bft) O-NO 72 2 min 0,000 mm 4,4 UV-I 747 W/m 15,9 C 19,1 C 25,7 km/h (4 Bft) 100,00 %
09.08.2017 11:18 22,1 C 23,3 C 70 % 1014,7 hPa 0,0 l/m 11,3 km/h (2 Bft) O 84 2 min 0,000 mm 4,5 UV-I 750 W/m 16,4 C 20,6 C 20,9 km/h (4 Bft) 100,00 %
09.08.2017 11:20 22,3 C 23,3 C 69 % 1014,7 hPa 0,0 l/m 15,5 km/h (3 Bft) N-NO 31 2 min 0,000 mm 4,2 UV-I 718 W/m 16,3 C 19,9 C 19,3 km/h (3 Bft) 100,00 %
09.08.2017 11:22 22,4 C 23,3 C 68 % 1014,7 hPa 0,0 l/m 17,9 km/h (3 Bft) O-NO 74 2 min 0,000 mm 4,5 UV-I 752 W/m 16,2 C 19,6 C 22,5 km/h (4 Bft) 100,00 %
09.08.2017 11:24 22,4 C 23,3 C 67 % 1014,7 hPa 0,0 l/m 17,4 km/h (3 Bft) O-NO 60 2 min 0,000 mm 4,0 UV-I 761 W/m 16,0 C 19,7 C 24,1 km/h (4 Bft) 96,43 %
09.08.2017 11:26 22,4 C 23,3 C 65 % 1014,6 hPa 0,0 l/m 19,2 km/h (3 Bft) O-NO 60 2 min 0,000 mm 4,2 UV-I 761 W/m 15,5 C 19,4 C 24,1 km/h (4 Bft) 100,00 %
09.08.2017 11:28 22,4 C 23,3 C 65 % 1014,6 hPa 0,0 l/m 20,7 km/h (4 Bft) N-NO 28 2 min 0,000 mm 4,0 UV-I 521 W/m 15,5 C 19,2 C 27,4 km/h (4 Bft) 100,00 %
09.08.2017 11:30 22,4 C 23,3 C 65 % 1014,6 hPa 0,0 l/m 16,1 km/h (3 Bft) NO 50 2 min 0,000 mm 4,7 UV-I 762 W/m 15,5 C 20,0 C 27,4 km/h (4 Bft) 97,37 %
09.08.2017 11:32 22,6 C 23,3 C 67 % 1014,5 hPa 0,0 l/m 15,0 km/h (3 Bft) NO 51 2 min 0,000 mm 4,7 UV-I 754 W/m 16,2 C 20,4 C 25,7 km/h (4 Bft) 98,11 %
09.08.2017 11:34 22,7 C 23,3 C 66 % 1014,5 hPa 0,0 l/m 18,8 km/h (3 Bft) NO 52 2 min 0,000 mm 4,8 UV-I 756 W/m 16,0 C 19,9 C 29,0 km/h (5 Bft) 97,56 %
09.08.2017 11:36 22,8 C 23,3 C 65 % 1014,5 hPa 0,0 l/m 21,6 km/h (4 Bft) O-NO 68 2 min 0,000 mm 4,8 UV-I 754 W/m 15,9 C 19,6 C 27,4 km/h (4 Bft) 97,87 %
09.08.2017 11:38 22,8 C 23,3 C 65 % 1014,4 hPa 0,0 l/m 18,6 km/h (3 Bft) N-NO 26 2 min 0,000 mm 4,8 UV-I 756 W/m 15,9 C 20,0 C 24,1 km/h (4 Bft) 98,11 %
09.08.2017 11:40 22,8 C 23,3 C 66 % 1014,3 hPa 0,0 l/m 14,8 km/h (3 Bft) O-NO 74 2 min 0,000 mm 4,9 UV-I 760 W/m 16,1 C 20,7 C 20,9 km/h (4 Bft) 97,73 %
09.08.2017 11:42 22,9 C 23,3 C 65 % 1014,3 hPa 0,0 l/m 17,0 km/h (3 Bft) NO 40 2 min 0,000 mm 4,9 UV-I 762 W/m 16,0 C 20,4 C 24,1 km/h (4 Bft) 97,56 %
09.08.2017 11:44 23,0 C 23,3 C 64 % 1014,3 hPa 0,0 l/m 21,2 km/h (4 Bft) O-NO 67 2 min 0,000 mm 4,9 UV-I 764 W/m 15,8 C 19,9 C 32,2 km/h (5 Bft) 97,62 %
09.08.2017 11:46 23,1 C 23,3 C 62 % 1014,2 hPa 0,0 l/m 23,4 km/h (4 Bft) O-NO 76 2 min 0,000 mm 5,0 UV-I 769 W/m 15,4 C 19,8 C 30,6 km/h (5 Bft) 98,11 %
09.08.2017 11:48 23,1 C 23,3 C 65 % 1014,2 hPa 0,0 l/m 16,5 km/h (3 Bft) NO 46 2 min 0,000 mm 5,0 UV-I 769 W/m 16,2 C 20,7 C 20,9 km/h (4 Bft) 98,11 %
09.08.2017 11:50 23,2 C 23,3 C 63 % 1014,2 hPa 0,0 l/m 16,4 km/h (3 Bft) NO 35 2 min 0,000 mm 5,0 UV-I 772 W/m 15,8 C 20,9 C 22,5 km/h (4 Bft) 93,88 %
09.08.2017 11:52 23,3 C 23,3 C 65 % 1014,1 hPa 0,0 l/m 18,8 km/h (3 Bft) N-NO 25 2 min 0,000 mm 5,0 UV-I 772 W/m 16,3 C 20,6 C 24,1 km/h (4 Bft) 97,22 %
09.08.2017 11:54 23,4 C 23,3 C 65 % 1014,1 hPa 0,0 l/m 18,9 km/h (3 Bft) NO 36 2 min 0,000 mm 5,1 UV-I 773 W/m 16,4 C 20,8 C 27,4 km/h (4 Bft) 94,34 %
09.08.2017 11:56 23,4 C 23,3 C 66 % 1014,1 hPa 0,0 l/m 15,9 km/h (3 Bft) N-NO 27 2 min 0,000 mm 5,1 UV-I 777 W/m 16,7 C 21,2 C 25,7 km/h (4 Bft) 96,23 %
09.08.2017 11:58 23,4 C 23,3 C 66 % 1014,2 hPa 0,0 l/m 19,8 km/h (3 Bft) NO 49 2 min 0,000 mm 5,1 UV-I 781 W/m 16,7 C 20,6 C 30,6 km/h (5 Bft) 92,68 %
09.08.2017 12:00 23,6 C 23,3 C 65 % 1014,1 hPa 0,0 l/m 21,2 km/h (4 Bft) NO 38 2 min 0,508 mm 5,2 UV-I 782 W/m 16,6 C 20,7 C 29,0 km/h (5 Bft) 95,45 %
09.08.2017 12:02 23,6 C 23,3 C 64 % 1014,1 hPa 0,0 l/m 20,7 km/h (4 Bft) NO 49 2 min 0,000 mm 5,2 UV-I 783 W/m 16,4 C 20,8 C 29,0 km/h (5 Bft) 91,07 %
09.08.2017 12:04 23,6 C 23,3 C 61 % 1014,1 hPa 0,0 l/m 21,0 km/h (4 Bft) O-NO 63 2 min 0,000 mm 5,2 UV-I 785 W/m 15,6 C 20,7 C 29,0 km/h (5 Bft) 97,37 %
09.08.2017 12:06 23,6 C 23,3 C 63 % 1014,0 hPa 0,0 l/m 20,4 km/h (4 Bft) NO 46 2 min 0,000 mm 5,3 UV-I 788 W/m 16,1 C 20,8 C 27,4 km/h (4 Bft) 92,59 %
09.08.2017 12:08 23,6 C 23,3 C 61 % 1014,0 hPa 0,0 l/m 17,6 km/h (3 Bft) NO 45 2 min 0,000 mm 5,3 UV-I 787 W/m 15,6 C 21,2 C 24,1 km/h (4 Bft) 92,11 %
09.08.2017 12:10 23,7 C 23,3 C 65 % 1013,9 hPa 0,0 l/m 17,7 km/h (3 Bft) O-NO 58 2 min 0,000 mm 5,3 UV-I 787 W/m 16,7 C 21,3 C 27,4 km/h (4 Bft) 96,23 %
09.08.2017 12:12 23,7 C 23,3 C 64 % 1013,9 hPa 0,0 l/m 17,7 km/h (3 Bft) NO 52 2 min 0,000 mm 5,3 UV-I 788 W/m 16,5 C 21,3 C 25,7 km/h (4 Bft) 94,74 %
09.08.2017 12:14 23,9 C 23,3 C 64 % 1013,9 hPa 0,0 l/m 20,0 km/h (4 Bft) NO 48 2 min 0,000 mm 5,4 UV-I 792 W/m 16,7 C 21,2 C 32,2 km/h (5 Bft) 92,45 %
09.08.2017 12:16 23,8 C 23,9 C 62 % 1013,9 hPa 0,0 l/m 21,4 km/h (4 Bft) O-NO 57 2 min 0,000 mm 5,4 UV-I 793 W/m 16,1 C 20,9 C 30,6 km/h (5 Bft) 96,97 %
09.08.2017 12:18 23,8 C 23,9 C 64 % 1013,8 hPa 0,0 l/m 20,9 km/h (4 Bft) NO 42 2 min 0,000 mm 5,4 UV-I 796 W/m 16,6 C 21,0 C 29,0 km/h (5 Bft) 95,52 %
09.08.2017 12:20 23,9 C 23,9 C 62 % 1013,9 hPa 0,0 l/m 13,1 km/h (3 Bft) NO 51 2 min 0,000 mm 5,5 UV-I 796 W/m 16,2 C 22,3 C 20,9 km/h (4 Bft) 95,12 %
09.08.2017 12:22 24,1 C 23,9 C 60 % 1013,9 hPa 0,0 l/m 18,3 km/h (3 Bft) NO 40 2 min 0,000 mm 5,5 UV-I 798 W/m 15,8 C 21,7 C 24,1 km/h (4 Bft) 96,00 %
09.08.2017 12:24 24,1 C 23,9 C 59 % 1013,9 hPa 0,0 l/m 23,4 km/h (4 Bft) NO 48 2 min 0,000 mm 5,5 UV-I 802 W/m 15,6 C 21,1 C 30,6 km/h (5 Bft) 97,56 %
09.08.2017 12:26 24,1 C 23,9 C 60 % 1013,9 hPa 0,0 l/m 22,0 km/h (4 Bft) NO 50 2 min 0,000 mm 5,5 UV-I 803 W/m 15,8 C 21,3 C 30,6 km/h (5 Bft) 97,44 %
09.08.2017 12:28 24,0 C 23,9 C 60 % 1013,8 hPa 0,0 l/m 15,8 km/h (3 Bft) NO 53 2 min 0,000 mm 5,5 UV-I 802 W/m 15,7 C 22,0 C 22,5 km/h (4 Bft) 98,28 %
09.08.2017 12:30 24,1 C 23,9 C 62 % 1013,8 hPa 0,0 l/m 15,5 km/h (3 Bft) O-NO 78 2 min 0,000 mm 5,5 UV-I 804 W/m 16,4 C 22,1 C 20,9 km/h (4 Bft) 97,62 %
09.08.2017 12:32 24,3 C 23,9 C 63 % 1013,7 hPa 0,0 l/m 19,4 km/h (3 Bft) O-NO 67 2 min 0,000 mm 5,6 UV-I 806 W/m 16,8 C 21,8 C 27,4 km/h (4 Bft) 97,87 %
09.08.2017 12:34 24,3 C 23,9 C 62 % 1013,7 hPa 0,0 l/m 19,3 km/h (3 Bft) NO 54 2 min 0,000 mm 5,6 UV-I 805 W/m 16,5 C 21,8 C 25,7 km/h (4 Bft) 98,00 %
09.08.2017 12:36 24,3 C 23,9 C 62 % 1013,7 hPa 0,0 l/m 16,6 km/h (3 Bft) NO 42 2 min 0,000 mm 5,6 UV-I 806 W/m 16,5 C 22,2 C 22,5 km/h (4 Bft) 95,74 %
09.08.2017 12:38 24,3 C 23,9 C 62 % 1013,7 hPa 0,0 l/m 14,4 km/h (3 Bft) O 79 2 min 0,000 mm 5,6 UV-I 804 W/m 16,5 C 22,6 C 22,5 km/h (4 Bft) 96,00 %
09.08.2017 12:40 24,3 C 23,9 C 64 % 1013,7 hPa 0,0 l/m 16,1 km/h (3 Bft) N 11 2 min 0,000 mm 5,6 UV-I 802 W/m 17,0 C 22,3 C 24,1 km/h (4 Bft) 97,56 %
09.08.2017 12:42 24,4 C 23,9 C 69 % 1013,5 hPa 0,0 l/m 19,7 km/h (3 Bft) N 5 2 min 0,000 mm 5,6 UV-I 803 W/m 18,3 C 21,9 C 29,0 km/h (5 Bft) 96,23 %
09.08.2017 12:44 24,4 C 23,9 C 67 % 1013,6 hPa 0,0 l/m 20,1 km/h (4 Bft) NO 47 2 min 0,000 mm 5,6 UV-I 806 W/m 17,9 C 21,9 C 27,4 km/h (4 Bft) 97,73 %
09.08.2017 12:46 24,3 C 23,9 C 65 % 1013,6 hPa 0,0 l/m 13,3 km/h (3 Bft) NO 34 2 min 0,000 mm 5,6 UV-I 808 W/m 17,3 C 22,7 C 20,9 km/h (4 Bft) 95,12 %
09.08.2017 12:48 24,4 C 23,9 C 65 % 1013,6 hPa 0,0 l/m 14,2 km/h (3 Bft) O-NO 63 2 min 0,000 mm 5,6 UV-I 806 W/m 17,4 C 22,7 C 22,5 km/h (4 Bft) 98,00 %
09.08.2017 12:50 24,4 C 23,9 C 64 % 1013,6 hPa 0,0 l/m 17,0 km/h (3 Bft) O-NO 67 2 min 0,000 mm 5,6 UV-I 809 W/m 17,1 C 22,3 C 25,7 km/h (4 Bft) 100,00 %
09.08.2017 12:52 24,5 C 23,9 C 66 % 1013,5 hPa 0,0 l/m 13,2 km/h (3 Bft) O-NO 63 2 min 0,000 mm 5,7 UV-I 807 W/m 17,7 C 23,0 C 24,1 km/h (4 Bft) 100,00 %
09.08.2017 12:54 24,5 C 23,9 C 64 % 1013,6 hPa 0,0 l/m 18,2 km/h (3 Bft) N-NO 33 2 min 0,000 mm 5,7 UV-I 807 W/m 17,2 C 22,2 C 29,0 km/h (5 Bft) 97,50 %
09.08.2017 12:56 24,5 C 23,9 C 67 % 1013,5 hPa 0,0 l/m 16,0 km/h (3 Bft) NO 41 2 min 0,000 mm 5,6 UV-I 806 W/m 18,0 C 22,6 C 22,5 km/h (4 Bft) 100,00 %
09.08.2017 12:58 24,6 C 23,9 C 66 % 1013,5 hPa 0,0 l/m 12,0 km/h (2 Bft) NO 43 2 min 0,000 mm 5,7 UV-I 808 W/m 17,8 C 23,3 C 22,5 km/h (4 Bft) 97,14 %
09.08.2017 13:00 24,8 C 23,9 C 64 % 1013,5 hPa 0,0 l/m 18,1 km/h (3 Bft) NO 50 2 min 0,000 mm 5,7 UV-I 810 W/m 17,5 C 22,6 C 22,5 km/h (4 Bft) 100,00 %
09.08.2017 13:02 24,8 C 23,9 C 59 % 1013,3 hPa 0,0 l/m 24,7 km/h (4 Bft) O-NO 59 2 min 0,585 mm 5,7 UV-I 811 W/m 16,2 C 21,9 C 32,2 km/h (5 Bft) 98,00 %
09.08.2017 13:04 24,8 C 23,9 C 61 % 1013,3 hPa 0,0 l/m 18,9 km/h (3 Bft) NO 42 2 min 0,000 mm 5,7 UV-I 810 W/m 16,8 C 22,5 C 24,1 km/h (4 Bft) 100,00 %
09.08.2017 13:06 24,8 C 23,9 C 61 % 1013,3 hPa 0,0 l/m 19,1 km/h (3 Bft) O-NO 60 2 min 0,000 mm 5,7 UV-I 813 W/m 16,8 C 22,5 C 27,4 km/h (4 Bft) 100,00 %
09.08.2017 13:08 25,1 C 23,9 C 60 % 1013,4 hPa 0,0 l/m 15,3 km/h (3 Bft) NO 42 2 min 0,000 mm 5,7 UV-I 811 W/m 16,8 C 23,4 C 24,1 km/h (4 Bft) 98,00 %
09.08.2017 13:10 25,1 C 23,9 C 56 % 1013,3 hPa 0,0 l/m 26,6 km/h (4 Bft) NO 45 2 min 0,000 mm 5,7 UV-I 812 W/m 15,7 C 22,2 C 37,0 km/h (5 Bft) 100,00 %
09.08.2017 13:12 25,1 C 23,9 C 57 % 1013,3 hPa 0,0 l/m 21,4 km/h (4 Bft) NO 52 2 min 0,000 mm 5,7 UV-I 813 W/m 16,0 C 22,6 C 33,8 km/h (5 Bft) 100,00 %
09.08.2017 13:14 25,1 C 23,9 C 58 % 1013,3 hPa 0,0 l/m 19,1 km/h (3 Bft) O-NO 61 2 min 0,000 mm 5,7 UV-I 811 W/m 16,2 C 22,9 C 29,0 km/h (5 Bft) 100,00 %
09.08.2017 13:16 25,1 C 23,9 C 58 % 1013,2 hPa 0,0 l/m 20,3 km/h (4 Bft) O-NO 58 2 min 0,000 mm 5,7 UV-I 810 W/m 16,2 C 22,8 C 30,6 km/h (5 Bft) 100,00 %
09.08.2017 13:18 25,1 C 23,9 C 57 % 1013,2 hPa 0,0 l/m 20,0 km/h (4 Bft) O-NO 75 2 min 0,000 mm 5,7 UV-I 811 W/m 16,0 C 22,8 C 27,4 km/h (4 Bft) 97,37 %
09.08.2017 13:20 25,1 C 23,9 C 58 % 1013,2 hPa 0,0 l/m 18,4 km/h (3 Bft) O-NO 59 2 min 0,000 mm 5,7 UV-I 810 W/m 16,2 C 23,0 C 24,1 km/h (4 Bft) 100,00 %
09.08.2017 13:22 25,0 C 23,9 C 59 % 1013,2 hPa 0,0 l/m 17,3 km/h (3 Bft) O-NO 71 2 min 0,000 mm 5,7 UV-I 811 W/m 16,4 C 23,0 C 24,1 km/h (4 Bft) 100,00 %
09.08.2017 13:24 25,1 C 23,9 C 62 % 1013,1 hPa 0,0 l/m 19,4 km/h (3 Bft) N-NO 32 2 min 0,000 mm 5,7 UV-I 810 W/m 17,3 C 22,9 C 24,1 km/h (4 Bft) 100,00 %
09.08.2017 13:26 25,3 C 23,9 C 60 % 1013,1 hPa 0,0 l/m 16,4 km/h (3 Bft) NO 48 2 min 0,000 mm 5,7 UV-I 809 W/m 17,0 C 23,5 C 22,5 km/h (4 Bft) 100,00 %
09.08.2017 13:28 25,4 C 23,9 C 62 % 1013,0 hPa 0,0 l/m 13,5 km/h (3 Bft) N 11 2 min 0,000 mm 5,7 UV-I 807 W/m 17,6 C 24,0 C 20,9 km/h (4 Bft) 98,31 %
09.08.2017 13:30 25,5 C 23,9 C 60 % 1013,0 hPa 0,0 l/m 15,3 km/h (3 Bft) O-NO 59 2 min 0,000 mm 5,7 UV-I 805 W/m 17,2 C 23,9 C 25,7 km/h (4 Bft) 100,00 %
09.08.2017 13:32 25,5 C 23,9 C 61 % 1013,0 hPa 0,0 l/m 19,3 km/h (3 Bft) NO 51 2 min 0,000 mm 5,7 UV-I 807 W/m 17,4 C 23,4 C 25,7 km/h (4 Bft) 100,00 %
09.08.2017 13:34 25,5 C 23,9 C 61 % 1013,0 hPa 0,0 l/m 17,4 km/h (3 Bft) NO 53 2 min 0,000 mm 5,6 UV-I 805 W/m 17,4 C 23,6 C 25,7 km/h (4 Bft) 100,00 %
09.08.2017 13:36 25,4 C 23,9 C 60 % 1013,0 hPa 0,0 l/m 17,2 km/h (3 Bft) O-NO 60 2 min 0,000 mm 5,6 UV-I 804 W/m 17,1 C 23,5 C 22,5 km/h (4 Bft) 100,00 %
09.08.2017 13:38 25,4 C 23,9 C 60 % 1013,0 hPa 0,0 l/m 17,4 km/h (3 Bft) O-NO 58 2 min 0,000 mm 5,6 UV-I 804 W/m 17,1 C 23,5 C 25,7 km/h (4 Bft) 98,11 %
09.08.2017 13:40 25,4 C 23,9 C 58 % 1013,0 hPa 0,0 l/m 16,9 km/h (3 Bft) O 80 2 min 0,000 mm 5,6 UV-I 804 W/m 16,5 C 23,5 C 24,1 km/h (4 Bft) 100,00 %
09.08.2017 13:42 25,6 C 23,9 C 60 % 1012,9 hPa 0,0 l/m 17,7 km/h (3 Bft) N-NO 24 2 min 0,000 mm 5,6 UV-I 803 W/m 17,2 C 23,7 C 25,7 km/h (4 Bft) 100,00 %
09.08.2017 13:44 25,7 C 23,9 C 60 % 1012,8 hPa 0,0 l/m 13,1 km/h (3 Bft) N-NO 28 2 min 0,000 mm 5,6 UV-I 801 W/m 17,3 C 24,4 C 25,7 km/h (4 Bft) 100,00 %
09.08.2017 13:46 25,8 C 23,9 C 61 % 1012,8 hPa 0,0 l/m 19,9 km/h (4 Bft) N-NO 26 2 min 0,000 mm 5,6 UV-I 799 W/m 17,7 C 23,7 C 30,6 km/h (5 Bft) 100,00 %
09.08.2017 13:48 25,8 C 23,9 C 58 % 1012,7 hPa 0,0 l/m 22,8 km/h (4 Bft) NO 51 2 min 0,000 mm 5,6 UV-I 799 W/m 16,9 C 23,4 C 32,2 km/h (5 Bft) 97,87 %
09.08.2017 13:50 25,7 C 23,9 C 60 % 1012,8 hPa 0,0 l/m 19,5 km/h (3 Bft) N-NO 26 2 min 0,000 mm 5,5 UV-I 795 W/m 17,3 C 23,6 C 25,7 km/h (4 Bft) 97,37 %
09.08.2017 13:52 25,7 C 23,9 C 59 % 1012,8 hPa 0,0 l/m 19,8 km/h (3 Bft) NO 46 2 min 0,000 mm 5,5 UV-I 795 W/m 17,1 C 23,6 C 35,4 km/h (5 Bft) 94,34 %
09.08.2017 13:54 25,7 C 23,9 C 58 % 1012,7 hPa 0,0 l/m 19,0 km/h (3 Bft) NO 40 2 min 0,000 mm 5,5 UV-I 795 W/m 16,8 C 23,7 C 24,1 km/h (4 Bft) 96,61 %
09.08.2017 13:56 25,7 C 23,9 C 58 % 1012,6 hPa 0,0 l/m 18,9 km/h (3 Bft) NO 47 2 min 0,000 mm 5,5 UV-I 795 W/m 16,8 C 23,7 C 29,0 km/h (5 Bft) 97,73 %
09.08.2017 13:58 25,7 C 23,9 C 59 % 1012,7 hPa 0,0 l/m 21,2 km/h (4 Bft) NO 49 2 min 0,000 mm 5,5 UV-I 795 W/m 17,1 C 23,4 C 32,2 km/h (5 Bft) 97,73 %
09.08.2017 14:00 25,7 C 23,9 C 56 % 1012,7 hPa 0,0 l/m 24,5 km/h (4 Bft) O 86 2 min 0,609 mm 5,5 UV-I 794 W/m 16,2 C 23,1 C 32,2 km/h (5 Bft) 98,00 %
09.08.2017 14:02 25,6 C 23,9 C 57 % 1012,5 hPa 0,0 l/m 18,0 km/h (3 Bft) O-NO 76 2 min 0,000 mm 5,4 UV-I 790 W/m 16,4 C 23,7 C 27,4 km/h (4 Bft) 97,87 %
09.08.2017 14:04 25,7 C 23,9 C 57 % 1012,5 hPa 0,0 l/m 21,4 km/h (4 Bft) O-NO 58 2 min 0,000 mm 5,4 UV-I 788 W/m 16,5 C 23,4 C 32,2 km/h (5 Bft) 92,11 %
09.08.2017 14:06 25,7 C 23,9 C 56 % 1012,5 hPa 0,0 l/m 21,9 km/h (4 Bft) O-NO 57 2 min 0,000 mm 5,4 UV-I 786 W/m 16,2 C 23,4 C 32,2 km/h (5 Bft) 98,00 %
09.08.2017 14:08 25,7 C 23,9 C 56 % 1012,5 hPa 0,0 l/m 18,2 km/h (3 Bft) O 83 2 min 0,000 mm 5,3 UV-I 783 W/m 16,2 C 23,8 C 24,1 km/h (4 Bft) 95,45 %
09.08.2017 14:10 25,7 C 23,9 C 57 % 1012,4 hPa 0,0 l/m 18,9 km/h (3 Bft) O-NO 64 2 min 0,000 mm 5,3 UV-I 781 W/m 16,5 C 23,7 C 27,4 km/h (4 Bft) 98,21 %
09.08.2017 14:12 25,7 C 23,9 C 58 % 1012,4 hPa 0,0 l/m 21,1 km/h (4 Bft) NO 34 2 min 0,000 mm 5,3 UV-I 779 W/m 16,8 C 23,5 C 32,2 km/h (5 Bft) 97,56 %
09.08.2017 14:14 25,8 C 23,9 C 57 % 1012,4 hPa 0,0 l/m 23,7 km/h (4 Bft) O-NO 57 2 min 0,000 mm 5,3 UV-I 782 W/m 16,6 C 23,4 C 33,8 km/h (5 Bft) 96,23 %
09.08.2017 14:16 25,9 C 23,9 C 57 % 1012,4 hPa 0,0 l/m 19,7 km/h (3 Bft) NO 46 2 min 0,000 mm 5,3 UV-I 779 W/m 16,7 C 23,9 C 25,7 km/h (4 Bft) 97,56 %
09.08.2017 14:18 25,9 C 24,4 C 56 % 1012,4 hPa 0,0 l/m 24,1 km/h (4 Bft) NO 50 2 min 0,000 mm 5,3 UV-I 777 W/m 16,4 C 23,5 C 33,8 km/h (5 Bft) 97,87 %
09.08.2017 14:20 25,9 C 24,4 C 55 % 1012,4 hPa 0,0 l/m 19,9 km/h (4 Bft) O-NO 62 2 min 0,000 mm 5,2 UV-I 773 W/m 16,2 C 23,8 C 25,7 km/h (4 Bft) 95,74 %
09.08.2017 14:22 25,9 C 24,4 C 55 % 1012,3 hPa 0,0 l/m 19,9 km/h (4 Bft) NO 53 2 min 0,000 mm 5,2 UV-I 770 W/m 16,2 C 23,8 C 25,7 km/h (4 Bft) 100,00 %
09.08.2017 14:24 25,9 C 24,4 C 56 % 1012,3 hPa 0,0 l/m 20,1 km/h (4 Bft) NO 41 2 min 0,000 mm 5,1 UV-I 767 W/m 16,4 C 23,8 C 29,0 km/h (5 Bft) 100,00 %
09.08.2017 14:26 26,0 C 24,4 C 57 % 1012,3 hPa 0,0 l/m 20,1 km/h (4 Bft) NO 36 2 min 0,000 mm 5,1 UV-I 765 W/m 16,8 C 23,9 C 25,7 km/h (4 Bft) 100,00 %
09.08.2017 14:28 26,0 C 24,4 C 56 % 1012,2 hPa 0,0 l/m 18,8 km/h (3 Bft) N-NO 18 2 min 0,000 mm 5,1 UV-I 763 W/m 16,5 C 24,1 C 29,0 km/h (5 Bft) 97,44 %
09.08.2017 14:30 26,2 C 24,4 C 59 % 1012,2 hPa 0,0 l/m 12,7 km/h (3 Bft) NO 37 2 min 0,000 mm 5,0 UV-I 760 W/m 17,5 C 25,1 C 19,3 km/h (3 Bft) 98,00 %
09.08.2017 14:32 26,2 C 24,4 C 57 % 1012,1 hPa 0,0 l/m 21,2 km/h (4 Bft) NO 54 2 min 0,000 mm 5,0 UV-I 759 W/m 17,0 C 24,1 C 29,0 km/h (5 Bft) 100,00 %
09.08.2017 14:34 26,3 C 24,4 C 57 % 1012,1 hPa 0,0 l/m 20,7 km/h (4 Bft) N-NO 29 2 min 0,000 mm 5,0 UV-I 757 W/m 17,1 C 24,3 C 32,2 km/h (5 Bft) 100,00 %
09.08.2017 14:36 26,3 C 24,4 C 57 % 1012,2 hPa 0,0 l/m 20,7 km/h (4 Bft) O-NO 61 2 min 0,000 mm 5,0 UV-I 754 W/m 17,1 C 24,3 C 27,4 km/h (4 Bft) 100,00 %
09.08.2017 14:38 26,2 C 24,4 C 56 % 1012,1 hPa 0,0 l/m 18,4 km/h (3 Bft) NO 43 2 min 0,000 mm 4,9 UV-I 752 W/m 16,7 C 24,4 C 24,1 km/h (4 Bft) 100,00 %
09.08.2017 14:40 26,2 C 24,4 C 58 % 1012,1 hPa 0,0 l/m 16,5 km/h (3 Bft) N-NO 23 2 min 0,000 mm 4,9 UV-I 746 W/m 17,3 C 24,6 C 24,1 km/h (4 Bft) 98,21 %
09.08.2017 14:42 26,2 C 24,4 C 58 % 1012,0 hPa 0,0 l/m 19,8 km/h (3 Bft) O-NO 57 2 min 0,000 mm 4,8 UV-I 745 W/m 17,3 C 24,2 C 25,7 km/h (4 Bft) 95,74 %
09.08.2017 14:44 26,2 C 24,4 C 56 % 1012,1 hPa 0,0 l/m 23,7 km/h (4 Bft) O-NO 65 2 min 0,000 mm 4,8 UV-I 745 W/m 16,7 C 23,9 C 30,6 km/h (5 Bft) 100,00 %
09.08.2017 14:46 26,1 C 24,4 C 56 % 1012,0 hPa 0,0 l/m 21,2 km/h (4 Bft) NO 48 2 min 0,000 mm 4,8 UV-I 742 W/m 16,6 C 24,0 C 30,6 km/h (5 Bft) 100,00 %
09.08.2017 14:48 26,2 C 24,4 C 57 % 1012,0 hPa 0,0 l/m 18,7 km/h (3 Bft) O-NO 78 2 min 0,000 mm 4,8 UV-I 738 W/m 17,0 C 24,3 C 30,6 km/h (5 Bft) 100,00 %
09.08.2017 14:50 26,2 C 24,4 C 57 % 1012,0 hPa 0,0 l/m 25,1 km/h (4 Bft) O-NO 66 2 min 0,000 mm 4,7 UV-I 737 W/m 17,0 C 23,8 C 32,2 km/h (5 Bft) 100,00 %
09.08.2017 14:52 26,2 C 24,4 C 57 % 1012,0 hPa 0,0 l/m 24,7 km/h (4 Bft) O-NO 57 2 min 0,000 mm 4,6 UV-I 731 W/m 17,0 C 23,8 C 33,8 km/h (5 Bft) 100,00 %
09.08.2017 14:54 26,2 C 24,4 C 57 % 1011,9 hPa 0,0 l/m 16,2 km/h (3 Bft) NO 38 2 min 0,000 mm 4,6 UV-I 729 W/m 17,0 C 24,6 C 24,1 km/h (4 Bft) 97,73 %
09.08.2017 14:56 26,3 C 24,4 C 57 % 1011,9 hPa 0,0 l/m 18,9 km/h (3 Bft) O-NO 64 2 min 0,000 mm 4,6 UV-I 728 W/m 17,1 C 24,5 C 25,7 km/h (4 Bft) 100,00 %
09.08.2017 14:58 26,3 C 24,4 C 58 % 1011,9 hPa 0,0 l/m 16,2 km/h (3 Bft) O 94 2 min 0,000 mm 4,6 UV-I 724 W/m 17,4 C 24,7 C 25,7 km/h (4 Bft) 100,00 %
09.08.2017 15:00 26,4 C 24,4 C 59 % 1011,9 hPa 0,0 l/m 20,2 km/h (4 Bft) NO 42 2 min 0,610 mm 4,5 UV-I 720 W/m 17,7 C 24,5 C 29,0 km/h (5 Bft) 100,00 %
09.08.2017 15:02 26,5 C 24,4 C 57 % 1012,0 hPa 0,0 l/m 17,7 km/h (3 Bft) O-NO 77 2 min 0,000 mm 4,5 UV-I 717 W/m 17,3 C 24,8 C 27,4 km/h (4 Bft) 100,00 %
09.08.2017 15:04 26,6 C 24,4 C 57 % 1011,8 hPa 0,0 l/m 17,3 km/h (3 Bft) NO 49 2 min 0,000 mm 4,5 UV-I 716 W/m 17,4 C 25,0 C 25,7 km/h (4 Bft) 100,00 %
09.08.2017 15:06 26,6 C 24,4 C 57 % 1011,8 hPa 0,0 l/m 16,4 km/h (3 Bft) NO 53 2 min 0,000 mm 4,4 UV-I 713 W/m 17,4 C 25,1 C 20,9 km/h (4 Bft) 100,00 %
09.08.2017 15:08 26,6 C 24,4 C 59 % 1011,8 hPa 0,0 l/m 17,2 km/h (3 Bft) NO 55 2 min 0,000 mm 4,4 UV-I 708 W/m 17,9 C 25,0 C 24,1 km/h (4 Bft) 100,00 %
09.08.2017 15:10 26,6 C 24,4 C 58 % 1011,8 hPa 0,0 l/m 17,8 km/h (3 Bft) NO 36 2 min 0,000 mm 4,3 UV-I 705 W/m 17,6 C 24,9 C 24,1 km/h (4 Bft) 100,00 %
09.08.2017 15:12 26,6 C 24,4 C 57 % 1011,8 hPa 0,0 l/m 21,3 km/h (4 Bft) NO 56 2 min 0,000 mm 4,3 UV-I 702 W/m 17,4 C 24,6 C 29,0 km/h (5 Bft) 100,00 %
09.08.2017 15:14 26,6 C 24,4 C 59 % 1011,6 hPa 0,0 l/m 16,8 km/h (3 Bft) O-NO 61 2 min 0,000 mm 4,2 UV-I 699 W/m 17,9 C 25,0 C 25,7 km/h (4 Bft) 98,00 %
09.08.2017 15:16 26,6 C 24,4 C 56 % 1011,7 hPa 0,0 l/m 20,3 km/h (4 Bft) O-NO 59 2 min 0,000 mm 4,2 UV-I 695 W/m 17,1 C 24,7 C 27,4 km/h (4 Bft) 97,87 %
09.08.2017 15:18 26,6 C 24,4 C 57 % 1011,6 hPa 0,0 l/m 18,2 km/h (3 Bft) NO 42 2 min 0,000 mm 4,1 UV-I 691 W/m 17,4 C 24,9 C 25,7 km/h (4 Bft) 100,00 %
09.08.2017 15:20 26,6 C 24,4 C 59 % 1011,5 hPa 0,0 l/m 14,4 km/h (3 Bft) N-NO 28 2 min 0,000 mm 4,1 UV-I 687 W/m 17,9 C 25,3 C 19,3 km/h (3 Bft) 100,00 %
09.08.2017 15:22 26,7 C 24,4 C 58 % 1011,5 hPa 0,0 l/m 15,7 km/h (3 Bft) NO 55 2 min 0,000 mm 4,0 UV-I 683 W/m 17,7 C 25,3 C 20,9 km/h (4 Bft) 100,00 %
09.08.2017 15:24 26,8 C 24,4 C 59 % 1011,5 hPa 0,0 l/m 20,3 km/h (4 Bft) O-NO 69 2 min 0,000 mm 4,0 UV-I 682 W/m 18,1 C 25,0 C 25,7 km/h (4 Bft) 100,00 %
09.08.2017 15:26 26,8 C 24,4 C 60 % 1011,4 hPa 0,0 l/m 17,3 km/h (3 Bft) NO 37 2 min 0,000 mm 4,0 UV-I 679 W/m 18,4 C 25,2 C 25,7 km/h (4 Bft) 100,00 %
09.08.2017 15:28 26,8 C 24,4 C 59 % 1011,4 hPa 0,0 l/m 18,7 km/h (3 Bft) NO 36 2 min 0,000 mm 4,0 UV-I 677 W/m 18,1 C 25,1 C 24,1 km/h (4 Bft) 95,74 %
09.08.2017 15:30 26,9 C 24,4 C 59 % 1011,4 hPa 0,0 l/m 17,7 km/h (3 Bft) NO 38 2 min 0,000 mm 3,9 UV-I 672 W/m 18,2 C 25,3 C 24,1 km/h (4 Bft) 100,00 %
09.08.2017 15:32 26,9 C 24,4 C 58 % 1011,4 hPa 0,0 l/m 18,3 km/h (3 Bft) N-NO 15 2 min 0,000 mm 3,9 UV-I 670 W/m 17,9 C 25,3 C 24,1 km/h (4 Bft) 100,00 %
09.08.2017 15:34 26,9 C 24,4 C 58 % 1011,4 hPa 0,0 l/m 18,9 km/h (3 Bft) NO 43 2 min 0,000 mm 3,8 UV-I 667 W/m 17,9 C 25,2 C 25,7 km/h (4 Bft) 100,00 %
09.08.2017 15:36 27,1 C 24,4 C 57 % 1011,3 hPa 0,0 l/m 18,4 km/h (3 Bft) NO 42 2 min 0,000 mm 3,8 UV-I 654 W/m 17,8 C 25,5 C 24,1 km/h (4 Bft) 100,00 %
09.08.2017 15:38 27,1 C 24,4 C 58 % 1011,2 hPa 0,0 l/m 17,8 km/h (3 Bft) N-NO 19 2 min 0,000 mm 3,6 UV-I 634 W/m 18,1 C 25,6 C 24,1 km/h (4 Bft) 96,30 %
09.08.2017 15:40 27,1 C 24,4 C 57 % 1011,2 hPa 0,0 l/m 12,5 km/h (3 Bft) NO 49 2 min 0,000 mm 3,7 UV-I 657 W/m 17,8 C 26,1 C 20,9 km/h (4 Bft) 98,51 %
09.08.2017 15:42 27,2 C 24,4 C 57 % 1011,2 hPa 0,0 l/m 15,8 km/h (3 Bft) N-NO 17 2 min 0,000 mm 3,7 UV-I 654 W/m 17,9 C 25,9 C 25,7 km/h (4 Bft) 89,74 %
09.08.2017 15:44 27,2 C 24,4 C 58 % 1011,1 hPa 0,0 l/m 17,9 km/h (3 Bft) O-NO 65 2 min 0,000 mm 3,6 UV-I 650 W/m 18,2 C 25,7 C 30,6 km/h (5 Bft) 96,43 %
09.08.2017 15:46 27,2 C 24,4 C 56 % 1011,2 hPa 0,0 l/m 19,9 km/h (4 Bft) NO 44 2 min 0,000 mm 3,6 UV-I 646 W/m 17,6 C 25,5 C 25,7 km/h (4 Bft) 95,45 %
09.08.2017 15:48 27,3 C 24,4 C 58 % 1011,2 hPa 0,0 l/m 18,2 km/h (3 Bft) NO 47 2 min 0,000 mm 3,5 UV-I 639 W/m 18,3 C 25,8 C 24,1 km/h (4 Bft) 94,34 %
09.08.2017 15:50 27,3 C 24,4 C 58 % 1011,1 hPa 0,0 l/m 18,3 km/h (3 Bft) O-NO 64 2 min 0,000 mm 3,5 UV-I 635 W/m 18,3 C 25,8 C 25,7 km/h (4 Bft) 95,12 %
09.08.2017 15:52 27,3 C 24,4 C 55 % 1011,1 hPa 0,0 l/m 11,6 km/h (2 Bft) N-NO 24 2 min 0,000 mm 3,4 UV-I 632 W/m 17,4 C 26,5 C 17,7 km/h (3 Bft) 92,68 %
09.08.2017 15:54 27,4 C 24,4 C 57 % 1011,1 hPa 0,0 l/m 15,8 km/h (3 Bft) O-NO 61 2 min 0,000 mm 3,4 UV-I 627 W/m 18,1 C 26,1 C 22,5 km/h (4 Bft) 94,34 %
09.08.2017 15:56 27,3 C 24,4 C 56 % 1011,1 hPa 0,0 l/m 16,2 km/h (3 Bft) N-NO 24 2 min 0,000 mm 3,3 UV-I 625 W/m 17,7 C 26,0 C 24,1 km/h (4 Bft) 96,00 %
09.08.2017 15:58 27,4 C 24,4 C 59 % 1011,1 hPa 0,0 l/m 9,7 km/h (2 Bft) NO 51 2 min 0,000 mm 3,3 UV-I 620 W/m 18,7 C 26,9 C 17,7 km/h (3 Bft) 92,11 %
09.08.2017 16:00 27,6 C 24,4 C 60 % 1011,0 hPa 0,0 l/m 12,3 km/h (3 Bft) NO 38 2 min 0,000 mm 3,2 UV-I 614 W/m 19,1 C 26,7 C 16,1 km/h (3 Bft) 94,64 %
09.08.2017 16:02 27,7 C 24,4 C 57 % 1011,0 hPa 0,0 l/m 16,1 km/h (3 Bft) N-NO 32 2 min 0,533 mm 3,2 UV-I 611 W/m 18,4 C 26,5 C 27,4 km/h (4 Bft) 89,47 %
09.08.2017 16:04 27,7 C 24,4 C 55 % 1011,1 hPa 0,0 l/m 21,8 km/h (4 Bft) O-NO 74 2 min 0,000 mm 3,1 UV-I 605 W/m 17,8 C 26,0 C 30,6 km/h (5 Bft) 96,61 %
09.08.2017 16:06 27,7 C 24,4 C 54 % 1011,1 hPa 0,0 l/m 22,2 km/h (4 Bft) NO 50 2 min 0,000 mm 3,1 UV-I 597 W/m 17,5 C 26,0 C 29,0 km/h (5 Bft) 97,56 %
09.08.2017 16:08 27,7 C 24,4 C 56 % 1011,0 hPa 0,0 l/m 17,1 km/h (3 Bft) NO 47 2 min 0,000 mm 3,1 UV-I 592 W/m 18,1 C 26,4 C 20,9 km/h (4 Bft) 92,45 %
09.08.2017 16:10 27,7 C 24,4 C 55 % 1011,0 hPa 0,0 l/m 20,1 km/h (4 Bft) NO 49 2 min 0,000 mm 3,0 UV-I 590 W/m 17,8 C 26,1 C 29,0 km/h (5 Bft) 95,45 %
09.08.2017 16:12 27,7 C 24,4 C 55 % 1010,9 hPa 0,0 l/m 16,2 km/h (3 Bft) O-NO 59 2 min 0,000 mm 3,0 UV-I 586 W/m 17,8 C 26,5 C 25,7 km/h (4 Bft) 95,74 %
09.08.2017 16:14 27,7 C 24,4 C 55 % 1010,9 hPa 0,0 l/m 19,8 km/h (3 Bft) O-NO 73 2 min 0,000 mm 2,9 UV-I 576 W/m 17,8 C 26,2 C 29,0 km/h (5 Bft) 95,74 %
09.08.2017 16:16 27,7 C 24,4 C 55 % 1010,9 hPa 0,0 l/m 18,1 km/h (3 Bft) O-NO 72 2 min 0,000 mm 2,9 UV-I 570 W/m 17,8 C 26,3 C 29,0 km/h (5 Bft) 98,00 %
09.08.2017 16:18 27,7 C 24,4 C 55 % 1010,9 hPa 0,0 l/m 18,5 km/h (3 Bft) NO 40 2 min 0,000 mm 2,8 UV-I 574 W/m 17,8 C 26,3 C 24,1 km/h (4 Bft) 97,37 %
09.08.2017 16:20 27,8 C 24,4 C 55 % 1010,9 hPa 0,0 l/m 16,1 km/h (3 Bft) NO 50 2 min 0,000 mm 2,8 UV-I 569 W/m 17,9 C 26,6 C 27,4 km/h (4 Bft) 94,34 %
09.08.2017 16:22 27,7 C 24,4 C 55 % 1010,9 hPa 0,0 l/m 21,0 km/h (4 Bft) NO 55 2 min 0,000 mm 2,7 UV-I 561 W/m 17,8 C 26,1 C 27,4 km/h (4 Bft) 96,97 %
09.08.2017 16:24 27,7 C 25,0 C 56 % 1010,8 hPa 0,0 l/m 15,7 km/h (3 Bft) O-NO 63 2 min 0,000 mm 2,7 UV-I 551 W/m 18,1 C 26,5 C 22,5 km/h (4 Bft) 98,11 %
09.08.2017 16:26 27,7 C 25,0 C 56 % 1010,8 hPa 0,0 l/m 15,4 km/h (3 Bft) NO 46 2 min 0,000 mm 2,6 UV-I 524 W/m 18,1 C 26,5 C 24,1 km/h (4 Bft) 98,00 %
09.08.2017 16:28 27,8 C 25,0 C 57 % 1010,8 hPa 0,0 l/m 18,0 km/h (3 Bft) N-NO 27 2 min 0,000 mm 2,6 UV-I 533 W/m 18,5 C 26,4 C 24,1 km/h (4 Bft) 94,34 %
09.08.2017 16:30 27,8 C 25,0 C 56 % 1010,7 hPa 0,0 l/m 16,9 km/h (3 Bft) N-NO 33 2 min 0,000 mm 2,5 UV-I 531 W/m 18,2 C 26,5 C 20,9 km/h (4 Bft) 100,00 %
09.08.2017 16:32 27,8 C 25,0 C 57 % 1010,7 hPa 0,0 l/m 16,5 km/h (3 Bft) NO 38 2 min 0,000 mm 2,5 UV-I 504 W/m 18,5 C 26,6 C 24,1 km/h (4 Bft) 95,12 %
09.08.2017 16:34 27,8 C 25,0 C 58 % 1010,8 hPa 0,0 l/m 13,5 km/h (3 Bft) O-NO 67 2 min 0,000 mm 2,4 UV-I 492 W/m 18,8 C 26,8 C 19,3 km/h (3 Bft) 96,61 %
09.08.2017 16:36 27,8 C 25,0 C 55 % 1010,8 hPa 0,0 l/m 22,3 km/h (4 Bft) O-NO 65 2 min 0,000 mm 2,4 UV-I 531 W/m 17,9 C 26,1 C 33,8 km/h (5 Bft) 97,56 %
09.08.2017 16:38 27,9 C 25,0 C 56 % 1010,7 hPa 0,0 l/m 17,2 km/h (3 Bft) O-NO 63 2 min 0,000 mm 2,3 UV-I 519 W/m 18,3 C 26,6 C 24,1 km/h (4 Bft) 96,23 %
09.08.2017 16:40 27,8 C 25,0 C 55 % 1010,7 hPa 0,0 l/m 20,6 km/h (4 Bft) O-NO 64 2 min 0,000 mm 2,3 UV-I 492 W/m 17,9 C 26,2 C 27,4 km/h (4 Bft) 100,00 %
09.08.2017 16:42 27,8 C 25,0 C 56 % 1010,7 hPa 0,0 l/m 20,5 km/h (4 Bft) N-NO 31 2 min 0,000 mm 2,2 UV-I 492 W/m 18,2 C 26,2 C 30,6 km/h (5 Bft) 100,00 %
09.08.2017 16:44 27,8 C 25,0 C 57 % 1010,6 hPa 0,0 l/m 19,9 km/h (4 Bft) NO 47 2 min 0,000 mm 2,2 UV-I 500 W/m 18,5 C 26,3 C 25,7 km/h (4 Bft) 100,00 %
09.08.2017 16:46 27,9 C 25,0 C 57 % 1010,5 hPa 0,0 l/m 16,6 km/h (3 Bft) O-NO 70 2 min 0,000 mm 2,1 UV-I 481 W/m 18,6 C 26,7 C 27,4 km/h (4 Bft) 100,00 %
09.08.2017 16:48 27,8 C 25,0 C 56 % 1010,5 hPa 0,0 l/m 17,0 km/h (3 Bft) NO 55 2 min 0,000 mm 2,0 UV-I 423 W/m 18,2 C 26,5 C 22,5 km/h (4 Bft) 100,00 %
09.08.2017 16:50 27,8 C 25,0 C 57 % 1010,4 hPa 0,0 l/m 12,7 km/h (3 Bft) O-NO 63 2 min 0,000 mm 2,0 UV-I 440 W/m 18,5 C 26,9 C 19,3 km/h (3 Bft) 98,21 %
09.08.2017 16:52 27,9 C 25,0 C 58 % 1010,5 hPa 0,0 l/m 18,3 km/h (3 Bft) N-NO 24 2 min 0,000 mm 2,0 UV-I 475 W/m 18,9 C 26,5 C 24,1 km/h (4 Bft) 100,00 %
09.08.2017 16:54 27,9 C 25,0 C 58 % 1010,5 hPa 0,0 l/m 15,0 km/h (3 Bft) O-NO 71 2 min 0,000 mm 2,0 UV-I 472 W/m 18,9 C 26,8 C 20,9 km/h (4 Bft) 100,00 %
09.08.2017 16:56 28,1 C 25,0 C 57 % 1010,6 hPa 0,0 l/m 15,6 km/h (3 Bft) O-NO 64 2 min 0,000 mm 2,0 UV-I 467 W/m 18,8 C 27,0 C 25,7 km/h (4 Bft) 100,00 %
09.08.2017 16:58 28,1 C 25,0 C 57 % 1010,5 hPa 0,0 l/m 14,6 km/h (3 Bft) NO 48 2 min 0,000 mm 1,9 UV-I 468 W/m 18,8 C 27,1 C 22,5 km/h (4 Bft) 100,00 %
09.08.2017 17:00 28,2 C 25,0 C 57 % 1010,5 hPa 0,0 l/m 13,8 km/h (3 Bft) NO 47 2 min 0,000 mm 1,9 UV-I 465 W/m 18,9 C 27,3 C 19,3 km/h (3 Bft) 100,00 %
09.08.2017 17:02 28,2 C 25,0 C 57 % 1010,4 hPa 0,0 l/m 14,5 km/h (3 Bft) O 95 2 min 0,457 mm 1,8 UV-I 454 W/m 18,9 C 27,2 C 20,9 km/h (4 Bft) 100,00 %
09.08.2017 17:04 28,2 C 25,0 C 58 % 1010,4 hPa 0,0 l/m 13,7 km/h (3 Bft) NO 44 2 min 0,000 mm 1,8 UV-I 450 W/m 19,1 C 27,3 C 25,7 km/h (4 Bft) 100,00 %
09.08.2017 17:06 28,2 C 25,0 C 56 % 1010,4 hPa 0,0 l/m 19,3 km/h (3 Bft) O-NO 69 2 min 0,000 mm 1,7 UV-I 440 W/m 18,6 C 26,8 C 27,4 km/h (4 Bft) 97,62 %
09.08.2017 17:08 28,1 C 25,0 C 56 % 1010,4 hPa 0,0 l/m 23,2 km/h (4 Bft) O-NO 57 2 min 0,000 mm 1,7 UV-I 438 W/m 18,5 C 26,5 C 30,6 km/h (5 Bft) 96,00 %
09.08.2017 17:10 28,1 C 25,0 C 56 % 1010,4 hPa 0,0 l/m 20,8 km/h (4 Bft) O-NO 59 2 min 0,000 mm 1,7 UV-I 440 W/m 18,5 C 26,6 C 27,4 km/h (4 Bft) 100,00 %
09.08.2017 17:12 28,1 C 25,0 C 57 % 1010,3 hPa 0,0 l/m 16,7 km/h (3 Bft) O 92 2 min 0,000 mm 1,7 UV-I 435 W/m 18,8 C 26,9 C 24,1 km/h (4 Bft) 100,00 %
09.08.2017 17:14 28,1 C 25,0 C 57 % 1010,3 hPa 0,0 l/m 18,0 km/h (3 Bft) O 84 2 min 0,000 mm 1,6 UV-I 427 W/m 18,8 C 26,8 C 24,1 km/h (4 Bft) 100,00 %
09.08.2017 17:16 28,1 C 25,0 C 57 % 1010,3 hPa 0,0 l/m 19,2 km/h (3 Bft) NO 55 2 min 0,000 mm 1,6 UV-I 421 W/m 18,8 C 26,7 C 25,7 km/h (4 Bft) 100,00 %
09.08.2017 17:18 28,1 C 25,0 C 58 % 1010,3 hPa 0,0 l/m 15,7 km/h (3 Bft) O-NO 77 2 min 0,000 mm 1,6 UV-I 416 W/m 19,0 C 27,0 C 20,9 km/h (4 Bft) 100,00 %
09.08.2017 17:20 28,1 C 25,0 C 59 % 1010,3 hPa 0,0 l/m 13,2 km/h (3 Bft) O-NO 78 2 min 0,000 mm 1,5 UV-I 413 W/m 19,3 C 27,2 C 22,5 km/h (4 Bft) 98,00 %
09.08.2017 17:22 28,2 C 25,0 C 58 % 1010,2 hPa 0,0 l/m 18,0 km/h (3 Bft) NO 46 2 min 0,000 mm 1,5 UV-I 407 W/m 19,1 C 26,9 C 29,0 km/h (5 Bft) 100,00 %
09.08.2017 17:24 28,2 C 25,0 C 57 % 1010,3 hPa 0,0 l/m 16,9 km/h (3 Bft) NO 36 2 min 0,000 mm 1,5 UV-I 398 W/m 18,9 C 27,0 C 24,1 km/h (4 Bft) 100,00 %
09.08.2017 17:26 28,2 C 25,0 C 56 % 1010,2 hPa 0,0 l/m 17,9 km/h (3 Bft) O 84 2 min 0,000 mm 1,4 UV-I 396 W/m 18,6 C 26,9 C 24,1 km/h (4 Bft) 100,00 %
09.08.2017 17:28 28,2 C 25,0 C 56 % 1010,3 hPa 0,0 l/m 22,2 km/h (4 Bft) O-NO 67 2 min 0,000 mm 1,4 UV-I 390 W/m 18,6 C 26,7 C 30,6 km/h (5 Bft) 100,00 %
09.08.2017 17:30 28,1 C 25,0 C 57 % 1010,3 hPa 0,0 l/m 20,1 km/h (4 Bft) O-NO 62 2 min 0,000 mm 1,3 UV-I 384 W/m 18,8 C 26,7 C 27,4 km/h (4 Bft) 100,00 %
09.08.2017 17:32 28,1 C 25,0 C 57 % 1010,2 hPa 0,0 l/m 14,2 km/h (3 Bft) NO 34 2 min 0,000 mm 1,3 UV-I 378 W/m 18,8 C 27,1 C 20,9 km/h (4 Bft) 98,51 %
09.08.2017 17:34 28,1 C 25,0 C 58 % 1010,2 hPa 0,0 l/m 16,5 km/h (3 Bft) O 82 2 min 0,000 mm 1,3 UV-I 373 W/m 19,0 C 26,9 C 20,9 km/h (4 Bft) 100,00 %
09.08.2017 17:36 28,2 C 25,0 C 57 % 1010,1 hPa 0,0 l/m 14,0 km/h (3 Bft) O-NO 69 2 min 0,000 mm 1,3 UV-I 367 W/m 18,9 C 27,3 C 25,7 km/h (4 Bft) 98,11 %
09.08.2017 17:38 28,2 C 25,0 C 57 % 1010,1 hPa 0,0 l/m 14,5 km/h (3 Bft) NO 49 2 min 0,000 mm 1,2 UV-I 361 W/m 18,9 C 27,2 C 19,3 km/h (3 Bft) 98,00 %
09.08.2017 17:40 28,2 C 25,0 C 57 % 1010,1 hPa 0,0 l/m 17,0 km/h (3 Bft) O-NO 63 2 min 0,000 mm 1,2 UV-I 349 W/m 18,9 C 27,0 C 24,1 km/h (4 Bft) 97,22 %
09.08.2017 17:42 28,2 C 25,0 C 57 % 1010,1 hPa 0,0 l/m 15,2 km/h (3 Bft) N-NO 23 2 min 0,000 mm 1,2 UV-I 348 W/m 18,9 C 27,2 C 25,7 km/h (4 Bft) 98,00 %
09.08.2017 17:44 28,3 C 25,0 C 58 % 1010,1 hPa 0,0 l/m 11,8 km/h (2 Bft) N-NO 20 2 min 0,000 mm 1,1 UV-I 345 W/m 19,2 C 27,6 C 17,7 km/h (3 Bft) 97,73 %
09.08.2017 17:46 28,3 C 25,0 C 57 % 1010,0 hPa 0,0 l/m 10,9 km/h (2 Bft) NO 46 2 min 0,000 mm 1,1 UV-I 338 W/m 18,9 C 27,7 C 16,1 km/h (3 Bft) 98,11 %
09.08.2017 17:48 28,3 C 25,0 C 58 % 1010,1 hPa 0,0 l/m 13,9 km/h (3 Bft) NO 39 2 min 0,000 mm 1,1 UV-I 331 W/m 19,2 C 27,4 C 19,3 km/h (3 Bft) 98,00 %
09.08.2017 17:50 28,3 C 25,0 C 57 % 1010,1 hPa 0,0 l/m 8,0 km/h (2 Bft) NO 40 2 min 0,000 mm 1,0 UV-I 326 W/m 18,9 C 28,1 C 12,9 km/h (3 Bft) 95,12 %
09.08.2017 17:53 28,3 C 25,0 C 57 % 1010,0 hPa 0,0 l/m 14,0 km/h (3 Bft) NO 42 3 min 0,000 mm 1,0 UV-I 318 W/m 18,9 C 27,4 C 19,3 km/h (3 Bft) 97,37 %
09.08.2017 17:54 28,3 C 25,0 C 57 % 1010,0 hPa 0,0 l/m 12,2 km/h (2 Bft) O-NO 63 1 min 0,000 mm 1,0 UV-I 313 W/m 18,9 C 27,6 C 17,7 km/h (3 Bft) 91,67 %
09.08.2017 17:56 28,3 C 25,0 C 58 % 1010,0 hPa 0,0 l/m 14,4 km/h (3 Bft) NO 50 2 min 0,000 mm 0,9 UV-I 309 W/m 19,2 C 27,4 C 24,1 km/h (4 Bft) 98,11 %
09.08.2017 17:58 28,3 C 25,0 C 57 % 1010,1 hPa 0,0 l/m 10,7 km/h (2 Bft) O-NO 65 2 min 0,000 mm 0,9 UV-I 304 W/m 18,9 C 27,7 C 16,1 km/h (3 Bft) 97,56 %
09.08.2017 18:00 28,3 C 25,0 C 59 % 1010,1 hPa 0,0 l/m 15,6 km/h (3 Bft) NO 52 2 min 0,000 mm 0,9 UV-I 296 W/m 19,5 C 27,3 C 24,1 km/h (4 Bft) 98,31 %
09.08.2017 18:03 28,3 C 25,0 C 58 % 1010,0 hPa 0,0 l/m 14,8 km/h (3 Bft) NO 46 3 min 0,356 mm 0,9 UV-I 291 W/m 19,2 C 27,3 C 22,5 km/h (4 Bft) 97,06 %
09.08.2017 18:04 28,3 C 25,0 C 59 % 1010,0 hPa 0,0 l/m 10,5 km/h (2 Bft) NO 34 1 min 0,000 mm 0,8 UV-I 287 W/m 19,5 C 27,8 C 14,5 km/h (3 Bft) 100,00 %
09.08.2017 18:06 28,2 C 25,0 C 59 % 1010,0 hPa 0,0 l/m 10,9 km/h (2 Bft) N-NO 12 2 min 0,000 mm 0,8 UV-I 284 W/m 19,4 C 27,6 C 14,5 km/h (3 Bft) 95,45 %
09.08.2017 18:08 28,2 C 25,0 C 58 % 1010,0 hPa 0,0 l/m 13,0 km/h (3 Bft) NO 43 2 min 0,000 mm 0,8 UV-I 277 W/m 19,1 C 27,4 C 17,7 km/h (3 Bft) 97,37 %
09.08.2017 18:10 28,2 C 25,0 C 58 % 1009,9 hPa 0,0 l/m 10,5 km/h (2 Bft) NO 42 2 min 0,000 mm 0,8 UV-I 272 W/m 19,1 C 27,6 C 16,1 km/h (3 Bft) 100,00 %
09.08.2017 18:12 28,2 C 25,0 C 59 % 1009,9 hPa 0,0 l/m 10,7 km/h (2 Bft) O-NO 69 2 min 0,000 mm 0,7 UV-I 267 W/m 19,4 C 27,6 C 16,1 km/h (3 Bft) 100,00 %
09.08.2017 18:14 28,2 C 25,0 C 60 % 1009,9 hPa 0,0 l/m 9,6 km/h (2 Bft) NO 36 2 min 0,000 mm 0,7 UV-I 262 W/m 19,7 C 27,7 C 17,7 km/h (3 Bft) 100,00 %
09.08.2017 18:16 28,2 C 25,0 C 59 % 1009,9 hPa 0,0 l/m 11,6 km/h (2 Bft) NO 54 2 min 0,000 mm 0,7 UV-I 256 W/m 19,4 C 27,5 C 19,3 km/h (3 Bft) 100,00 %
09.08.2017 18:18 28,2 C 25,0 C 58 % 1010,0 hPa 0,0 l/m 12,2 km/h (2 Bft) NO 37 2 min 0,000 mm 0,7 UV-I 252 W/m 19,1 C 27,5 C 19,3 km/h (3 Bft) 100,00 %
09.08.2017 18:20 28,2 C 25,0 C 58 % 1009,9 hPa 0,0 l/m 10,7 km/h (2 Bft) O-NO 67 2 min 0,000 mm 0,6 UV-I 247 W/m 19,1 C 27,6 C 14,5 km/h (3 Bft) 100,00 %
09.08.2017 18:22 28,2 C 25,0 C 59 % 1009,8 hPa 0,0 l/m 10,0 km/h (2 Bft) O-NO 74 2 min 0,000 mm 0,6 UV-I 239 W/m 19,4 C 27,7 C 16,1 km/h (3 Bft) 100,00 %
09.08.2017 18:24 28,2 C 25,0 C 59 % 1009,8 hPa 0,0 l/m 9,9 km/h (2 Bft) O-NO 66 2 min 0,000 mm 0,6 UV-I 230 W/m 19,4 C 27,7 C 14,5 km/h (3 Bft) 100,00 %
09.08.2017 18:26 28,3 C 25,0 C 59 % 1009,7 hPa 0,0 l/m 8,1 km/h (2 Bft) O-NO 57 2 min 0,000 mm 0,6 UV-I 225 W/m 19,5 C 28,1 C 12,9 km/h (3 Bft) 100,00 %
09.08.2017 18:28 28,2 C 25,0 C 59 % 1009,8 hPa 0,0 l/m 9,9 km/h (2 Bft) O-NO 61 2 min 0,000 mm 0,5 UV-I 219 W/m 19,4 C 27,7 C 16,1 km/h (3 Bft) 100,00 %
09.08.2017 18:30 28,2 C 25,0 C 59 % 1009,8 hPa 0,0 l/m 7,4 km/h (2 Bft) NO 55 2 min 0,000 mm 0,5 UV-I 191 W/m 19,4 C 28,0 C 11,3 km/h (2 Bft) 100,00 %
09.08.2017 18:32 28,2 C 25,0 C 61 % 1009,7 hPa 0,0 l/m 5,2 km/h (1 Bft) O-NO 65 0 min 0,000 mm 0,5 UV-I 149 W/m 19,9 C 28,2 C 9,7 km/h (2 Bft) 100,00 %
09.08.2017 18:34 28,1 C 25,0 C 60 % 1009,7 hPa 0,0 l/m 8,8 km/h (2 Bft) O 80 0 min 0,000 mm 0,5 UV-I 132 W/m 19,6 C 27,7 C 14,5 km/h (3 Bft) 100,00 %
09.08.2017 18:36 28,0 C 25,0 C 59 % 1009,7 hPa 0,0 l/m 10,4 km/h (2 Bft) O-NO 73 0 min 0,000 mm 0,2 UV-I 139 W/m 19,2 C 27,4 C 14,5 km/h (3 Bft) 98,31 %
09.08.2017 18:38 27,9 C 25,0 C 60 % 1009,7 hPa 0,0 l/m 9,0 km/h (2 Bft) O-NO 58 2 min 0,000 mm 0,0 UV-I 157 W/m 19,4 C 27,5 C 14,5 km/h (3 Bft) 100,00 %
09.08.2017 18:40 27,9 C 25,0 C 61 % 1009,7 hPa 0,0 l/m 6,7 km/h (2 Bft) O-NO 63 2 min 0,000 mm 0,0 UV-I 158 W/m 19,7 C 27,9 C 9,7 km/h (2 Bft) 94,74 %
09.08.2017 18:42 27,9 C 25,0 C 61 % 1009,7 hPa 0,0 l/m 5,6 km/h (1 Bft) N-NO 31 2 min 0,000 mm 0,0 UV-I 167 W/m 19,7 C 27,9 C 9,7 km/h (2 Bft) 100,00 %
09.08.2017 18:44 27,9 C 25,0 C 61 % 1009,6 hPa 0,0 l/m 7,1 km/h (2 Bft) NO 53 0 min 0,000 mm 0,0 UV-I 145 W/m 19,7 C 27,8 C 9,7 km/h (2 Bft) 100,00 %
09.08.2017 18:46 27,9 C 25,0 C 61 % 1009,6 hPa 0,0 l/m 5,4 km/h (1 Bft) NO 49 0 min 0,000 mm 0,0 UV-I 136 W/m 19,7 C 27,9 C 8,0 km/h (2 Bft) 100,00 %
09.08.2017 18:48 27,9 C 25,0 C 62 % 1009,6 hPa 0,0 l/m 5,9 km/h (2 Bft) NO 43 0 min 0,000 mm 0,0 UV-I 97 W/m 19,9 C 27,9 C 9,7 km/h (2 Bft) 100,00 %
09.08.2017 18:50 27,8 C 25,0 C 61 % 1009,7 hPa 0,0 l/m 6,7 km/h (2 Bft) O-NO 64 0 min 0,000 mm 0,0 UV-I 83 W/m 19,6 C 27,8 C 9,7 km/h (2 Bft) 97,37 %
09.08.2017 18:52 27,7 C 25,0 C 61 % 1009,7 hPa 0,0 l/m 7,8 km/h (2 Bft) O 80 0 min 0,000 mm 0,0 UV-I 89 W/m 19,5 C 27,5 C 16,1 km/h (3 Bft) 100,00 %
09.08.2017 18:54 27,6 C 25,0 C 61 % 1009,7 hPa 0,0 l/m 6,6 km/h (2 Bft) O-NO 57 0 min 0,000 mm 0,0 UV-I 81 W/m 19,4 C 27,6 C 11,3 km/h (2 Bft) 100,00 %
09.08.2017 18:56 27,6 C 25,0 C 63 % 1009,7 hPa 0,0 l/m 5,2 km/h (1 Bft) NO 44 0 min 0,000 mm 0,0 UV-I 100 W/m 19,9 C 27,6 C 8,0 km/h (2 Bft) 100,00 %
09.08.2017 18:58 27,4 C 25,0 C 61 % 1009,6 hPa 0,0 l/m 5,4 km/h (1 Bft) NO 53 0 min 0,000 mm 0,0 UV-I 111 W/m 19,2 C 27,4 C 8,0 km/h (2 Bft) 100,00 %
09.08.2017 19:00 27,3 C 25,0 C 63 % 1009,6 hPa 0,0 l/m 2,9 km/h (1 Bft) N-NO 19 0 min 0,000 mm 0,0 UV-I 117 W/m 19,6 C 27,3 C 6,4 km/h (2 Bft) 97,87 %
09.08.2017 19:02 27,3 C 25,0 C 64 % 1009,6 hPa 0,0 l/m 0,7 km/h (0 Bft) N-NO 19 0 min 0,178 mm 0,0 UV-I 119 W/m 19,9 C 27,3 C 3,2 km/h (1 Bft) 98,08 %
09.08.2017 19:04 27,3 C 25,0 C 63 % 1009,7 hPa 0,0 l/m 4,0 km/h (1 Bft) N 355 0 min 0,000 mm 0,0 UV-I 106 W/m 19,6 C 27,3 C 8,0 km/h (2 Bft) 97,22 %
09.08.2017 19:06 27,3 C 25,0 C 63 % 1009,7 hPa 0,0 l/m 4,2 km/h (1 Bft) NO 36 0 min 0,000 mm 0,0 UV-I 84 W/m 19,6 C 27,3 C 9,7 km/h (2 Bft) 100,00 %
09.08.2017 19:08 27,3 C 25,0 C 62 % 1009,7 hPa 0,0 l/m 7,6 km/h (2 Bft) O-NO 67 0 min 0,000 mm 0,0 UV-I 90 W/m 19,4 C 27,1 C 12,9 km/h (3 Bft) 100,00 %
09.08.2017 19:10 27,3 C 25,0 C 62 % 1009,7 hPa 0,0 l/m 6,2 km/h (2 Bft) O-NO 63 0 min 0,000 mm 0,0 UV-I 98 W/m 19,4 C 27,3 C 9,7 km/h (2 Bft) 100,00 %
09.08.2017 19:12 27,3 C 25,0 C 62 % 1009,7 hPa 0,0 l/m 6,3 km/h (2 Bft) NO 50 0 min 0,000 mm 0,0 UV-I 72 W/m 19,4 C 27,3 C 9,7 km/h (2 Bft) 100,00 %
09.08.2017 19:14 27,3 C 25,0 C 62 % 1009,7 hPa 0,0 l/m 5,6 km/h (1 Bft) NO 53 0 min 0,000 mm 0,0 UV-I 47 W/m 19,4 C 27,3 C 8,0 km/h (2 Bft) 100,00 %
09.08.2017 19:16 27,3 C 25,0 C 62 % 1009,7 hPa 0,0 l/m 7,9 km/h (2 Bft) NO 46 0 min 0,000 mm 0,0 UV-I 50 W/m 19,4 C 27,0 C 11,3 km/h (2 Bft) 97,87 %
09.08.2017 19:18 27,2 C 25,0 C 63 % 1009,7 hPa 0,0 l/m 4,0 km/h (1 Bft) NO 42 0 min 0,000 mm 0,0 UV-I 53 W/m 19,5 C 27,2 C 8,0 km/h (2 Bft) 93,62 %
09.08.2017 19:20 27,0 C 25,0 C 64 % 1009,7 hPa 0,0 l/m 3,7 km/h (1 Bft) NO 50 0 min 0,000 mm 0,0 UV-I 47 W/m 19,6 C 27,0 C 6,4 km/h (2 Bft) 100,00 %
09.08.2017 19:22 26,9 C 25,0 C 65 % 1009,7 hPa 0,0 l/m 3,1 km/h (1 Bft) O-NO 63 0 min 0,000 mm 0,0 UV-I 44 W/m 19,7 C 26,9 C 4,8 km/h (1 Bft) 94,64 %
09.08.2017 19:24 26,8 C 25,0 C 65 % 1009,7 hPa 0,0 l/m 2,1 km/h (1 Bft) O-NO 63 0 min 0,000 mm 0,0 UV-I 39 W/m 19,7 C 26,8 C 4,8 km/h (1 Bft) 97,87 %
09.08.2017 19:26 26,7 C 25,0 C 66 % 1009,6 hPa 0,0 l/m 2,9 km/h (1 Bft) O-NO 63 0 min 0,000 mm 0,0 UV-I 38 W/m 19,8 C 26,7 C 4,8 km/h (1 Bft) 95,12 %
09.08.2017 19:28 26,6 C 25,0 C 66 % 1009,5 hPa 0,0 l/m 2,1 km/h (1 Bft) O-NO 63 0 min 0,000 mm 0,0 UV-I 37 W/m 19,7 C 26,6 C 4,8 km/h (1 Bft) 95,12 %
09.08.2017 19:30 26,4 C 25,0 C 66 % 1009,7 hPa 0,0 l/m 2,3 km/h (1 Bft) O-NO 63 0 min 0,000 mm 0,0 UV-I 41 W/m 19,5 C 26,4 C 4,8 km/h (1 Bft) 96,23 %
09.08.2017 19:32 26,4 C 25,0 C 66 % 1009,7 hPa 0,0 l/m 2,6 km/h (1 Bft) O-NO 63 0 min 0,000 mm 0,0 UV-I 40 W/m 19,5 C 26,4 C 3,2 km/h (1 Bft) 94,87 %
09.08.2017 19:34 26,3 C 25,0 C 67 % 1009,7 hPa 0,0 l/m 3,1 km/h (1 Bft) O-NO 63 0 min 0,000 mm 0,0 UV-I 38 W/m 19,7 C 26,3 C 4,8 km/h (1 Bft) 96,36 %
09.08.2017 19:36 26,2 C 25,0 C 67 % 1009,7 hPa 0,0 l/m 2,9 km/h (1 Bft) O-NO 63 0 min 0,000 mm 0,0 UV-I 33 W/m 19,6 C 26,2 C 3,2 km/h (1 Bft) 91,49 %
09.08.2017 19:38 26,2 C 25,0 C 68 % 1009,6 hPa 0,0 l/m 2,9 km/h (1 Bft) O-NO 63 0 min 0,000 mm 0,0 UV-I 29 W/m 19,8 C 26,2 C 4,8 km/h (1 Bft) 94,87 %
09.08.2017 19:40 26,1 C 25,0 C 68 % 1009,5 hPa 0,0 l/m 2,6 km/h (1 Bft) NO 42 0 min 0,000 mm 0,0 UV-I 26 W/m 19,7 C 26,1 C 3,2 km/h (1 Bft) 97,37 %
09.08.2017 19:42 25,8 C 25,0 C 69 % 1009,5 hPa 0,0 l/m 3,3 km/h (1 Bft) NO 41 0 min 0,000 mm 0,0 UV-I 25 W/m 19,7 C 25,8 C 6,4 km/h (2 Bft) 93,85 %
09.08.2017 19:44 25,7 C 25,0 C 69 % 1009,5 hPa 0,0 l/m 4,6 km/h (1 Bft) N-NO 24 0 min 0,000 mm 0,0 UV-I 23 W/m 19,6 C 25,7 C 8,0 km/h (2 Bft) 95,74 %
09.08.2017 19:46 25,6 C 25,0 C 70 % 1009,5 hPa 0,0 l/m 3,8 km/h (1 Bft) N-NO 24 0 min 0,000 mm 0,0 UV-I 24 W/m 19,7 C 25,6 C 4,8 km/h (1 Bft) 96,00 %
09.08.2017 19:48 25,4 C 25,0 C 69 % 1009,5 hPa 0,0 l/m 3,0 km/h (1 Bft) N-NO 24 0 min 0,000 mm 0,0 UV-I 25 W/m 19,3 C 25,4 C 4,8 km/h (1 Bft) 93,62 %
09.08.2017 19:50 25,5 C 25,0 C 69 % 1009,4 hPa 0,0 l/m 3,1 km/h (1 Bft) N-NO 24 0 min 0,000 mm 0,0 UV-I 25 W/m 19,4 C 25,5 C 4,8 km/h (1 Bft) 91,49 %
09.08.2017 19:52 25,4 C 25,0 C 70 % 1009,4 hPa 0,0 l/m 2,8 km/h (1 Bft) N-NO 24 0 min 0,000 mm 0,0 UV-I 24 W/m 19,5 C 25,4 C 4,8 km/h (1 Bft) 95,74 %
09.08.2017 19:54 25,4 C 25,0 C 70 % 1009,3 hPa 0,0 l/m 3,1 km/h (1 Bft) N-NO 24 0 min 0,000 mm 0,0 UV-I 22 W/m 19,5 C 25,4 C 4,8 km/h (1 Bft) 92,11 %
09.08.2017 19:56 25,4 C 25,0 C 70 % 1009,3 hPa 0,0 l/m 3,3 km/h (1 Bft) N-NO 24 0 min 0,000 mm 0,0 UV-I 19 W/m 19,5 C 25,4 C 4,8 km/h (1 Bft) 94,00 %
09.08.2017 19:58 25,3 C 25,0 C 70 % 1009,4 hPa 0,0 l/m 3,5 km/h (1 Bft) N-NO 24 0 min 0,000 mm 0,0 UV-I 18 W/m 19,4 C 25,3 C 4,8 km/h (1 Bft) 95,74 %
09.08.2017 20:00 25,2 C 25,0 C 72 % 1009,4 hPa 0,0 l/m 2,3 km/h (1 Bft) N-NO 24 0 min 0,000 mm 0,0 UV-I 16 W/m 19,8 C 25,2 C 3,2 km/h (1 Bft) 97,37 %
09.08.2017 20:02 25,1 C 25,0 C 73 % 1009,4 hPa 0,0 l/m 2,8 km/h (1 Bft) N-NO 24 0 min 0,051 mm 0,0 UV-I 14 W/m 19,9 C 25,1 C 3,2 km/h (1 Bft) 98,11 %
09.08.2017 20:04 24,9 C 25,0 C 73 % 1009,4 hPa 0,0 l/m 3,6 km/h (1 Bft) N-NO 28 0 min 0,000 mm 0,0 UV-I 14 W/m 19,7 C 24,9 C 4,8 km/h (1 Bft) 96,00 %
09.08.2017 20:06 24,8 C 25,0 C 73 % 1009,4 hPa 0,0 l/m 4,2 km/h (1 Bft) O-NO 69 0 min 0,000 mm 0,0 UV-I 13 W/m 19,6 C 24,8 C 6,4 km/h (2 Bft) 96,00 %
09.08.2017 20:08 24,8 C 25,0 C 74 % 1009,4 hPa 0,0 l/m 4,0 km/h (1 Bft) O-NO 69 0 min 0,000 mm 0,0 UV-I 12 W/m 19,8 C 24,8 C 6,4 km/h (2 Bft) 97,37 %
09.08.2017 20:10 24,7 C 25,0 C 73 % 1009,4 hPa 0,0 l/m 5,2 km/h (1 Bft) O-NO 68 0 min 0,000 mm 0,0 UV-I 11 W/m 19,5 C 24,7 C 8,0 km/h (2 Bft) 98,21 %
09.08.2017 20:12 24,8 C 25,0 C 73 % 1009,4 hPa 0,0 l/m 4,3 km/h (1 Bft) O-NO 69 0 min 0,000 mm 0,0 UV-I 11 W/m 19,6 C 24,8 C 8,0 km/h (2 Bft) 97,87 %
09.08.2017 20:14 24,9 C 25,0 C 73 % 1009,4 hPa 0,0 l/m 3,7 km/h (1 Bft) O-NO 69 0 min 0,000 mm 0,0 UV-I 10 W/m 19,7 C 24,9 C 6,4 km/h (2 Bft) 95,83 %
09.08.2017 20:16 24,9 C 25,0 C 72 % 1009,4 hPa 0,0 l/m 4,4 km/h (1 Bft) O-NO 69 2 min 0,000 mm 0,0 UV-I 9 W/m 19,5 C 24,9 C 6,4 km/h (2 Bft) 96,92 %
09.08.2017 20:18 24,9 C 25,0 C 71 % 1009,5 hPa 0,0 l/m 3,3 km/h (1 Bft) O-NO 69 0 min 0,000 mm 0,0 UV-I 9 W/m 19,3 C 24,9 C 4,8 km/h (1 Bft) 98,00 %
09.08.2017 20:20 25,1 C 25,0 C 71 % 1009,5 hPa 0,0 l/m 3,4 km/h (1 Bft) O-NO 69 0 min 0,000 mm 0,0 UV-I 8 W/m 19,5 C 25,1 C 4,8 km/h (1 Bft) 98,00 %
09.08.2017 20:22 25,1 C 25,0 C 72 % 1009,5 hPa 0,0 l/m 0,9 km/h (0 Bft) O-NO 69 0 min 0,000 mm 0,0 UV-I 7 W/m 19,7 C 25,1 C 3,2 km/h (1 Bft) 97,37 %
09.08.2017 20:24 24,9 C 25,0 C 73 % 1009,5 hPa 0,0 l/m 1,0 km/h (0 Bft) O-NO 69 0 min 0,000 mm 0,0 UV-I 7 W/m 19,7 C 24,9 C 3,2 km/h (1 Bft) 98,00 %
09.08.2017 20:26 24,8 C 25,0 C 74 % 1009,5 hPa 0,0 l/m 3,4 km/h (1 Bft) O-NO 69 0 min 0,000 mm 0,0 UV-I 7 W/m 19,8 C 24,8 C 4,8 km/h (1 Bft) 97,56 %
09.08.2017 20:28 24,6 C 25,0 C 74 % 1009,7 hPa 0,0 l/m 3,4 km/h (1 Bft) O-NO 69 0 min 0,000 mm 0,0 UV-I 5 W/m 19,6 C 24,6 C 4,8 km/h (1 Bft) 100,00 %
09.08.2017 20:30 24,4 C 25,0 C 75 % 1009,8 hPa 0,0 l/m 1,5 km/h (1 Bft) O-NO 69 0 min 0,000 mm 0,0 UV-I 5 W/m 19,7 C 24,4 C 3,2 km/h (1 Bft) 100,00 %
09.08.2017 20:32 24,3 C 25,0 C 75 % 1009,8 hPa 0,0 l/m 0,0 km/h (0 Bft) O-NO 69 0 min 0,000 mm 0,0 UV-I 5 W/m 19,6 C 24,3 C 0,0 km/h (0 Bft) 100,00 %
09.08.2017 20:34 24,3 C 25,0 C 76 % 1009,8 hPa 0,0 l/m 0,0 km/h (0 Bft) O-NO 69 0 min 0,000 mm 0,0 UV-I 5 W/m 19,8 C 24,3 C 0,0 km/h (0 Bft) 100,00 %
09.08.2017 20:36 24,2 C 25,0 C 76 % 1009,9 hPa 0,0 l/m 0,0 km/h (0 Bft) O-NO 69 0 min 0,000 mm 0,0 UV-I 5 W/m 19,7 C 24,2 C 1,6 km/h (1 Bft) 100,00 %
09.08.2017 20:38 24,1 C 25,0 C 77 % 1009,9 hPa 0,0 l/m 0,0 km/h (0 Bft) O-NO 69 0 min 0,000 mm 0,0 UV-I 5 W/m 19,8 C 24,1 C 0,0 km/h (0 Bft) 100,00 %
09.08.2017 20:40 23,9 C 25,0 C 77 % 1010,0 hPa 0,0 l/m 3,4 km/h (1 Bft) O-NO 69 0 min 0,000 mm 0,0 UV-I 2 W/m 19,6 C 23,9 C 4,8 km/h (1 Bft) 98,11 %
09.08.2017 20:42 23,8 C 25,0 C 78 % 1010,0 hPa 0,0 l/m 4,3 km/h (1 Bft) O-NO 69 0 min 0,000 mm 0,0 UV-I 0 W/m 19,7 C 23,8 C 4,8 km/h (1 Bft) 100,00 %
09.08.2017 20:44 23,7 C 25,0 C 79 % 1009,9 hPa 0,0 l/m 3,2 km/h (1 Bft) O-NO 70 0 min 0,000 mm 0,0 UV-I 0 W/m 19,8 C 23,7 C 4,8 km/h (1 Bft) 100,00 %
09.08.2017 20:46 23,6 C 25,0 C 79 % 1009,9 hPa 0,0 l/m 2,8 km/h (1 Bft) O-NO 70 0 min 0,000 mm 0,0 UV-I 0 W/m 19,7 C 23,6 C 3,2 km/h (1 Bft) 97,87 %
09.08.2017 20:48 23,5 C 25,0 C 79 % 1009,9 hPa 0,0 l/m 1,4 km/h (1 Bft) O-NO 70 0 min 0,000 mm 0,0 UV-I 0 W/m 19,6 C 23,5 C 3,2 km/h (1 Bft) 100,00 %
09.08.2017 20:50 23,4 C 25,0 C 80 % 1010,0 hPa 0,0 l/m 0,8 km/h (0 Bft) O-NO 70 0 min 0,000 mm 0,0 UV-I 0 W/m 19,7 C 23,4 C 3,2 km/h (1 Bft) 100,00 %
09.08.2017 20:52 23,2 C 25,0 C 80 % 1010,0 hPa 0,0 l/m 1,6 km/h (1 Bft) O-NO 70 0 min 0,000 mm 0,0 UV-I 0 W/m 19,6 C 23,2 C 3,2 km/h (1 Bft) 97,44 %
09.08.2017 20:54 23,1 C 25,0 C 81 % 1009,9 hPa 0,0 l/m 1,2 km/h (1 Bft) O-NO 70 0 min 0,000 mm 0,0 UV-I 0 W/m 19,7 C 23,1 C 3,2 km/h (1 Bft) 100,00 %
09.08.2017 20:56 23,1 C 25,0 C 81 % 1010,0 hPa 0,0 l/m 1,2 km/h (1 Bft) O-NO 70 0 min 0,000 mm 0,0 UV-I 0 W/m 19,7 C 23,1 C 3,2 km/h (1 Bft) 100,00 %
09.08.2017 20:58 23,0 C 25,0 C 81 % 1010,0 hPa 0,0 l/m 0,5 km/h (0 Bft) O-NO 70 0 min 0,000 mm 0,0 UV-I 0 W/m 19,6 C 23,0 C 3,2 km/h (1 Bft) 100,00 %
09.08.2017 21:01 22,9 C 25,0 C 82 % 1010,0 hPa 0,0 l/m 0,0 km/h (0 Bft) O-NO 70 0 min 0,025 mm 0,0 UV-I 0 W/m 19,7 C 22,9 C 0,0 km/h (0 Bft) 100,00 %
09.08.2017 21:02 22,8 C 25,0 C 82 % 1010,0 hPa 0,0 l/m 0,0 km/h (0 Bft) O-NO 70 0 min 0,000 mm 0,0 UV-I 0 W/m 19,6 C 22,8 C 0,0 km/h (0 Bft) 100,00 %
09.08.2017 21:04 22,8 C 25,0 C 82 % 1010,0 hPa 0,0 l/m 0,0 km/h (0 Bft) O-NO 70 0 min 0,000 mm 0,0 UV-I 0 W/m 19,6 C 22,8 C 0,0 km/h (0 Bft) 100,00 %
09.08.2017 21:06 22,6 C 25,0 C 82 % 1010,1 hPa 0,0 l/m 0,0 km/h (0 Bft) O-NO 70 0 min 0,000 mm 0,0 UV-I 0 W/m 19,4 C 22,6 C 0,0 km/h (0 Bft) 100,00 %
09.08.2017 21:08 22,6 C 25,0 C 82 % 1010,1 hPa 0,0 l/m 0,0 km/h (0 Bft) O-NO 70 0 min 0,000 mm 0,0 UV-I 0 W/m 19,4 C 22,6 C 0,0 km/h (0 Bft) 100,00 %
09.08.2017 21:10 22,6 C 25,0 C 82 % 1010,0 hPa 0,0 l/m 0,0 km/h (0 Bft) O-NO 70 0 min 0,000 mm 0,0 UV-I 0 W/m 19,4 C 22,6 C 0,0 km/h (0 Bft) 97,14 %
09.08.2017 21:12 22,6 C 25,0 C 82 % 1010,0 hPa 0,0 l/m 0,0 km/h (0 Bft) O-NO 70 0 min 0,000 mm 0,0 UV-I 0 W/m 19,4 C 22,6 C 0,0 km/h (0 Bft) 100,00 %
09.08.2017 21:14 22,6 C 25,0 C 82 % 1010,1 hPa 0,0 l/m 0,7 km/h (0 Bft) O-NO 70 0 min 0,000 mm 0,0 UV-I 0 W/m 19,4 C 22,6 C 3,2 km/h (1 Bft) 97,87 %
09.08.2017 21:16 22,6 C 25,0 C 82 % 1010,1 hPa 0,0 l/m 0,6 km/h (0 Bft) O-NO 70 0 min 0,000 mm 0,0 UV-I 0 W/m 19,4 C 22,6 C 1,6 km/h (1 Bft) 100,00 %
09.08.2017 21:18 22,6 C 25,0 C 82 % 1010,1 hPa 0,0 l/m 1,1 km/h (1 Bft) O-NO 70 0 min 0,000 mm 0,0 UV-I 0 W/m 19,4 C 22,6 C 3,2 km/h (1 Bft) 97,56 %
09.08.2017 21:20 22,6 C 25,0 C 82 % 1010,1 hPa 0,0 l/m 3,2 km/h (1 Bft) S 188 0 min 0,000 mm 0,0 UV-I 0 W/m 19,4 C 22,6 C 6,4 km/h (2 Bft) 100,00 %
09.08.2017 21:22 22,6 C 25,0 C 82 % 1010,1 hPa 0,0 l/m 5,5 km/h (1 Bft) S-SW 205 0 min 0,000 mm 0,0 UV-I 0 W/m 19,4 C 22,6 C 8,0 km/h (2 Bft) 97,87 %
09.08.2017 21:24 22,6 C 25,0 C 82 % 1010,1 hPa 0,0 l/m 4,1 km/h (1 Bft) S-SW 205 0 min 0,000 mm 0,0 UV-I 0 W/m 19,4 C 22,6 C 8,0 km/h (2 Bft) 98,00 %
09.08.2017 21:26 22,5 C 25,0 C 83 % 1010,2 hPa 0,0 l/m 3,0 km/h (1 Bft) S 175 0 min 0,000 mm 0,0 UV-I 0 W/m 19,5 C 22,5 C 4,8 km/h (1 Bft) 97,73 %
09.08.2017 21:28 22,4 C 25,0 C 83 % 1010,2 hPa 0,0 l/m 4,0 km/h (1 Bft) S 184 0 min 0,000 mm 0,0 UV-I 0 W/m 19,4 C 22,4 C 8,0 km/h (2 Bft) 97,56 %
09.08.2017 21:30 22,4 C 25,0 C 83 % 1010,2 hPa 0,0 l/m 3,8 km/h (1 Bft) S 185 0 min 0,000 mm 0,0 UV-I 0 W/m 19,4 C 22,4 C 6,4 km/h (2 Bft) 98,00 %
09.08.2017 21:32 22,3 C 25,0 C 83 % 1010,3 hPa 0,0 l/m 3,0 km/h (1 Bft) S 185 0 min 0,000 mm 0,0 UV-I 0 W/m 19,3 C 22,3 C 4,8 km/h (1 Bft) 96,23 %
09.08.2017 21:34 22,3 C 25,0 C 84 % 1010,3 hPa 0,0 l/m 4,4 km/h (1 Bft) S 184 0 min 0,000 mm 0,0 UV-I 0 W/m 19,5 C 22,3 C 8,0 km/h (2 Bft) 97,44 %
09.08.2017 21:36 22,3 C 25,0 C 84 % 1010,3 hPa 0,0 l/m 5,5 km/h (1 Bft) S-SW 207 0 min 0,000 mm 0,0 UV-I 0 W/m 19,5 C 22,3 C 8,0 km/h (2 Bft) 97,87 %
09.08.2017 21:38 22,3 C 25,0 C 84 % 1010,3 hPa 0,0 l/m 5,7 km/h (1 Bft) S-SW 209 0 min 0,000 mm 0,0 UV-I 0 W/m 19,5 C 22,3 C 8,0 km/h (2 Bft) 95,12 %
09.08.2017 21:40 22,3 C 25,0 C 84 % 1010,4 hPa 0,0 l/m 5,7 km/h (1 Bft) SW 221 0 min 0,000 mm 0,0 UV-I 0 W/m 19,5 C 22,3 C 8,0 km/h (2 Bft) 96,43 %
09.08.2017 21:42 22,3 C 25,0 C 84 % 1010,5 hPa 0,0 l/m 7,8 km/h (2 Bft) S-SW 211 0 min 0,000 mm 0,0 UV-I 0 W/m 19,5 C 21,8 C 9,7 km/h (2 Bft) 98,00 %
09.08.2017 21:44 22,3 C 25,0 C 84 % 1010,5 hPa 0,0 l/m 7,6 km/h (2 Bft) S-SW 193 0 min 0,000 mm 0,0 UV-I 0 W/m 19,5 C 21,9 C 9,7 km/h (2 Bft) 95,45 %
09.08.2017 21:46 22,3 C 24,4 C 84 % 1010,5 hPa 0,0 l/m 6,6 km/h (2 Bft) SW 221 0 min 0,000 mm 0,0 UV-I 0 W/m 19,5 C 22,2 C 11,3 km/h (2 Bft) 98,00 %
09.08.2017 21:48 22,3 C 24,4 C 84 % 1010,5 hPa 0,0 l/m 6,1 km/h (2 Bft) SW 220 0 min 0,000 mm 0,0 UV-I 0 W/m 19,5 C 22,3 C 8,0 km/h (2 Bft) 97,14 %
09.08.2017 21:50 22,3 C 25,0 C 84 % 1010,4 hPa 0,0 l/m 6,7 km/h (2 Bft) S-SW 200 0 min 0,000 mm 0,0 UV-I 0 W/m 19,5 C 22,2 C 11,3 km/h (2 Bft) 96,23 %
09.08.2017 21:52 22,3 C 24,4 C 84 % 1010,5 hPa 0,0 l/m 7,8 km/h (2 Bft) W-SW 244 0 min 0,000 mm 0,0 UV-I 0 W/m 19,5 C 21,8 C 12,9 km/h (3 Bft) 97,73 %
09.08.2017 21:54 22,3 C 24,4 C 84 % 1010,5 hPa 0,0 l/m 7,8 km/h (2 Bft) SW 236 0 min 0,000 mm 0,0 UV-I 0 W/m 19,5 C 21,8 C 11,3 km/h (2 Bft) 96,00 %
09.08.2017 21:56 22,3 C 25,0 C 84 % 1010,6 hPa 0,0 l/m 8,2 km/h (2 Bft) SW 229 0 min 0,000 mm 0,0 UV-I 0 W/m 19,5 C 21,7 C 12,9 km/h (3 Bft) 96,00 %
09.08.2017 21:58 22,3 C 24,4 C 84 % 1010,7 hPa 0,0 l/m 8,7 km/h (2 Bft) W-SW 248 0 min 0,000 mm 0,0 UV-I 0 W/m 19,5 C 21,6 C 12,9 km/h (3 Bft) 100,00 %
09.08.2017 22:00 22,2 C 24,4 C 84 % 1010,7 hPa 0,0 l/m 7,9 km/h (2 Bft) W 278 0 min 0,000 mm 0,0 UV-I 0 W/m 19,4 C 21,7 C 11,3 km/h (2 Bft) 100,00 %
09.08.2017 22:02 22,3 C 24,4 C 84 % 1010,7 hPa 0,0 l/m 9,0 km/h (2 Bft) W-SW 257 0 min 0,025 mm 0,0 UV-I 0 W/m 19,5 C 21,5 C 14,5 km/h (3 Bft) 100,00 %
09.08.2017 22:04 22,3 C 24,4 C 83 % 1010,6 hPa 0,0 l/m 8,6 km/h (2 Bft) W 261 0 min 0,000 mm 0,0 UV-I 0 W/m 19,3 C 21,6 C 12,9 km/h (3 Bft) 100,00 %
09.08.2017 22:06 22,3 C 24,4 C 83 % 1010,7 hPa 0,0 l/m 11,1 km/h (2 Bft) W 265 0 min 0,000 mm 0,0 UV-I 0 W/m 19,3 C 20,9 C 17,7 km/h (3 Bft) 100,00 %
09.08.2017 22:08 22,3 C 24,4 C 83 % 1010,8 hPa 0,0 l/m 9,9 km/h (2 Bft) W-SW 258 0 min 0,000 mm 0,0 UV-I 0 W/m 19,3 C 21,2 C 16,1 km/h (3 Bft) 97,62 %
09.08.2017 22:10 22,3 C 24,4 C 83 % 1010,9 hPa 0,0 l/m 9,7 km/h (2 Bft) W-SW 244 0 min 0,000 mm 0,0 UV-I 0 W/m 19,3 C 21,3 C 12,9 km/h (3 Bft) 98,08 %
09.08.2017 22:12 22,3 C 24,4 C 83 % 1010,9 hPa 0,0 l/m 9,9 km/h (2 Bft) SW 236 0 min 0,000 mm 0,0 UV-I 0 W/m 19,3 C 21,2 C 14,5 km/h (3 Bft) 97,62 %
09.08.2017 22:14 22,2 C 24,4 C 83 % 1011,1 hPa 0,0 l/m 9,3 km/h (2 Bft) W-SW 253 0 min 0,000 mm 0,0 UV-I 0 W/m 19,2 C 21,3 C 16,1 km/h (3 Bft) 100,00 %
09.08.2017 22:16 22,2 C 24,4 C 83 % 1011,2 hPa 0,0 l/m 7,7 km/h (2 Bft) SW 232 0 min 0,000 mm 0,0 UV-I 0 W/m 19,2 C 21,8 C 14,5 km/h (3 Bft) 100,00 %
09.08.2017 22:18 22,2 C 24,4 C 83 % 1011,3 hPa 0,0 l/m 8,8 km/h (2 Bft) SW 225 0 min 0,000 mm 0,0 UV-I 0 W/m 19,2 C 21,4 C 11,3 km/h (2 Bft) 100,00 %
09.08.2017 22:20 22,2 C 24,4 C 83 % 1011,4 hPa 0,0 l/m 9,0 km/h (2 Bft) SW 223 0 min 0,000 mm 0,0 UV-I 0 W/m 19,2 C 21,4 C 14,5 km/h (3 Bft) 97,67 %
09.08.2017 22:22 22,2 C 24,4 C 83 % 1011,4 hPa 0,0 l/m 9,3 km/h (2 Bft) W-SW 241 0 min 0,000 mm 0,0 UV-I 0 W/m 19,2 C 21,3 C 14,5 km/h (3 Bft) 100,00 %
09.08.2017 22:24 22,1 C 24,4 C 83 % 1011,5 hPa 0,0 l/m 9,7 km/h (2 Bft) W 272 0 min 0,000 mm 0,0 UV-I 0 W/m 19,1 C 21,0 C 16,1 km/h (3 Bft) 100,00 %
09.08.2017 22:26 22,1 C 24,4 C 83 % 1011,6 hPa 0,0 l/m 13,6 km/h (3 Bft) W-SW 246 0 min 0,000 mm 0,0 UV-I 0 W/m 19,1 C 20,1 C 19,3 km/h (3 Bft) 100,00 %
09.08.2017 22:28 22,1 C 24,4 C 82 % 1011,9 hPa 0,0 l/m 15,5 km/h (3 Bft) W-SW 238 0 min 0,000 mm 0,0 UV-I 0 W/m 18,9 C 19,7 C 22,5 km/h (4 Bft) 100,00 %
09.08.2017 22:30 22,1 C 24,4 C 82 % 1012,0 hPa 0,0 l/m 17,1 km/h (3 Bft) S-SW 196 0 min 0,000 mm 0,0 UV-I 0 W/m 18,9 C 19,4 C 25,7 km/h (4 Bft) 100,00 %
09.08.2017 22:33 22,1 C 24,4 C 81 % 1012,1 hPa 0,0 l/m 14,0 km/h (3 Bft) W-NW 288 0 min 0,000 mm 0,0 UV-I 0 W/m 18,7 C 20,0 C 22,5 km/h (4 Bft) 100,00 %
09.08.2017 22:34 22,1 C 24,4 C 81 % 1012,1 hPa 0,0 l/m 21,5 km/h (4 Bft) W-SW 257 0 min 0,000 mm 0,0 UV-I 0 W/m 18,7 C 18,7 C 25,7 km/h (4 Bft) 100,00 %
09.08.2017 22:36 22,2 C 24,4 C 81 % 1012,2 hPa 0,0 l/m 17,9 km/h (3 Bft) W 265 0 min 0,000 mm 0,0 UV-I 0 W/m 18,8 C 19,4 C 25,7 km/h (4 Bft) 100,00 %
09.08.2017 22:39 22,2 C 24,4 C 80 % 1012,3 hPa 0,0 l/m 18,0 km/h (3 Bft) W 264 0 min 0,000 mm 0,0 UV-I 0 W/m 18,6 C 19,4 C 25,7 km/h (4 Bft) 100,00 %
09.08.2017 22:40 22,2 C 24,4 C 80 % 1012,3 hPa 0,0 l/m 17,7 km/h (3 Bft) W-SW 250 0 min 0,000 mm 0,0 UV-I 0 W/m 18,6 C 19,4 C 22,5 km/h (4 Bft) 100,00 %
09.08.2017 22:44 22,2 C 24,4 C 80 % 1012,3 hPa 0,0 l/m 14,3 km/h (3 Bft) W-SW 250 0 min 0,000 mm 0,0 UV-I 0 W/m 18,6 C 20,1 C 19,3 km/h (3 Bft) 100,00 %
09.08.2017 22:46 22,2 C 24,4 C 80 % 1012,2 hPa 0,0 l/m 10,8 km/h (2 Bft) W 265 0 min 0,000 mm 0,0 UV-I 0 W/m 18,6 C 20,9 C 19,3 km/h (3 Bft) 100,00 %
09.08.2017 22:49 22,2 C 24,4 C 80 % 1012,5 hPa 0,0 l/m 15,8 km/h (3 Bft) W-SW 247 0 min 0,000 mm 0,0 UV-I 0 W/m 18,6 C 19,8 C 30,6 km/h (5 Bft) 100,00 %
09.08.2017 22:50 22,2 C 24,4 C 80 % 1012,5 hPa 0,0 l/m 15,9 km/h (3 Bft) W 262 0 min 0,000 mm 0,0 UV-I 0 W/m 18,6 C 19,7 C 19,3 km/h (3 Bft) 100,00 %
09.08.2017 22:58 22,2 C 24,4 C 80 % 1012,4 hPa 0,0 l/m 12,6 km/h (3 Bft) W 264 0 min 0,000 mm 0,0 UV-I 0 W/m 18,6 C 20,4 C 20,9 km/h (4 Bft) 100,00 %
09.08.2017 23:00 22,2 C 24,4 C 80 % 1012,4 hPa 0,0 l/m 14,6 km/h (3 Bft) W 260 0 min 0,051 mm 0,0 UV-I 0 W/m 18,6 C 20,0 C 22,5 km/h (4 Bft) 100,00 %
09.08.2017 23:02 22,1 C 24,4 C 81 % 1012,6 hPa 0,0 l/m 10,4 km/h (2 Bft) W-SW 255 0 min 0,000 mm 0,0 UV-I 0 W/m 18,7 C 20,9 C 16,1 km/h (3 Bft) 98,00 %
09.08.2017 23:04 22,1 C 24,4 C 81 % 1012,7 hPa 0,0 l/m 11,8 km/h (2 Bft) W-SW 245 0 min 0,000 mm 0,0 UV-I 0 W/m 18,7 C 20,5 C 16,1 km/h (3 Bft) 100,00 %
09.08.2017 23:06 22,1 C 24,4 C 81 % 1012,7 hPa 0,0 l/m 15,0 km/h (3 Bft) W-SW 237 0 min 0,000 mm 0,0 UV-I 0 W/m 18,7 C 19,8 C 22,5 km/h (4 Bft) 100,00 %
09.08.2017 23:08 22,1 C 24,4 C 82 % 1012,9 hPa 0,0 l/m 10,6 km/h (2 Bft) SW 231 0 min 0,000 mm 0,0 UV-I 0 W/m 18,9 C 20,8 C 14,5 km/h (3 Bft) 100,00 %
09.08.2017 23:10 22,0 C 24,4 C 82 % 1013,2 hPa 0,0 l/m 12,2 km/h (2 Bft) SW 221 0 min 0,000 mm 0,0 UV-I 0 W/m 18,8 C 20,3 C 20,9 km/h (4 Bft) 97,56 %
09.08.2017 23:12 21,9 C 24,4 C 82 % 1013,4 hPa 0,0 l/m 13,1 km/h (3 Bft) W-SW 248 0 min 0,000 mm 0,0 UV-I 0 W/m 18,7 C 20,0 C 19,3 km/h (3 Bft) 100,00 %
09.08.2017 23:14 21,9 C 24,4 C 82 % 1013,9 hPa 0,0 l/m 14,2 km/h (3 Bft) S-SW 198 0 min 0,000 mm 0,0 UV-I 0 W/m 18,7 C 19,7 C 22,5 km/h (4 Bft) 100,00 %
09.08.2017 23:16 21,9 C 24,4 C 82 % 1014,4 hPa 0,0 l/m 11,8 km/h (2 Bft) S-SW 198 0 min 0,000 mm 0,0 UV-I 0 W/m 18,7 C 20,3 C 19,3 km/h (3 Bft) 100,00 %
09.08.2017 23:18 21,9 C 24,4 C 81 % 1014,4 hPa 0,0 l/m 12,2 km/h (2 Bft) S-SO 163 0 min 0,000 mm 0,0 UV-I 0 W/m 18,5 C 20,2 C 29,0 km/h (5 Bft) 100,00 %
09.08.2017 23:20 21,9 C 24,4 C 81 % 1014,5 hPa 0,0 l/m 13,7 km/h (3 Bft) S-SW 202 0 min 0,000 mm 0,0 UV-I 0 W/m 18,5 C 19,8 C 22,5 km/h (4 Bft) 98,63 %
09.08.2017 23:22 21,9 C 24,4 C 80 % 1014,5 hPa 0,0 l/m 11,1 km/h (2 Bft) SW 227 0 min 0,000 mm 0,0 UV-I 0 W/m 18,3 C 20,4 C 17,7 km/h (3 Bft) 97,56 %
09.08.2017 23:24 21,9 C 24,4 C 80 % 1014,5 hPa 0,0 l/m 13,9 km/h (3 Bft) S-SW 205 0 min 0,000 mm 0,0 UV-I 0 W/m 18,3 C 19,8 C 25,7 km/h (4 Bft) 95,12 %
09.08.2017 23:26 21,9 C 24,4 C 81 % 1014,7 hPa 0,0 l/m 12,0 km/h (2 Bft) S 173 0 min 0,000 mm 0,0 UV-I 0 W/m 18,5 C 20,2 C 20,9 km/h (4 Bft) 94,87 %
09.08.2017 23:28 21,8 C 24,4 C 81 % 1014,6 hPa 0,0 l/m 10,5 km/h (2 Bft) S-SW 206 0 min 0,000 mm 0,0 UV-I 0 W/m 18,4 C 20,5 C 24,1 km/h (4 Bft) 96,23 %
09.08.2017 23:30 21,8 C 24,4 C 82 % 1014,5 hPa 0,0 l/m 9,8 km/h (2 Bft) S 180 0 min 0,000 mm 0,0 UV-I 0 W/m 18,6 C 20,7 C 17,7 km/h (3 Bft) 96,55 %
09.08.2017 23:32 21,7 C 24,4 C 82 % 1014,1 hPa 0,0 l/m 5,7 km/h (1 Bft) S-SO 161 0 min 0,000 mm 0,0 UV-I 0 W/m 18,5 C 21,7 C 9,7 km/h (2 Bft) 95,24 %
09.08.2017 23:34 21,6 C 24,4 C 83 % 1013,9 hPa 0,0 l/m 1,5 km/h (1 Bft) S-SO 161 0 min 0,000 mm 0,0 UV-I 0 W/m 18,6 C 21,6 C 3,2 km/h (1 Bft) 94,23 %
09.08.2017 23:36 21,5 C 24,4 C 82 % 1013,8 hPa 0,0 l/m 2,5 km/h (1 Bft) S 172 0 min 0,000 mm 0,0 UV-I 0 W/m 18,3 C 21,5 C 6,4 km/h (2 Bft) 94,87 %
09.08.2017 23:38 21,4 C 24,4 C 83 % 1014,0 hPa 0,2 l/m 1,8 km/h (1 Bft) W-SW 250 0 min 0,000 mm 0,0 UV-I 0 W/m 18,4 C 21,4 C 3,2 km/h (1 Bft) 94,00 %
09.08.2017 23:40 21,3 C 24,4 C 84 % 1014,0 hPa 0,0 l/m 3,8 km/h (1 Bft) SW 226 0 min 0,000 mm 0,0 UV-I 0 W/m 18,5 C 21,3 C 4,8 km/h (1 Bft) 94,00 %
09.08.2017 23:42 21,2 C 24,4 C 84 % 1013,7 hPa 0,0 l/m 1,2 km/h (1 Bft) SW 226 0 min 0,000 mm 0,0 UV-I 0 W/m 18,4 C 21,2 C 3,2 km/h (1 Bft) 94,74 %
09.08.2017 23:44 21,2 C 24,4 C 85 % 1013,5 hPa 0,0 l/m 2,1 km/h (1 Bft) SW 226 0 min 0,000 mm 0,0 UV-I 0 W/m 18,6 C 21,2 C 4,8 km/h (1 Bft) 96,43 %
09.08.2017 23:46 21,1 C 24,4 C 85 % 1013,5 hPa 0,0 l/m 4,0 km/h (1 Bft) SW 226 0 min 0,000 mm 0,0 UV-I 0 W/m 18,5 C 21,1 C 6,4 km/h (2 Bft) 96,00 %
09.08.2017 23:48 21,1 C 24,4 C 85 % 1013,4 hPa 0,0 l/m 6,5 km/h (2 Bft) W-SW 237 0 min 0,000 mm 0,0 UV-I 0 W/m 18,5 C 21,1 C 9,7 km/h (2 Bft) 94,29 %
09.08.2017 23:50 21,0 C 24,4 C 86 % 1013,3 hPa 0,0 l/m 5,5 km/h (1 Bft) W-SW 238 0 min 0,000 mm 0,0 UV-I 0 W/m 18,6 C 21,0 C 8,0 km/h (2 Bft) 96,23 %
09.08.2017 23:52 20,9 C 24,4 C 87 % 1013,2 hPa 0,0 l/m 3,9 km/h (1 Bft) W-SW 253 0 min 0,000 mm 0,0 UV-I 0 W/m 18,7 C 20,9 C 6,4 km/h (2 Bft) 92,31 %
09.08.2017 23:54 20,8 C 24,4 C 87 % 1013,2 hPa 0,0 l/m 5,2 km/h (1 Bft) W-SW 256 0 min 0,000 mm 0,0 UV-I 0 W/m 18,6 C 20,8 C 8,0 km/h (2 Bft) 96,92 %
09.08.2017 23:56 20,8 C 24,4 C 87 % 1013,4 hPa 0,0 l/m 7,5 km/h (2 Bft) SW 231 0 min 0,000 mm 0,0 UV-I 0 W/m 18,6 C 20,4 C 12,9 km/h (3 Bft) 93,62 %
09.08.2017 23:58 20,7 C 24,4 C 87 % 1013,6 hPa 0,0 l/m 9,2 km/h (2 Bft) SW 219 0 min 0,000 mm 0,0 UV-I 0 W/m 18,5 C 19,7 C 16,1 km/h (3 Bft) 96,23 %
_ Min-Zeit 05:38 04:16 16:06 19:54 - 04:08 - - - - - - 04:14 00:04 07:48 16:02
Minimum _ 15,4 C 23,3 C 54 % 1009,3 hPa - 0,0 km/h (0 Bft) - - - - - - 14,2 C 13,7 C 0,0 km/h (0 Bft) 89,47 %
_ Max-Zeit 17:04 16:24 06:00 07:04 00:10 13:10 - - 17:53 15:00 12:52 13:06 18:32 18:32 13:10 00:30
Maximum _ 28,3 C 25,0 C 95 % 1016,9 hPa 0,2 l/m 26,6 km/h
NO (4 Bft)
- - 3 min 0,610 mm 5,7 UV-I 813 W/m 19,9 C 28,2 C 37,0 km/h
O-NO (5 Bft)
100,00 %
Durchschnitt _ 21,4 C 24,0 C 77 % 1013,3 hPa #0,4 l/m 9,4 km/h (2 Bft) O-NO - #7:58 h #4,648 mm 3,3 UV-I 377 W/m 16,8 C 20,5 C 14,4 km/h (3 Bft) 98,12 %